<?xml version="1.0" encoding="UTF-8" standalone="no" ?>
<gpx xmlns="http://www.topografix.com/GPX/1/1" xmlns:xsi="http://www.w3.org/2001/XMLSchema-instance" xsi:schemaLocation="http://www.topografix.com/GPX/1/1 http://www.topografix.com/GPX/1/1/gpx.xsd" version="1.1" creator="VisuGPX - https://www.visugpx.com">
  <metadata>
    <name>Activité de Randonnée TwoNav</name>
    <desc><![CDATA[2021-11-21_134437.trk]]></desc>
  </metadata>
  <trk>
    <name><![CDATA[Activité de Randonnée TwoNav_1]]></name>
    <trkseg>
      <trkpt lat="49.157" lon="7.03339">
        <ele>197</ele>
        <time>2021-11-21T12:44:37Z</time>
      </trkpt>
      <trkpt lat="49.157" lon="7.03339">
        <ele>197</ele>
        <time>2021-11-21T12:44:37Z</time>
      </trkpt>
      <trkpt lat="49.15699" lon="7.03343">
        <ele>196.9</ele>
        <time>2021-11-21T12:44:38Z</time>
      </trkpt>
      <trkpt lat="49.1569" lon="7.03348">
        <ele>196.7</ele>
        <time>2021-11-21T12:44:41Z</time>
      </trkpt>
      <trkpt lat="49.15681" lon="7.03346">
        <ele>196.6</ele>
        <time>2021-11-21T12:44:45Z</time>
      </trkpt>
      <trkpt lat="49.15673" lon="7.03355">
        <ele>196.5</ele>
        <time>2021-11-21T12:44:48Z</time>
      </trkpt>
      <trkpt lat="49.15666" lon="7.03346">
        <ele>196.5</ele>
        <time>2021-11-21T12:44:55Z</time>
      </trkpt>
      <trkpt lat="49.1566" lon="7.03334">
        <ele>196.5</ele>
        <time>2021-11-21T12:44:59Z</time>
      </trkpt>
      <trkpt lat="49.15657" lon="7.0335">
        <ele>196.5</ele>
        <time>2021-11-21T12:45:06Z</time>
      </trkpt>
      <trkpt lat="49.15653" lon="7.03364">
        <ele>196.5</ele>
        <time>2021-11-21T12:45:09Z</time>
      </trkpt>
      <trkpt lat="49.15655" lon="7.03379">
        <ele>196.4</ele>
        <time>2021-11-21T12:45:15Z</time>
      </trkpt>
      <trkpt lat="49.15655" lon="7.03393">
        <ele>196.4</ele>
        <time>2021-11-21T12:45:19Z</time>
      </trkpt>
      <trkpt lat="49.15661" lon="7.03404">
        <ele>196.5</ele>
        <time>2021-11-21T12:45:29Z</time>
      </trkpt>
      <trkpt lat="49.15653" lon="7.03417">
        <ele>196.5</ele>
        <time>2021-11-21T12:45:41Z</time>
      </trkpt>
      <trkpt lat="49.15649" lon="7.03431">
        <ele>196.6</ele>
        <time>2021-11-21T12:45:45Z</time>
      </trkpt>
      <trkpt lat="49.15647" lon="7.03444">
        <ele>196.8</ele>
        <time>2021-11-21T12:45:51Z</time>
      </trkpt>
      <trkpt lat="49.15647" lon="7.03459">
        <ele>197</ele>
        <time>2021-11-21T12:46:02Z</time>
      </trkpt>
      <trkpt lat="49.15647" lon="7.03473">
        <ele>196.9</ele>
        <time>2021-11-21T12:46:08Z</time>
      </trkpt>
      <trkpt lat="49.15648" lon="7.03488">
        <ele>196.8</ele>
        <time>2021-11-21T12:46:14Z</time>
      </trkpt>
      <trkpt lat="49.15645" lon="7.03502">
        <ele>196.7</ele>
        <time>2021-11-21T12:46:25Z</time>
      </trkpt>
      <trkpt lat="49.15645" lon="7.03516">
        <ele>197.1</ele>
        <time>2021-11-21T12:46:31Z</time>
      </trkpt>
      <trkpt lat="49.15652" lon="7.03527">
        <ele>197.7</ele>
        <time>2021-11-21T12:46:42Z</time>
      </trkpt>
      <trkpt lat="49.15651" lon="7.03541">
        <ele>198.2</ele>
        <time>2021-11-21T12:46:48Z</time>
      </trkpt>
      <trkpt lat="49.15652" lon="7.03556">
        <ele>198.9</ele>
        <time>2021-11-21T12:46:54Z</time>
      </trkpt>
      <trkpt lat="49.15654" lon="7.0357">
        <ele>199.2</ele>
        <time>2021-11-21T12:46:59Z</time>
      </trkpt>
      <trkpt lat="49.15661" lon="7.03578">
        <ele>199.4</ele>
        <time>2021-11-21T12:47:09Z</time>
      </trkpt>
      <trkpt lat="49.15662" lon="7.03594">
        <ele>199.7</ele>
        <time>2021-11-21T12:47:13Z</time>
      </trkpt>
      <trkpt lat="49.15667" lon="7.03606">
        <ele>199.9</ele>
        <time>2021-11-21T12:47:19Z</time>
      </trkpt>
      <trkpt lat="49.15671" lon="7.03621">
        <ele>200.2</ele>
        <time>2021-11-21T12:47:28Z</time>
      </trkpt>
      <trkpt lat="49.15665" lon="7.03633">
        <ele>200.5</ele>
        <time>2021-11-21T12:47:33Z</time>
      </trkpt>
      <trkpt lat="49.15661" lon="7.03649">
        <ele>200.9</ele>
        <time>2021-11-21T12:47:40Z</time>
      </trkpt>
      <trkpt lat="49.15656" lon="7.03662">
        <ele>201.2</ele>
        <time>2021-11-21T12:47:46Z</time>
      </trkpt>
      <trkpt lat="49.15649" lon="7.03674">
        <ele>201.4</ele>
        <time>2021-11-21T12:47:52Z</time>
      </trkpt>
      <trkpt lat="49.15642" lon="7.03684">
        <ele>202.3</ele>
        <time>2021-11-21T12:47:59Z</time>
      </trkpt>
      <trkpt lat="49.15636" lon="7.03697">
        <ele>200.2</ele>
        <time>2021-11-21T12:48:06Z</time>
      </trkpt>
      <trkpt lat="49.15629" lon="7.03706">
        <ele>199.6</ele>
        <time>2021-11-21T12:48:14Z</time>
      </trkpt>
      <trkpt lat="49.1562" lon="7.0371">
        <ele>199.2</ele>
        <time>2021-11-21T12:48:22Z</time>
      </trkpt>
      <trkpt lat="49.15619" lon="7.03725">
        <ele>198.6</ele>
        <time>2021-11-21T12:48:29Z</time>
      </trkpt>
      <trkpt lat="49.15621" lon="7.03738">
        <ele>198.8</ele>
        <time>2021-11-21T12:48:36Z</time>
      </trkpt>
      <trkpt lat="49.15624" lon="7.03751">
        <ele>199.1</ele>
        <time>2021-11-21T12:48:44Z</time>
      </trkpt>
      <trkpt lat="49.15627" lon="7.03766">
        <ele>199.4</ele>
        <time>2021-11-21T12:48:51Z</time>
      </trkpt>
      <trkpt lat="49.15631" lon="7.0378">
        <ele>199.8</ele>
        <time>2021-11-21T12:48:59Z</time>
      </trkpt>
      <trkpt lat="49.15635" lon="7.03796">
        <ele>200.4</ele>
        <time>2021-11-21T12:49:06Z</time>
      </trkpt>
      <trkpt lat="49.15639" lon="7.03809">
        <ele>201</ele>
        <time>2021-11-21T12:49:13Z</time>
      </trkpt>
      <trkpt lat="49.15643" lon="7.03824">
        <ele>201.8</ele>
        <time>2021-11-21T12:49:20Z</time>
      </trkpt>
      <trkpt lat="49.15645" lon="7.03839">
        <ele>202.5</ele>
        <time>2021-11-21T12:49:27Z</time>
      </trkpt>
      <trkpt lat="49.15645" lon="7.03855">
        <ele>203.6</ele>
        <time>2021-11-21T12:49:33Z</time>
      </trkpt>
      <trkpt lat="49.1565" lon="7.03868">
        <ele>204.7</ele>
        <time>2021-11-21T12:49:42Z</time>
      </trkpt>
      <trkpt lat="49.15652" lon="7.03883">
        <ele>205.9</ele>
        <time>2021-11-21T12:49:48Z</time>
      </trkpt>
      <trkpt lat="49.15651" lon="7.03899">
        <ele>207.1</ele>
        <time>2021-11-21T12:49:55Z</time>
      </trkpt>
      <trkpt lat="49.1565" lon="7.03914">
        <ele>208.2</ele>
        <time>2021-11-21T12:50:03Z</time>
      </trkpt>
      <trkpt lat="49.15651" lon="7.03928">
        <ele>209.2</ele>
        <time>2021-11-21T12:50:10Z</time>
      </trkpt>
      <trkpt lat="49.1565" lon="7.03943">
        <ele>210.3</ele>
        <time>2021-11-21T12:50:18Z</time>
      </trkpt>
      <trkpt lat="49.15651" lon="7.03959">
        <ele>211.3</ele>
        <time>2021-11-21T12:50:25Z</time>
      </trkpt>
      <trkpt lat="49.15654" lon="7.03973">
        <ele>212.3</ele>
        <time>2021-11-21T12:50:32Z</time>
      </trkpt>
      <trkpt lat="49.15657" lon="7.03988">
        <ele>213.5</ele>
        <time>2021-11-21T12:50:43Z</time>
      </trkpt>
      <trkpt lat="49.15657" lon="7.04004">
        <ele>214.7</ele>
        <time>2021-11-21T12:50:51Z</time>
      </trkpt>
      <trkpt lat="49.1566" lon="7.04019">
        <ele>215.8</ele>
        <time>2021-11-21T12:51:01Z</time>
      </trkpt>
      <trkpt lat="49.15661" lon="7.04034">
        <ele>217</ele>
        <time>2021-11-21T12:51:10Z</time>
      </trkpt>
      <trkpt lat="49.15663" lon="7.04048">
        <ele>218.2</ele>
        <time>2021-11-21T12:51:19Z</time>
      </trkpt>
      <trkpt lat="49.15665" lon="7.04062">
        <ele>219.5</ele>
        <time>2021-11-21T12:51:26Z</time>
      </trkpt>
      <trkpt lat="49.15666" lon="7.04076">
        <ele>220.8</ele>
        <time>2021-11-21T12:51:36Z</time>
      </trkpt>
      <trkpt lat="49.1567" lon="7.04089">
        <ele>222.5</ele>
        <time>2021-11-21T12:51:44Z</time>
      </trkpt>
      <trkpt lat="49.15676" lon="7.04099">
        <ele>223.1</ele>
        <time>2021-11-21T12:51:52Z</time>
      </trkpt>
      <trkpt lat="49.15682" lon="7.04111">
        <ele>224.1</ele>
        <time>2021-11-21T12:52:00Z</time>
      </trkpt>
      <trkpt lat="49.15689" lon="7.04122">
        <ele>224.9</ele>
        <time>2021-11-21T12:52:08Z</time>
      </trkpt>
      <trkpt lat="49.15693" lon="7.04135">
        <ele>225.7</ele>
        <time>2021-11-21T12:52:16Z</time>
      </trkpt>
      <trkpt lat="49.15703" lon="7.04141">
        <ele>226.5</ele>
        <time>2021-11-21T12:52:25Z</time>
      </trkpt>
      <trkpt lat="49.1571" lon="7.04149">
        <ele>227.3</ele>
        <time>2021-11-21T12:52:32Z</time>
      </trkpt>
      <trkpt lat="49.15718" lon="7.04159">
        <ele>228.1</ele>
        <time>2021-11-21T12:52:40Z</time>
      </trkpt>
      <trkpt lat="49.15725" lon="7.04167">
        <ele>228.9</ele>
        <time>2021-11-21T12:52:47Z</time>
      </trkpt>
      <trkpt lat="49.15731" lon="7.04178">
        <ele>229.7</ele>
        <time>2021-11-21T12:52:54Z</time>
      </trkpt>
      <trkpt lat="49.15737" lon="7.04191">
        <ele>230.5</ele>
        <time>2021-11-21T12:53:00Z</time>
      </trkpt>
      <trkpt lat="49.15738" lon="7.04208">
        <ele>231</ele>
        <time>2021-11-21T12:53:05Z</time>
      </trkpt>
      <trkpt lat="49.15741" lon="7.04223">
        <ele>231.3</ele>
        <time>2021-11-21T12:53:11Z</time>
      </trkpt>
      <trkpt lat="49.15745" lon="7.04237">
        <ele>232.3</ele>
        <time>2021-11-21T12:53:17Z</time>
      </trkpt>
      <trkpt lat="49.1575" lon="7.0425">
        <ele>233.2</ele>
        <time>2021-11-21T12:53:23Z</time>
      </trkpt>
      <trkpt lat="49.15754" lon="7.04263">
        <ele>234.2</ele>
        <time>2021-11-21T12:53:30Z</time>
      </trkpt>
      <trkpt lat="49.15758" lon="7.04278">
        <ele>235.3</ele>
        <time>2021-11-21T12:53:37Z</time>
      </trkpt>
      <trkpt lat="49.15762" lon="7.04291">
        <ele>236.3</ele>
        <time>2021-11-21T12:53:44Z</time>
      </trkpt>
      <trkpt lat="49.15765" lon="7.04306">
        <ele>237.4</ele>
        <time>2021-11-21T12:53:51Z</time>
      </trkpt>
      <trkpt lat="49.15768" lon="7.04319">
        <ele>238.5</ele>
        <time>2021-11-21T12:53:59Z</time>
      </trkpt>
      <trkpt lat="49.15772" lon="7.04333">
        <ele>239.7</ele>
        <time>2021-11-21T12:54:07Z</time>
      </trkpt>
      <trkpt lat="49.15776" lon="7.04346">
        <ele>240.9</ele>
        <time>2021-11-21T12:54:15Z</time>
      </trkpt>
      <trkpt lat="49.15781" lon="7.04358">
        <ele>242</ele>
        <time>2021-11-21T12:54:24Z</time>
      </trkpt>
      <trkpt lat="49.15786" lon="7.04369">
        <ele>243.2</ele>
        <time>2021-11-21T12:54:33Z</time>
      </trkpt>
      <trkpt lat="49.1579" lon="7.04382">
        <ele>244.3</ele>
        <time>2021-11-21T12:54:41Z</time>
      </trkpt>
      <trkpt lat="49.15793" lon="7.04395">
        <ele>245.5</ele>
        <time>2021-11-21T12:54:47Z</time>
      </trkpt>
      <trkpt lat="49.15797" lon="7.04409">
        <ele>246.8</ele>
        <time>2021-11-21T12:54:54Z</time>
      </trkpt>
      <trkpt lat="49.15801" lon="7.04423">
        <ele>247.9</ele>
        <time>2021-11-21T12:55:01Z</time>
      </trkpt>
      <trkpt lat="49.15806" lon="7.04436">
        <ele>248.9</ele>
        <time>2021-11-21T12:55:09Z</time>
      </trkpt>
      <trkpt lat="49.15811" lon="7.04448">
        <ele>249.8</ele>
        <time>2021-11-21T12:55:17Z</time>
      </trkpt>
      <trkpt lat="49.15815" lon="7.0446">
        <ele>250.5</ele>
        <time>2021-11-21T12:55:24Z</time>
      </trkpt>
      <trkpt lat="49.1582" lon="7.04473">
        <ele>251.2</ele>
        <time>2021-11-21T12:55:31Z</time>
      </trkpt>
      <trkpt lat="49.15824" lon="7.04486">
        <ele>251.9</ele>
        <time>2021-11-21T12:55:39Z</time>
      </trkpt>
      <trkpt lat="49.1583" lon="7.04498">
        <ele>252.6</ele>
        <time>2021-11-21T12:55:47Z</time>
      </trkpt>
      <trkpt lat="49.15835" lon="7.04512">
        <ele>253.4</ele>
        <time>2021-11-21T12:55:55Z</time>
      </trkpt>
      <trkpt lat="49.1584" lon="7.04525">
        <ele>254.1</ele>
        <time>2021-11-21T12:56:02Z</time>
      </trkpt>
      <trkpt lat="49.15846" lon="7.04535">
        <ele>254.9</ele>
        <time>2021-11-21T12:56:10Z</time>
      </trkpt>
      <trkpt lat="49.15853" lon="7.04545">
        <ele>255.7</ele>
        <time>2021-11-21T12:56:17Z</time>
      </trkpt>
      <trkpt lat="49.15858" lon="7.04559">
        <ele>256.6</ele>
        <time>2021-11-21T12:56:24Z</time>
      </trkpt>
      <trkpt lat="49.15864" lon="7.0457">
        <ele>257.4</ele>
        <time>2021-11-21T12:56:31Z</time>
      </trkpt>
      <trkpt lat="49.1587" lon="7.0458">
        <ele>258.3</ele>
        <time>2021-11-21T12:56:39Z</time>
      </trkpt>
      <trkpt lat="49.15876" lon="7.04591">
        <ele>259.1</ele>
        <time>2021-11-21T12:56:47Z</time>
      </trkpt>
      <trkpt lat="49.15882" lon="7.04603">
        <ele>260.1</ele>
        <time>2021-11-21T12:56:57Z</time>
      </trkpt>
      <trkpt lat="49.15889" lon="7.04612">
        <ele>261.1</ele>
        <time>2021-11-21T12:57:07Z</time>
      </trkpt>
      <trkpt lat="49.15894" lon="7.04627">
        <ele>262.2</ele>
        <time>2021-11-21T12:57:13Z</time>
      </trkpt>
      <trkpt lat="49.15898" lon="7.0464">
        <ele>263.4</ele>
        <time>2021-11-21T12:57:20Z</time>
      </trkpt>
      <trkpt lat="49.15901" lon="7.04653">
        <ele>264.6</ele>
        <time>2021-11-21T12:57:27Z</time>
      </trkpt>
      <trkpt lat="49.15905" lon="7.04666">
        <ele>265.8</ele>
        <time>2021-11-21T12:57:35Z</time>
      </trkpt>
      <trkpt lat="49.15912" lon="7.04678">
        <ele>267.2</ele>
        <time>2021-11-21T12:57:43Z</time>
      </trkpt>
      <trkpt lat="49.15917" lon="7.0469">
        <ele>268.4</ele>
        <time>2021-11-21T12:57:50Z</time>
      </trkpt>
      <trkpt lat="49.15926" lon="7.04698">
        <ele>270</ele>
        <time>2021-11-21T12:57:58Z</time>
      </trkpt>
      <trkpt lat="49.15931" lon="7.0471">
        <ele>271.2</ele>
        <time>2021-11-21T12:58:06Z</time>
      </trkpt>
      <trkpt lat="49.15938" lon="7.0472">
        <ele>272.5</ele>
        <time>2021-11-21T12:58:14Z</time>
      </trkpt>
      <trkpt lat="49.15947" lon="7.04726">
        <ele>273.6</ele>
        <time>2021-11-21T12:58:22Z</time>
      </trkpt>
      <trkpt lat="49.15953" lon="7.04738">
        <ele>274.8</ele>
        <time>2021-11-21T12:58:29Z</time>
      </trkpt>
      <trkpt lat="49.1596" lon="7.04748">
        <ele>275.8</ele>
        <time>2021-11-21T12:58:35Z</time>
      </trkpt>
      <trkpt lat="49.15968" lon="7.04755">
        <ele>276.8</ele>
        <time>2021-11-21T12:58:43Z</time>
      </trkpt>
      <trkpt lat="49.15972" lon="7.04769">
        <ele>277.7</ele>
        <time>2021-11-21T12:58:51Z</time>
      </trkpt>
      <trkpt lat="49.15963" lon="7.04776">
        <ele>278.7</ele>
        <time>2021-11-21T12:59:02Z</time>
      </trkpt>
      <trkpt lat="49.15955" lon="7.04779">
        <ele>279.3</ele>
        <time>2021-11-21T12:59:14Z</time>
      </trkpt>
      <trkpt lat="49.15949" lon="7.04768">
        <ele>279.9</ele>
        <time>2021-11-21T12:59:21Z</time>
      </trkpt>
      <trkpt lat="49.15942" lon="7.04757">
        <ele>280.4</ele>
        <time>2021-11-21T12:59:26Z</time>
      </trkpt>
      <trkpt lat="49.15935" lon="7.04749">
        <ele>280.8</ele>
        <time>2021-11-21T12:59:35Z</time>
      </trkpt>
      <trkpt lat="49.15927" lon="7.04739">
        <ele>281.3</ele>
        <time>2021-11-21T12:59:42Z</time>
      </trkpt>
      <trkpt lat="49.15919" lon="7.0473">
        <ele>281.8</ele>
        <time>2021-11-21T12:59:48Z</time>
      </trkpt>
      <trkpt lat="49.15908" lon="7.04734">
        <ele>282.3</ele>
        <time>2021-11-21T12:59:52Z</time>
      </trkpt>
      <trkpt lat="49.15899" lon="7.04735">
        <ele>282.8</ele>
        <time>2021-11-21T12:59:57Z</time>
      </trkpt>
      <trkpt lat="49.1589" lon="7.04736">
        <ele>283.3</ele>
        <time>2021-11-21T13:00:03Z</time>
      </trkpt>
      <trkpt lat="49.15881" lon="7.04732">
        <ele>283.9</ele>
        <time>2021-11-21T13:00:11Z</time>
      </trkpt>
      <trkpt lat="49.15872" lon="7.04728">
        <ele>284.5</ele>
        <time>2021-11-21T13:00:19Z</time>
      </trkpt>
      <trkpt lat="49.15863" lon="7.04727">
        <ele>285.1</ele>
        <time>2021-11-21T13:00:25Z</time>
      </trkpt>
      <trkpt lat="49.15854" lon="7.04723">
        <ele>285.8</ele>
        <time>2021-11-21T13:00:33Z</time>
      </trkpt>
      <trkpt lat="49.15845" lon="7.04724">
        <ele>286.6</ele>
        <time>2021-11-21T13:00:40Z</time>
      </trkpt>
      <trkpt lat="49.15836" lon="7.04721">
        <ele>287.3</ele>
        <time>2021-11-21T13:00:48Z</time>
      </trkpt>
      <trkpt lat="49.15826" lon="7.04719">
        <ele>288.1</ele>
        <time>2021-11-21T13:00:55Z</time>
      </trkpt>
      <trkpt lat="49.15816" lon="7.04719">
        <ele>289</ele>
        <time>2021-11-21T13:01:02Z</time>
      </trkpt>
      <trkpt lat="49.15806" lon="7.04719">
        <ele>289.9</ele>
        <time>2021-11-21T13:01:09Z</time>
      </trkpt>
      <trkpt lat="49.15796" lon="7.04717">
        <ele>290.8</ele>
        <time>2021-11-21T13:01:17Z</time>
      </trkpt>
      <trkpt lat="49.15789" lon="7.04708">
        <ele>291.6</ele>
        <time>2021-11-21T13:01:25Z</time>
      </trkpt>
      <trkpt lat="49.15779" lon="7.04704">
        <ele>292.5</ele>
        <time>2021-11-21T13:01:34Z</time>
      </trkpt>
      <trkpt lat="49.1577" lon="7.04701">
        <ele>293.3</ele>
        <time>2021-11-21T13:01:42Z</time>
      </trkpt>
      <trkpt lat="49.15761" lon="7.04694">
        <ele>294.1</ele>
        <time>2021-11-21T13:01:49Z</time>
      </trkpt>
      <trkpt lat="49.15755" lon="7.04684">
        <ele>294.9</ele>
        <time>2021-11-21T13:02:00Z</time>
      </trkpt>
      <trkpt lat="49.15744" lon="7.04686">
        <ele>295.9</ele>
        <time>2021-11-21T13:02:06Z</time>
      </trkpt>
      <trkpt lat="49.15735" lon="7.04689">
        <ele>296.6</ele>
        <time>2021-11-21T13:02:11Z</time>
      </trkpt>
      <trkpt lat="49.15725" lon="7.04692">
        <ele>297.4</ele>
        <time>2021-11-21T13:02:16Z</time>
      </trkpt>
      <trkpt lat="49.15716" lon="7.04691">
        <ele>298.1</ele>
        <time>2021-11-21T13:02:23Z</time>
      </trkpt>
      <trkpt lat="49.15707" lon="7.04694">
        <ele>298.8</ele>
        <time>2021-11-21T13:02:31Z</time>
      </trkpt>
      <trkpt lat="49.15698" lon="7.047">
        <ele>299.2</ele>
        <time>2021-11-21T13:02:40Z</time>
      </trkpt>
      <trkpt lat="49.15688" lon="7.04704">
        <ele>300</ele>
        <time>2021-11-21T13:02:48Z</time>
      </trkpt>
      <trkpt lat="49.15679" lon="7.04707">
        <ele>300.8</ele>
        <time>2021-11-21T13:02:54Z</time>
      </trkpt>
      <trkpt lat="49.1567" lon="7.04708">
        <ele>301.7</ele>
        <time>2021-11-21T13:03:02Z</time>
      </trkpt>
      <trkpt lat="49.15661" lon="7.04715">
        <ele>302.9</ele>
        <time>2021-11-21T13:03:12Z</time>
      </trkpt>
      <trkpt lat="49.15658" lon="7.04729">
        <ele>302.9</ele>
        <time>2021-11-21T13:03:22Z</time>
      </trkpt>
      <trkpt lat="49.15652" lon="7.04741">
        <ele>303.6</ele>
        <time>2021-11-21T13:03:27Z</time>
      </trkpt>
      <trkpt lat="49.15649" lon="7.04756">
        <ele>304.8</ele>
        <time>2021-11-21T13:03:35Z</time>
      </trkpt>
      <trkpt lat="49.15643" lon="7.04769">
        <ele>306.3</ele>
        <time>2021-11-21T13:03:43Z</time>
      </trkpt>
      <trkpt lat="49.1564" lon="7.04783">
        <ele>307.6</ele>
        <time>2021-11-21T13:03:50Z</time>
      </trkpt>
      <trkpt lat="49.15636" lon="7.04798">
        <ele>309.1</ele>
        <time>2021-11-21T13:03:58Z</time>
      </trkpt>
      <trkpt lat="49.15633" lon="7.04811">
        <ele>310.4</ele>
        <time>2021-11-21T13:04:04Z</time>
      </trkpt>
      <trkpt lat="49.15628" lon="7.04823">
        <ele>311.8</ele>
        <time>2021-11-21T13:04:11Z</time>
      </trkpt>
      <trkpt lat="49.15622" lon="7.04835">
        <ele>313.2</ele>
        <time>2021-11-21T13:04:17Z</time>
      </trkpt>
      <trkpt lat="49.15619" lon="7.04849">
        <ele>314.6</ele>
        <time>2021-11-21T13:04:21Z</time>
      </trkpt>
      <trkpt lat="49.15613" lon="7.0486">
        <ele>315.9</ele>
        <time>2021-11-21T13:04:28Z</time>
      </trkpt>
      <trkpt lat="49.1561" lon="7.04869">
        <ele>316.8</ele>
        <time>2021-11-21T13:04:38Z</time>
      </trkpt>
      <trkpt lat="49.15611" lon="7.0487">
        <ele>317</ele>
        <time>2021-11-21T13:04:39Z</time>
      </trkpt>
      <trkpt lat="49.15608" lon="7.04884">
        <ele>318.3</ele>
        <time>2021-11-21T13:04:47Z</time>
      </trkpt>
      <trkpt lat="49.15604" lon="7.04896">
        <ele>319.6</ele>
        <time>2021-11-21T13:04:53Z</time>
      </trkpt>
      <trkpt lat="49.15603" lon="7.04911">
        <ele>320.8</ele>
        <time>2021-11-21T13:04:59Z</time>
      </trkpt>
      <trkpt lat="49.15603" lon="7.04925">
        <ele>321.9</ele>
        <time>2021-11-21T13:05:05Z</time>
      </trkpt>
      <trkpt lat="49.15605" lon="7.04939">
        <ele>323</ele>
        <time>2021-11-21T13:05:12Z</time>
      </trkpt>
      <trkpt lat="49.15605" lon="7.04954">
        <ele>324.1</ele>
        <time>2021-11-21T13:05:23Z</time>
      </trkpt>
      <trkpt lat="49.15605" lon="7.04969">
        <ele>325.1</ele>
        <time>2021-11-21T13:05:30Z</time>
      </trkpt>
      <trkpt lat="49.15606" lon="7.04982">
        <ele>326</ele>
        <time>2021-11-21T13:05:38Z</time>
      </trkpt>
      <trkpt lat="49.15608" lon="7.04997">
        <ele>327</ele>
        <time>2021-11-21T13:05:46Z</time>
      </trkpt>
      <trkpt lat="49.15608" lon="7.05011">
        <ele>328</ele>
        <time>2021-11-21T13:05:50Z</time>
      </trkpt>
      <trkpt lat="49.15607" lon="7.05027">
        <ele>328.9</ele>
        <time>2021-11-21T13:05:57Z</time>
      </trkpt>
      <trkpt lat="49.15606" lon="7.05041">
        <ele>329.8</ele>
        <time>2021-11-21T13:06:03Z</time>
      </trkpt>
      <trkpt lat="49.15605" lon="7.05056">
        <ele>330.6</ele>
        <time>2021-11-21T13:06:10Z</time>
      </trkpt>
      <trkpt lat="49.156" lon="7.05069">
        <ele>331.4</ele>
        <time>2021-11-21T13:06:17Z</time>
      </trkpt>
      <trkpt lat="49.15595" lon="7.05082">
        <ele>332.2</ele>
        <time>2021-11-21T13:06:24Z</time>
      </trkpt>
      <trkpt lat="49.15596" lon="7.05096">
        <ele>332.9</ele>
        <time>2021-11-21T13:06:31Z</time>
      </trkpt>
      <trkpt lat="49.15601" lon="7.05109">
        <ele>333.6</ele>
        <time>2021-11-21T13:06:38Z</time>
      </trkpt>
      <trkpt lat="49.15607" lon="7.05119">
        <ele>334.2</ele>
        <time>2021-11-21T13:06:45Z</time>
      </trkpt>
      <trkpt lat="49.15613" lon="7.0513">
        <ele>334.9</ele>
        <time>2021-11-21T13:06:52Z</time>
      </trkpt>
      <trkpt lat="49.1562" lon="7.05141">
        <ele>335.6</ele>
        <time>2021-11-21T13:07:00Z</time>
      </trkpt>
      <trkpt lat="49.15623" lon="7.05155">
        <ele>336.4</ele>
        <time>2021-11-21T13:07:07Z</time>
      </trkpt>
      <trkpt lat="49.15623" lon="7.05171">
        <ele>337.2</ele>
        <time>2021-11-21T13:07:13Z</time>
      </trkpt>
      <trkpt lat="49.15623" lon="7.05186">
        <ele>338.2</ele>
        <time>2021-11-21T13:07:20Z</time>
      </trkpt>
      <trkpt lat="49.15621" lon="7.05202">
        <ele>339</ele>
        <time>2021-11-21T13:07:27Z</time>
      </trkpt>
      <trkpt lat="49.15618" lon="7.05217">
        <ele>339.9</ele>
        <time>2021-11-21T13:07:34Z</time>
      </trkpt>
      <trkpt lat="49.15616" lon="7.05231">
        <ele>340.7</ele>
        <time>2021-11-21T13:07:40Z</time>
      </trkpt>
      <trkpt lat="49.15616" lon="7.05245">
        <ele>341.5</ele>
        <time>2021-11-21T13:07:46Z</time>
      </trkpt>
      <trkpt lat="49.15616" lon="7.05261">
        <ele>342.2</ele>
        <time>2021-11-21T13:07:53Z</time>
      </trkpt>
      <trkpt lat="49.15615" lon="7.05276">
        <ele>342.8</ele>
        <time>2021-11-21T13:08:01Z</time>
      </trkpt>
      <trkpt lat="49.15615" lon="7.05291">
        <ele>343.4</ele>
        <time>2021-11-21T13:08:08Z</time>
      </trkpt>
      <trkpt lat="49.15616" lon="7.05306">
        <ele>344</ele>
        <time>2021-11-21T13:08:15Z</time>
      </trkpt>
      <trkpt lat="49.15618" lon="7.0532">
        <ele>344.5</ele>
        <time>2021-11-21T13:08:22Z</time>
      </trkpt>
      <trkpt lat="49.15619" lon="7.05336">
        <ele>345.1</ele>
        <time>2021-11-21T13:08:29Z</time>
      </trkpt>
      <trkpt lat="49.15618" lon="7.05351">
        <ele>345.7</ele>
        <time>2021-11-21T13:08:36Z</time>
      </trkpt>
      <trkpt lat="49.15617" lon="7.05365">
        <ele>346.1</ele>
        <time>2021-11-21T13:08:43Z</time>
      </trkpt>
      <trkpt lat="49.15617" lon="7.05379">
        <ele>346.6</ele>
        <time>2021-11-21T13:08:50Z</time>
      </trkpt>
      <trkpt lat="49.15617" lon="7.05395">
        <ele>347.1</ele>
        <time>2021-11-21T13:08:57Z</time>
      </trkpt>
      <trkpt lat="49.15618" lon="7.0541">
        <ele>347.5</ele>
        <time>2021-11-21T13:09:04Z</time>
      </trkpt>
      <trkpt lat="49.1562" lon="7.05425">
        <ele>347.9</ele>
        <time>2021-11-21T13:09:11Z</time>
      </trkpt>
      <trkpt lat="49.15623" lon="7.05438">
        <ele>348.2</ele>
        <time>2021-11-21T13:09:18Z</time>
      </trkpt>
      <trkpt lat="49.15626" lon="7.05452">
        <ele>348.6</ele>
        <time>2021-11-21T13:09:25Z</time>
      </trkpt>
      <trkpt lat="49.15628" lon="7.05467">
        <ele>348.9</ele>
        <time>2021-11-21T13:09:32Z</time>
      </trkpt>
      <trkpt lat="49.15628" lon="7.05482">
        <ele>349.2</ele>
        <time>2021-11-21T13:09:39Z</time>
      </trkpt>
      <trkpt lat="49.15629" lon="7.05497">
        <ele>349.5</ele>
        <time>2021-11-21T13:09:46Z</time>
      </trkpt>
      <trkpt lat="49.15629" lon="7.05512">
        <ele>349.8</ele>
        <time>2021-11-21T13:09:54Z</time>
      </trkpt>
      <trkpt lat="49.1563" lon="7.05527">
        <ele>350.1</ele>
        <time>2021-11-21T13:10:00Z</time>
      </trkpt>
      <trkpt lat="49.15631" lon="7.05542">
        <ele>350.3</ele>
        <time>2021-11-21T13:10:07Z</time>
      </trkpt>
      <trkpt lat="49.15632" lon="7.05557">
        <ele>350.4</ele>
        <time>2021-11-21T13:10:14Z</time>
      </trkpt>
      <trkpt lat="49.15632" lon="7.05573">
        <ele>350.5</ele>
        <time>2021-11-21T13:10:22Z</time>
      </trkpt>
      <trkpt lat="49.15629" lon="7.05588">
        <ele>350.5</ele>
        <time>2021-11-21T13:10:30Z</time>
      </trkpt>
      <trkpt lat="49.15628" lon="7.05602">
        <ele>350.4</ele>
        <time>2021-11-21T13:10:38Z</time>
      </trkpt>
      <trkpt lat="49.15626" lon="7.05616">
        <ele>350.4</ele>
        <time>2021-11-21T13:10:45Z</time>
      </trkpt>
      <trkpt lat="49.15628" lon="7.05631">
        <ele>350.4</ele>
        <time>2021-11-21T13:10:53Z</time>
      </trkpt>
      <trkpt lat="49.15632" lon="7.05645">
        <ele>350.5</ele>
        <time>2021-11-21T13:11:00Z</time>
      </trkpt>
      <trkpt lat="49.15635" lon="7.05658">
        <ele>350.7</ele>
        <time>2021-11-21T13:11:07Z</time>
      </trkpt>
      <trkpt lat="49.15639" lon="7.05672">
        <ele>350.9</ele>
        <time>2021-11-21T13:11:14Z</time>
      </trkpt>
      <trkpt lat="49.15644" lon="7.05686">
        <ele>351.2</ele>
        <time>2021-11-21T13:11:21Z</time>
      </trkpt>
      <trkpt lat="49.15648" lon="7.05698">
        <ele>351.4</ele>
        <time>2021-11-21T13:11:28Z</time>
      </trkpt>
      <trkpt lat="49.15655" lon="7.05708">
        <ele>351.6</ele>
        <time>2021-11-21T13:11:36Z</time>
      </trkpt>
      <trkpt lat="49.15661" lon="7.05718">
        <ele>351.8</ele>
        <time>2021-11-21T13:11:45Z</time>
      </trkpt>
      <trkpt lat="49.15661" lon="7.05718">
        <ele>351.8</ele>
        <time>2021-11-21T13:11:46Z</time>
      </trkpt>
      <trkpt lat="49.15661" lon="7.05718">
        <ele>351.8</ele>
        <time>2021-11-21T13:11:47Z</time>
      </trkpt>
      <trkpt lat="49.1566" lon="7.05719">
        <ele>351.8</ele>
        <time>2021-11-21T13:11:50Z</time>
      </trkpt>
      <trkpt lat="49.1566" lon="7.05718">
        <ele>351.8</ele>
        <time>2021-11-21T13:11:51Z</time>
      </trkpt>
      <trkpt lat="49.15659" lon="7.05732">
        <ele>351.9</ele>
        <time>2021-11-21T13:12:10Z</time>
      </trkpt>
      <trkpt lat="49.1566" lon="7.05746">
        <ele>351.9</ele>
        <time>2021-11-21T13:12:16Z</time>
      </trkpt>
      <trkpt lat="49.15664" lon="7.05759">
        <ele>351.8</ele>
        <time>2021-11-21T13:12:23Z</time>
      </trkpt>
      <trkpt lat="49.15671" lon="7.05771">
        <ele>351.8</ele>
        <time>2021-11-21T13:12:32Z</time>
      </trkpt>
      <trkpt lat="49.15676" lon="7.05782">
        <ele>351.9</ele>
        <time>2021-11-21T13:12:40Z</time>
      </trkpt>
      <trkpt lat="49.15682" lon="7.05794">
        <ele>351.9</ele>
        <time>2021-11-21T13:12:48Z</time>
      </trkpt>
      <trkpt lat="49.15686" lon="7.05808">
        <ele>352</ele>
        <time>2021-11-21T13:12:56Z</time>
      </trkpt>
      <trkpt lat="49.15691" lon="7.05821">
        <ele>352</ele>
        <time>2021-11-21T13:13:04Z</time>
      </trkpt>
      <trkpt lat="49.15695" lon="7.05834">
        <ele>351.9</ele>
        <time>2021-11-21T13:13:11Z</time>
      </trkpt>
      <trkpt lat="49.15696" lon="7.0584">
        <ele>351.9</ele>
        <time>2021-11-21T13:13:17Z</time>
      </trkpt>
      <trkpt lat="49.15696" lon="7.0584">
        <ele>351.9</ele>
        <time>2021-11-21T13:13:20Z</time>
      </trkpt>
      <trkpt lat="49.15697" lon="7.05854">
        <ele>351.8</ele>
        <time>2021-11-21T13:13:28Z</time>
      </trkpt>
      <trkpt lat="49.15697" lon="7.05854">
        <ele>351.8</ele>
        <time>2021-11-21T13:13:30Z</time>
      </trkpt>
      <trkpt lat="49.15697" lon="7.05854">
        <ele>351.8</ele>
        <time>2021-11-21T13:13:35Z</time>
      </trkpt>
      <trkpt lat="49.15697" lon="7.05854">
        <ele>351.8</ele>
        <time>2021-11-21T13:13:36Z</time>
      </trkpt>
      <trkpt lat="49.15697" lon="7.05855">
        <ele>351.8</ele>
        <time>2021-11-21T13:13:44Z</time>
      </trkpt>
      <trkpt lat="49.15699" lon="7.0587">
        <ele>351.6</ele>
        <time>2021-11-21T13:13:55Z</time>
      </trkpt>
      <trkpt lat="49.157" lon="7.05872">
        <ele>351.6</ele>
        <time>2021-11-21T13:13:59Z</time>
      </trkpt>
      <trkpt lat="49.157" lon="7.05873">
        <ele>351.6</ele>
        <time>2021-11-21T13:14:13Z</time>
      </trkpt>
      <trkpt lat="49.157" lon="7.05873">
        <ele>351.6</ele>
        <time>2021-11-21T13:14:14Z</time>
      </trkpt>
      <trkpt lat="49.157" lon="7.05873">
        <ele>351.6</ele>
        <time>2021-11-21T13:14:23Z</time>
      </trkpt>
      <trkpt lat="49.157" lon="7.05873">
        <ele>351.6</ele>
        <time>2021-11-21T13:14:24Z</time>
      </trkpt>
      <trkpt lat="49.157" lon="7.05874">
        <ele>351.5</ele>
        <time>2021-11-21T13:14:57Z</time>
      </trkpt>
      <trkpt lat="49.157" lon="7.05874">
        <ele>351.5</ele>
        <time>2021-11-21T13:14:58Z</time>
      </trkpt>
      <trkpt lat="49.157" lon="7.05875">
        <ele>351.5</ele>
        <time>2021-11-21T13:14:59Z</time>
      </trkpt>
      <trkpt lat="49.15703" lon="7.05888">
        <ele>351.4</ele>
        <time>2021-11-21T13:15:06Z</time>
      </trkpt>
      <trkpt lat="49.1571" lon="7.05897">
        <ele>351.2</ele>
        <time>2021-11-21T13:15:15Z</time>
      </trkpt>
      <trkpt lat="49.15718" lon="7.05904">
        <ele>351.1</ele>
        <time>2021-11-21T13:15:23Z</time>
      </trkpt>
      <trkpt lat="49.15725" lon="7.05914">
        <ele>351</ele>
        <time>2021-11-21T13:15:32Z</time>
      </trkpt>
      <trkpt lat="49.1573" lon="7.05923">
        <ele>351.1</ele>
        <time>2021-11-21T13:15:45Z</time>
      </trkpt>
      <trkpt lat="49.1573" lon="7.05924">
        <ele>351.2</ele>
        <time>2021-11-21T13:15:47Z</time>
      </trkpt>
      <trkpt lat="49.1574" lon="7.0592">
        <ele>351.6</ele>
        <time>2021-11-21T13:16:00Z</time>
      </trkpt>
      <trkpt lat="49.15747" lon="7.05909">
        <ele>352.1</ele>
        <time>2021-11-21T13:16:11Z</time>
      </trkpt>
      <trkpt lat="49.15755" lon="7.05902">
        <ele>352.6</ele>
        <time>2021-11-21T13:16:18Z</time>
      </trkpt>
      <trkpt lat="49.15763" lon="7.05896">
        <ele>353.2</ele>
        <time>2021-11-21T13:16:27Z</time>
      </trkpt>
      <trkpt lat="49.15762" lon="7.0591">
        <ele>352.7</ele>
        <time>2021-11-21T13:16:53Z</time>
      </trkpt>
      <trkpt lat="49.15754" lon="7.05917">
        <ele>352.2</ele>
        <time>2021-11-21T13:17:04Z</time>
      </trkpt>
      <trkpt lat="49.15754" lon="7.05918">
        <ele>352</ele>
        <time>2021-11-21T13:17:05Z</time>
      </trkpt>
      <trkpt lat="49.15758" lon="7.05931">
        <ele>351.5</ele>
        <time>2021-11-21T13:17:15Z</time>
      </trkpt>
      <trkpt lat="49.15761" lon="7.05946">
        <ele>350.9</ele>
        <time>2021-11-21T13:17:24Z</time>
      </trkpt>
      <trkpt lat="49.15765" lon="7.05959">
        <ele>350.3</ele>
        <time>2021-11-21T13:17:32Z</time>
      </trkpt>
      <trkpt lat="49.15771" lon="7.05972">
        <ele>349.6</ele>
        <time>2021-11-21T13:17:40Z</time>
      </trkpt>
      <trkpt lat="49.15778" lon="7.05982">
        <ele>348.9</ele>
        <time>2021-11-21T13:17:47Z</time>
      </trkpt>
      <trkpt lat="49.15784" lon="7.05993">
        <ele>348.2</ele>
        <time>2021-11-21T13:17:54Z</time>
      </trkpt>
      <trkpt lat="49.1579" lon="7.06006">
        <ele>347.5</ele>
        <time>2021-11-21T13:18:02Z</time>
      </trkpt>
      <trkpt lat="49.15795" lon="7.06017">
        <ele>346.7</ele>
        <time>2021-11-21T13:18:08Z</time>
      </trkpt>
      <trkpt lat="49.15802" lon="7.06027">
        <ele>346.1</ele>
        <time>2021-11-21T13:18:15Z</time>
      </trkpt>
      <trkpt lat="49.15807" lon="7.06039">
        <ele>345.3</ele>
        <time>2021-11-21T13:18:22Z</time>
      </trkpt>
      <trkpt lat="49.15813" lon="7.06051">
        <ele>344.6</ele>
        <time>2021-11-21T13:18:30Z</time>
      </trkpt>
      <trkpt lat="49.15818" lon="7.06065">
        <ele>344</ele>
        <time>2021-11-21T13:18:37Z</time>
      </trkpt>
      <trkpt lat="49.15824" lon="7.06075">
        <ele>343.4</ele>
        <time>2021-11-21T13:18:46Z</time>
      </trkpt>
      <trkpt lat="49.15828" lon="7.06089">
        <ele>342.8</ele>
        <time>2021-11-21T13:18:53Z</time>
      </trkpt>
      <trkpt lat="49.1583" lon="7.06092">
        <ele>342.6</ele>
        <time>2021-11-21T13:18:59Z</time>
      </trkpt>
      <trkpt lat="49.15831" lon="7.06092">
        <ele>342.6</ele>
        <time>2021-11-21T13:19:04Z</time>
      </trkpt>
      <trkpt lat="49.15838" lon="7.06101">
        <ele>342</ele>
        <time>2021-11-21T13:19:14Z</time>
      </trkpt>
      <trkpt lat="49.15845" lon="7.06112">
        <ele>341.3</ele>
        <time>2021-11-21T13:19:21Z</time>
      </trkpt>
      <trkpt lat="49.15852" lon="7.06122">
        <ele>340.7</ele>
        <time>2021-11-21T13:19:30Z</time>
      </trkpt>
      <trkpt lat="49.15859" lon="7.06132">
        <ele>340</ele>
        <time>2021-11-21T13:19:39Z</time>
      </trkpt>
      <trkpt lat="49.15865" lon="7.06145">
        <ele>339.4</ele>
        <time>2021-11-21T13:19:48Z</time>
      </trkpt>
      <trkpt lat="49.1587" lon="7.06156">
        <ele>338.9</ele>
        <time>2021-11-21T13:19:55Z</time>
      </trkpt>
      <trkpt lat="49.15876" lon="7.06166">
        <ele>338.4</ele>
        <time>2021-11-21T13:20:03Z</time>
      </trkpt>
      <trkpt lat="49.15879" lon="7.06174">
        <ele>338.1</ele>
        <time>2021-11-21T13:20:13Z</time>
      </trkpt>
      <trkpt lat="49.15879" lon="7.06174">
        <ele>338</ele>
        <time>2021-11-21T13:20:40Z</time>
      </trkpt>
      <trkpt lat="49.15879" lon="7.06174">
        <ele>338</ele>
        <time>2021-11-21T13:20:41Z</time>
      </trkpt>
      <trkpt lat="49.15879" lon="7.06176">
        <ele>338</ele>
        <time>2021-11-21T13:21:27Z</time>
      </trkpt>
      <trkpt lat="49.15883" lon="7.06183">
        <ele>337.6</ele>
        <time>2021-11-21T13:21:35Z</time>
      </trkpt>
      <trkpt lat="49.15883" lon="7.06183">
        <ele>337.6</ele>
        <time>2021-11-21T13:21:36Z</time>
      </trkpt>
      <trkpt lat="49.15883" lon="7.06183">
        <ele>337.6</ele>
        <time>2021-11-21T13:21:37Z</time>
      </trkpt>
      <trkpt lat="49.15883" lon="7.06185">
        <ele>337.5</ele>
        <time>2021-11-21T13:22:05Z</time>
      </trkpt>
      <trkpt lat="49.15883" lon="7.06185">
        <ele>337.5</ele>
        <time>2021-11-21T13:22:06Z</time>
      </trkpt>
      <trkpt lat="49.15883" lon="7.06185">
        <ele>337.5</ele>
        <time>2021-11-21T13:22:19Z</time>
      </trkpt>
      <trkpt lat="49.15888" lon="7.06198">
        <ele>336.8</ele>
        <time>2021-11-21T13:22:28Z</time>
      </trkpt>
      <trkpt lat="49.15893" lon="7.06209">
        <ele>336.1</ele>
        <time>2021-11-21T13:22:36Z</time>
      </trkpt>
      <trkpt lat="49.15897" lon="7.06224">
        <ele>335.3</ele>
        <time>2021-11-21T13:22:44Z</time>
      </trkpt>
      <trkpt lat="49.15901" lon="7.06238">
        <ele>334.6</ele>
        <time>2021-11-21T13:22:51Z</time>
      </trkpt>
      <trkpt lat="49.15905" lon="7.06251">
        <ele>334</ele>
        <time>2021-11-21T13:22:58Z</time>
      </trkpt>
      <trkpt lat="49.15908" lon="7.06265">
        <ele>333.3</ele>
        <time>2021-11-21T13:23:06Z</time>
      </trkpt>
      <trkpt lat="49.15911" lon="7.06278">
        <ele>332.7</ele>
        <time>2021-11-21T13:23:15Z</time>
      </trkpt>
      <trkpt lat="49.15916" lon="7.06291">
        <ele>332</ele>
        <time>2021-11-21T13:23:25Z</time>
      </trkpt>
      <trkpt lat="49.15919" lon="7.06304">
        <ele>331.4</ele>
        <time>2021-11-21T13:23:32Z</time>
      </trkpt>
      <trkpt lat="49.15922" lon="7.06317">
        <ele>330.7</ele>
        <time>2021-11-21T13:23:40Z</time>
      </trkpt>
      <trkpt lat="49.15926" lon="7.06331">
        <ele>330.1</ele>
        <time>2021-11-21T13:23:48Z</time>
      </trkpt>
      <trkpt lat="49.1593" lon="7.06344">
        <ele>329.3</ele>
        <time>2021-11-21T13:23:57Z</time>
      </trkpt>
      <trkpt lat="49.15933" lon="7.06358">
        <ele>328.6</ele>
        <time>2021-11-21T13:24:05Z</time>
      </trkpt>
      <trkpt lat="49.15936" lon="7.06372">
        <ele>328</ele>
        <time>2021-11-21T13:24:11Z</time>
      </trkpt>
      <trkpt lat="49.15939" lon="7.06385">
        <ele>327.3</ele>
        <time>2021-11-21T13:24:18Z</time>
      </trkpt>
      <trkpt lat="49.15943" lon="7.06398">
        <ele>326.6</ele>
        <time>2021-11-21T13:24:26Z</time>
      </trkpt>
      <trkpt lat="49.15945" lon="7.06414">
        <ele>325.7</ele>
        <time>2021-11-21T13:24:33Z</time>
      </trkpt>
      <trkpt lat="49.15948" lon="7.06428">
        <ele>324.9</ele>
        <time>2021-11-21T13:24:39Z</time>
      </trkpt>
      <trkpt lat="49.15952" lon="7.06442">
        <ele>324.1</ele>
        <time>2021-11-21T13:24:46Z</time>
      </trkpt>
      <trkpt lat="49.15951" lon="7.06456">
        <ele>323.1</ele>
        <time>2021-11-21T13:25:05Z</time>
      </trkpt>
      <trkpt lat="49.15945" lon="7.06468">
        <ele>322.1</ele>
        <time>2021-11-21T13:25:17Z</time>
      </trkpt>
      <trkpt lat="49.15944" lon="7.0647">
        <ele>321.9</ele>
        <time>2021-11-21T13:25:20Z</time>
      </trkpt>
      <trkpt lat="49.15944" lon="7.0647">
        <ele>321.9</ele>
        <time>2021-11-21T13:25:21Z</time>
      </trkpt>
      <trkpt lat="49.15935" lon="7.06473">
        <ele>321</ele>
        <time>2021-11-21T13:25:36Z</time>
      </trkpt>
      <trkpt lat="49.15926" lon="7.06469">
        <ele>320</ele>
        <time>2021-11-21T13:25:45Z</time>
      </trkpt>
      <trkpt lat="49.15916" lon="7.06463">
        <ele>318.9</ele>
        <time>2021-11-21T13:25:53Z</time>
      </trkpt>
      <trkpt lat="49.15909" lon="7.06455">
        <ele>317.8</ele>
        <time>2021-11-21T13:26:03Z</time>
      </trkpt>
      <trkpt lat="49.159" lon="7.06459">
        <ele>316.5</ele>
        <time>2021-11-21T13:26:23Z</time>
      </trkpt>
      <trkpt lat="49.15891" lon="7.06461">
        <ele>315.2</ele>
        <time>2021-11-21T13:26:33Z</time>
      </trkpt>
      <trkpt lat="49.15884" lon="7.06452">
        <ele>313.9</ele>
        <time>2021-11-21T13:26:41Z</time>
      </trkpt>
      <trkpt lat="49.15876" lon="7.06445">
        <ele>312.6</ele>
        <time>2021-11-21T13:26:49Z</time>
      </trkpt>
      <trkpt lat="49.15866" lon="7.06442">
        <ele>311.4</ele>
        <time>2021-11-21T13:26:58Z</time>
      </trkpt>
      <trkpt lat="49.15857" lon="7.06441">
        <ele>310.3</ele>
        <time>2021-11-21T13:27:07Z</time>
      </trkpt>
      <trkpt lat="49.15848" lon="7.06437">
        <ele>309.2</ele>
        <time>2021-11-21T13:27:17Z</time>
      </trkpt>
      <trkpt lat="49.15838" lon="7.06435">
        <ele>308</ele>
        <time>2021-11-21T13:27:27Z</time>
      </trkpt>
      <trkpt lat="49.15829" lon="7.0643">
        <ele>306.9</ele>
        <time>2021-11-21T13:27:35Z</time>
      </trkpt>
      <trkpt lat="49.1582" lon="7.06426">
        <ele>305.9</ele>
        <time>2021-11-21T13:27:45Z</time>
      </trkpt>
      <trkpt lat="49.15811" lon="7.06421">
        <ele>304.7</ele>
        <time>2021-11-21T13:27:54Z</time>
      </trkpt>
      <trkpt lat="49.15801" lon="7.06417">
        <ele>303.2</ele>
        <time>2021-11-21T13:28:01Z</time>
      </trkpt>
      <trkpt lat="49.15793" lon="7.06414">
        <ele>301.7</ele>
        <time>2021-11-21T13:28:14Z</time>
      </trkpt>
      <trkpt lat="49.15784" lon="7.0641">
        <ele>299.8</ele>
        <time>2021-11-21T13:28:23Z</time>
      </trkpt>
      <trkpt lat="49.15774" lon="7.06412">
        <ele>297.8</ele>
        <time>2021-11-21T13:28:36Z</time>
      </trkpt>
      <trkpt lat="49.15768" lon="7.06423">
        <ele>295.9</ele>
        <time>2021-11-21T13:28:46Z</time>
      </trkpt>
      <trkpt lat="49.15767" lon="7.06438">
        <ele>294.4</ele>
        <time>2021-11-21T13:28:58Z</time>
      </trkpt>
      <trkpt lat="49.15763" lon="7.06451">
        <ele>293.2</ele>
        <time>2021-11-21T13:29:07Z</time>
      </trkpt>
      <trkpt lat="49.15758" lon="7.06463">
        <ele>292.3</ele>
        <time>2021-11-21T13:29:17Z</time>
      </trkpt>
      <trkpt lat="49.15753" lon="7.06476">
        <ele>291.5</ele>
        <time>2021-11-21T13:29:26Z</time>
      </trkpt>
      <trkpt lat="49.15748" lon="7.06489">
        <ele>290.5</ele>
        <time>2021-11-21T13:29:36Z</time>
      </trkpt>
      <trkpt lat="49.15744" lon="7.06502">
        <ele>289.5</ele>
        <time>2021-11-21T13:29:45Z</time>
      </trkpt>
      <trkpt lat="49.15738" lon="7.06514">
        <ele>288.4</ele>
        <time>2021-11-21T13:29:56Z</time>
      </trkpt>
      <trkpt lat="49.15736" lon="7.06528">
        <ele>287.4</ele>
        <time>2021-11-21T13:30:06Z</time>
      </trkpt>
      <trkpt lat="49.15735" lon="7.06543">
        <ele>286.5</ele>
        <time>2021-11-21T13:30:13Z</time>
      </trkpt>
      <trkpt lat="49.15729" lon="7.06555">
        <ele>285.9</ele>
        <time>2021-11-21T13:30:20Z</time>
      </trkpt>
      <trkpt lat="49.15727" lon="7.06569">
        <ele>285.5</ele>
        <time>2021-11-21T13:30:28Z</time>
      </trkpt>
      <trkpt lat="49.15723" lon="7.06582">
        <ele>285</ele>
        <time>2021-11-21T13:30:36Z</time>
      </trkpt>
      <trkpt lat="49.15716" lon="7.06594">
        <ele>284.6</ele>
        <time>2021-11-21T13:30:43Z</time>
      </trkpt>
      <trkpt lat="49.1571" lon="7.06607">
        <ele>284.3</ele>
        <time>2021-11-21T13:30:52Z</time>
      </trkpt>
      <trkpt lat="49.15703" lon="7.06618">
        <ele>283.9</ele>
        <time>2021-11-21T13:31:01Z</time>
      </trkpt>
      <trkpt lat="49.15699" lon="7.0663">
        <ele>283.3</ele>
        <time>2021-11-21T13:31:08Z</time>
      </trkpt>
      <trkpt lat="49.15695" lon="7.06643">
        <ele>282.6</ele>
        <time>2021-11-21T13:31:16Z</time>
      </trkpt>
      <trkpt lat="49.15693" lon="7.06658">
        <ele>281.7</ele>
        <time>2021-11-21T13:31:24Z</time>
      </trkpt>
      <trkpt lat="49.15691" lon="7.06672">
        <ele>280.9</ele>
        <time>2021-11-21T13:31:33Z</time>
      </trkpt>
      <trkpt lat="49.15687" lon="7.06685">
        <ele>280.1</ele>
        <time>2021-11-21T13:31:41Z</time>
      </trkpt>
      <trkpt lat="49.15682" lon="7.06699">
        <ele>279.3</ele>
        <time>2021-11-21T13:31:50Z</time>
      </trkpt>
      <trkpt lat="49.15677" lon="7.06713">
        <ele>278.5</ele>
        <time>2021-11-21T13:31:59Z</time>
      </trkpt>
      <trkpt lat="49.15671" lon="7.06725">
        <ele>277.9</ele>
        <time>2021-11-21T13:32:07Z</time>
      </trkpt>
      <trkpt lat="49.15666" lon="7.06738">
        <ele>277.5</ele>
        <time>2021-11-21T13:32:16Z</time>
      </trkpt>
      <trkpt lat="49.15659" lon="7.06748">
        <ele>277.4</ele>
        <time>2021-11-21T13:32:26Z</time>
      </trkpt>
      <trkpt lat="49.15651" lon="7.06759">
        <ele>277.3</ele>
        <time>2021-11-21T13:32:34Z</time>
      </trkpt>
      <trkpt lat="49.15643" lon="7.06767">
        <ele>277.5</ele>
        <time>2021-11-21T13:32:43Z</time>
      </trkpt>
      <trkpt lat="49.15634" lon="7.06773">
        <ele>277.7</ele>
        <time>2021-11-21T13:32:53Z</time>
      </trkpt>
      <trkpt lat="49.15625" lon="7.0678">
        <ele>278.2</ele>
        <time>2021-11-21T13:33:00Z</time>
      </trkpt>
      <trkpt lat="49.15616" lon="7.06782">
        <ele>278.7</ele>
        <time>2021-11-21T13:33:10Z</time>
      </trkpt>
      <trkpt lat="49.15608" lon="7.0679">
        <ele>279.3</ele>
        <time>2021-11-21T13:33:18Z</time>
      </trkpt>
      <trkpt lat="49.156" lon="7.06799">
        <ele>279.6</ele>
        <time>2021-11-21T13:33:27Z</time>
      </trkpt>
      <trkpt lat="49.15592" lon="7.06807">
        <ele>279.7</ele>
        <time>2021-11-21T13:33:36Z</time>
      </trkpt>
      <trkpt lat="49.15583" lon="7.06812">
        <ele>279.4</ele>
        <time>2021-11-21T13:33:46Z</time>
      </trkpt>
      <trkpt lat="49.1558" lon="7.06825">
        <ele>278.8</ele>
        <time>2021-11-21T13:33:54Z</time>
      </trkpt>
      <trkpt lat="49.15576" lon="7.06838">
        <ele>277.9</ele>
        <time>2021-11-21T13:34:03Z</time>
      </trkpt>
      <trkpt lat="49.15571" lon="7.0685">
        <ele>277.1</ele>
        <time>2021-11-21T13:34:12Z</time>
      </trkpt>
      <trkpt lat="49.15566" lon="7.06864">
        <ele>276.4</ele>
        <time>2021-11-21T13:34:21Z</time>
      </trkpt>
      <trkpt lat="49.15557" lon="7.06868">
        <ele>276.1</ele>
        <time>2021-11-21T13:34:31Z</time>
      </trkpt>
      <trkpt lat="49.15549" lon="7.06877">
        <ele>276</ele>
        <time>2021-11-21T13:34:40Z</time>
      </trkpt>
      <trkpt lat="49.15542" lon="7.06887">
        <ele>275.9</ele>
        <time>2021-11-21T13:34:49Z</time>
      </trkpt>
      <trkpt lat="49.15539" lon="7.069">
        <ele>275.7</ele>
        <time>2021-11-21T13:34:56Z</time>
      </trkpt>
      <trkpt lat="49.15532" lon="7.06911">
        <ele>275.4</ele>
        <time>2021-11-21T13:35:03Z</time>
      </trkpt>
      <trkpt lat="49.15524" lon="7.06918">
        <ele>275.1</ele>
        <time>2021-11-21T13:35:12Z</time>
      </trkpt>
      <trkpt lat="49.1552" lon="7.06924">
        <ele>274.9</ele>
        <time>2021-11-21T13:35:21Z</time>
      </trkpt>
      <trkpt lat="49.15519" lon="7.06924">
        <ele>274.8</ele>
        <time>2021-11-21T13:35:22Z</time>
      </trkpt>
      <trkpt lat="49.15512" lon="7.06934">
        <ele>274.3</ele>
        <time>2021-11-21T13:35:31Z</time>
      </trkpt>
      <trkpt lat="49.15506" lon="7.06945">
        <ele>273.9</ele>
        <time>2021-11-21T13:35:40Z</time>
      </trkpt>
      <trkpt lat="49.155" lon="7.06956">
        <ele>273.4</ele>
        <time>2021-11-21T13:35:48Z</time>
      </trkpt>
      <trkpt lat="49.15491" lon="7.06963">
        <ele>272.9</ele>
        <time>2021-11-21T13:35:59Z</time>
      </trkpt>
      <trkpt lat="49.15484" lon="7.06973">
        <ele>272.1</ele>
        <time>2021-11-21T13:36:08Z</time>
      </trkpt>
      <trkpt lat="49.15477" lon="7.06982">
        <ele>271.1</ele>
        <time>2021-11-21T13:36:17Z</time>
      </trkpt>
      <trkpt lat="49.15469" lon="7.0699">
        <ele>270</ele>
        <time>2021-11-21T13:36:26Z</time>
      </trkpt>
      <trkpt lat="49.15462" lon="7.07">
        <ele>269.2</ele>
        <time>2021-11-21T13:36:32Z</time>
      </trkpt>
      <trkpt lat="49.15456" lon="7.07012">
        <ele>268.6</ele>
        <time>2021-11-21T13:36:39Z</time>
      </trkpt>
      <trkpt lat="49.15448" lon="7.0702">
        <ele>268.3</ele>
        <time>2021-11-21T13:36:48Z</time>
      </trkpt>
      <trkpt lat="49.1544" lon="7.07028">
        <ele>268.1</ele>
        <time>2021-11-21T13:36:57Z</time>
      </trkpt>
      <trkpt lat="49.15432" lon="7.07034">
        <ele>268</ele>
        <time>2021-11-21T13:37:06Z</time>
      </trkpt>
      <trkpt lat="49.15423" lon="7.07043">
        <ele>267.9</ele>
        <time>2021-11-21T13:37:13Z</time>
      </trkpt>
      <trkpt lat="49.15414" lon="7.07054">
        <ele>267.7</ele>
        <time>2021-11-21T13:37:21Z</time>
      </trkpt>
      <trkpt lat="49.15406" lon="7.07061">
        <ele>267.6</ele>
        <time>2021-11-21T13:37:30Z</time>
      </trkpt>
      <trkpt lat="49.15398" lon="7.07071">
        <ele>267.2</ele>
        <time>2021-11-21T13:37:41Z</time>
      </trkpt>
      <trkpt lat="49.1539" lon="7.07078">
        <ele>266.8</ele>
        <time>2021-11-21T13:37:50Z</time>
      </trkpt>
      <trkpt lat="49.15382" lon="7.07085">
        <ele>266.4</ele>
        <time>2021-11-21T13:37:59Z</time>
      </trkpt>
      <trkpt lat="49.15373" lon="7.07095">
        <ele>266</ele>
        <time>2021-11-21T13:38:07Z</time>
      </trkpt>
      <trkpt lat="49.15363" lon="7.071">
        <ele>265.7</ele>
        <time>2021-11-21T13:38:16Z</time>
      </trkpt>
      <trkpt lat="49.15354" lon="7.07103">
        <ele>265.6</ele>
        <time>2021-11-21T13:38:25Z</time>
      </trkpt>
      <trkpt lat="49.15345" lon="7.07107">
        <ele>265.5</ele>
        <time>2021-11-21T13:38:32Z</time>
      </trkpt>
      <trkpt lat="49.15337" lon="7.07114">
        <ele>265.6</ele>
        <time>2021-11-21T13:38:40Z</time>
      </trkpt>
      <trkpt lat="49.15327" lon="7.07116">
        <ele>265.6</ele>
        <time>2021-11-21T13:38:48Z</time>
      </trkpt>
      <trkpt lat="49.15318" lon="7.07122">
        <ele>265.7</ele>
        <time>2021-11-21T13:38:55Z</time>
      </trkpt>
      <trkpt lat="49.15309" lon="7.07127">
        <ele>265.6</ele>
        <time>2021-11-21T13:39:02Z</time>
      </trkpt>
      <trkpt lat="49.15301" lon="7.07135">
        <ele>265.6</ele>
        <time>2021-11-21T13:39:11Z</time>
      </trkpt>
      <trkpt lat="49.15294" lon="7.07144">
        <ele>265.6</ele>
        <time>2021-11-21T13:39:18Z</time>
      </trkpt>
      <trkpt lat="49.15286" lon="7.07153">
        <ele>265.7</ele>
        <time>2021-11-21T13:39:25Z</time>
      </trkpt>
      <trkpt lat="49.15277" lon="7.0716">
        <ele>266</ele>
        <time>2021-11-21T13:39:34Z</time>
      </trkpt>
      <trkpt lat="49.15267" lon="7.07164">
        <ele>266.4</ele>
        <time>2021-11-21T13:39:41Z</time>
      </trkpt>
      <trkpt lat="49.15258" lon="7.07164">
        <ele>267</ele>
        <time>2021-11-21T13:39:48Z</time>
      </trkpt>
      <trkpt lat="49.15249" lon="7.07167">
        <ele>267.7</ele>
        <time>2021-11-21T13:39:55Z</time>
      </trkpt>
      <trkpt lat="49.15239" lon="7.07165">
        <ele>268.6</ele>
        <time>2021-11-21T13:40:02Z</time>
      </trkpt>
      <trkpt lat="49.1523" lon="7.07171">
        <ele>269.5</ele>
        <time>2021-11-21T13:40:09Z</time>
      </trkpt>
      <trkpt lat="49.1522" lon="7.07176">
        <ele>270.4</ele>
        <time>2021-11-21T13:40:19Z</time>
      </trkpt>
      <trkpt lat="49.15212" lon="7.07184">
        <ele>271.2</ele>
        <time>2021-11-21T13:40:28Z</time>
      </trkpt>
      <trkpt lat="49.15204" lon="7.07189">
        <ele>271.8</ele>
        <time>2021-11-21T13:40:35Z</time>
      </trkpt>
      <trkpt lat="49.152" lon="7.07191">
        <ele>272</ele>
        <time>2021-11-21T13:40:42Z</time>
      </trkpt>
      <trkpt lat="49.152" lon="7.07192">
        <ele>272.1</ele>
        <time>2021-11-21T13:41:04Z</time>
      </trkpt>
      <trkpt lat="49.15193" lon="7.07203">
        <ele>272.2</ele>
        <time>2021-11-21T13:41:13Z</time>
      </trkpt>
      <trkpt lat="49.15186" lon="7.07213">
        <ele>272.3</ele>
        <time>2021-11-21T13:41:21Z</time>
      </trkpt>
      <trkpt lat="49.15177" lon="7.07218">
        <ele>272.4</ele>
        <time>2021-11-21T13:41:29Z</time>
      </trkpt>
      <trkpt lat="49.15169" lon="7.07226">
        <ele>272.6</ele>
        <time>2021-11-21T13:41:38Z</time>
      </trkpt>
      <trkpt lat="49.15162" lon="7.07234">
        <ele>272.9</ele>
        <time>2021-11-21T13:41:44Z</time>
      </trkpt>
      <trkpt lat="49.15153" lon="7.07242">
        <ele>273.2</ele>
        <time>2021-11-21T13:41:52Z</time>
      </trkpt>
      <trkpt lat="49.15144" lon="7.07247">
        <ele>273.5</ele>
        <time>2021-11-21T13:42:00Z</time>
      </trkpt>
      <trkpt lat="49.1514" lon="7.07249">
        <ele>273.6</ele>
        <time>2021-11-21T13:42:07Z</time>
      </trkpt>
      <trkpt lat="49.1514" lon="7.07249">
        <ele>273.6</ele>
        <time>2021-11-21T13:42:09Z</time>
      </trkpt>
      <trkpt lat="49.1514" lon="7.07249">
        <ele>273.6</ele>
        <time>2021-11-21T13:42:10Z</time>
      </trkpt>
      <trkpt lat="49.1514" lon="7.07249">
        <ele>273.7</ele>
        <time>2021-11-21T13:42:14Z</time>
      </trkpt>
      <trkpt lat="49.15137" lon="7.07251">
        <ele>273.8</ele>
        <time>2021-11-21T13:42:21Z</time>
      </trkpt>
      <trkpt lat="49.15136" lon="7.07251">
        <ele>273.8</ele>
        <time>2021-11-21T13:42:26Z</time>
      </trkpt>
      <trkpt lat="49.15136" lon="7.07251">
        <ele>273.8</ele>
        <time>2021-11-21T13:42:27Z</time>
      </trkpt>
      <trkpt lat="49.15136" lon="7.07251">
        <ele>273.8</ele>
        <time>2021-11-21T13:42:28Z</time>
      </trkpt>
      <trkpt lat="49.15127" lon="7.07257">
        <ele>274.2</ele>
        <time>2021-11-21T13:42:38Z</time>
      </trkpt>
      <trkpt lat="49.15118" lon="7.07265">
        <ele>274.6</ele>
        <time>2021-11-21T13:42:47Z</time>
      </trkpt>
      <trkpt lat="49.15111" lon="7.07275">
        <ele>274.9</ele>
        <time>2021-11-21T13:42:55Z</time>
      </trkpt>
      <trkpt lat="49.15104" lon="7.07285">
        <ele>275.2</ele>
        <time>2021-11-21T13:43:02Z</time>
      </trkpt>
      <trkpt lat="49.15097" lon="7.07296">
        <ele>275.4</ele>
        <time>2021-11-21T13:43:09Z</time>
      </trkpt>
      <trkpt lat="49.1509" lon="7.07306">
        <ele>275.5</ele>
        <time>2021-11-21T13:43:15Z</time>
      </trkpt>
      <trkpt lat="49.15087" lon="7.0732">
        <ele>274.1</ele>
        <time>2021-11-21T13:43:22Z</time>
      </trkpt>
      <trkpt lat="49.15085" lon="7.07335">
        <ele>272.6</ele>
        <time>2021-11-21T13:43:29Z</time>
      </trkpt>
      <trkpt lat="49.15086" lon="7.0735">
        <ele>270.7</ele>
        <time>2021-11-21T13:43:37Z</time>
      </trkpt>
      <trkpt lat="49.15087" lon="7.07365">
        <ele>268.9</ele>
        <time>2021-11-21T13:43:43Z</time>
      </trkpt>
      <trkpt lat="49.15088" lon="7.0738">
        <ele>267.1</ele>
        <time>2021-11-21T13:43:49Z</time>
      </trkpt>
      <trkpt lat="49.15091" lon="7.07395">
        <ele>265.3</ele>
        <time>2021-11-21T13:43:56Z</time>
      </trkpt>
      <trkpt lat="49.15095" lon="7.07409">
        <ele>263.5</ele>
        <time>2021-11-21T13:44:04Z</time>
      </trkpt>
      <trkpt lat="49.15097" lon="7.07422">
        <ele>262</ele>
        <time>2021-11-21T13:44:11Z</time>
      </trkpt>
      <trkpt lat="49.151" lon="7.07437">
        <ele>260.4</ele>
        <time>2021-11-21T13:44:18Z</time>
      </trkpt>
      <trkpt lat="49.15101" lon="7.07452">
        <ele>258.9</ele>
        <time>2021-11-21T13:44:24Z</time>
      </trkpt>
      <trkpt lat="49.15106" lon="7.07465">
        <ele>257.4</ele>
        <time>2021-11-21T13:44:32Z</time>
      </trkpt>
      <trkpt lat="49.15108" lon="7.07479">
        <ele>256</ele>
        <time>2021-11-21T13:44:38Z</time>
      </trkpt>
      <trkpt lat="49.15111" lon="7.07492">
        <ele>254.6</ele>
        <time>2021-11-21T13:44:45Z</time>
      </trkpt>
      <trkpt lat="49.15115" lon="7.07505">
        <ele>253.1</ele>
        <time>2021-11-21T13:44:53Z</time>
      </trkpt>
      <trkpt lat="49.15119" lon="7.07519">
        <ele>251.8</ele>
        <time>2021-11-21T13:45:02Z</time>
      </trkpt>
      <trkpt lat="49.15121" lon="7.07533">
        <ele>250.9</ele>
        <time>2021-11-21T13:45:10Z</time>
      </trkpt>
      <trkpt lat="49.15124" lon="7.07547">
        <ele>248.8</ele>
        <time>2021-11-21T13:45:18Z</time>
      </trkpt>
      <trkpt lat="49.15125" lon="7.07563">
        <ele>247</ele>
        <time>2021-11-21T13:45:26Z</time>
      </trkpt>
      <trkpt lat="49.15125" lon="7.07577">
        <ele>246</ele>
        <time>2021-11-21T13:45:35Z</time>
      </trkpt>
      <trkpt lat="49.15128" lon="7.07591">
        <ele>244.2</ele>
        <time>2021-11-21T13:45:43Z</time>
      </trkpt>
      <trkpt lat="49.1513" lon="7.07606">
        <ele>242.1</ele>
        <time>2021-11-21T13:45:51Z</time>
      </trkpt>
      <trkpt lat="49.15132" lon="7.07621">
        <ele>240.2</ele>
        <time>2021-11-21T13:45:59Z</time>
      </trkpt>
      <trkpt lat="49.15135" lon="7.07635">
        <ele>238.2</ele>
        <time>2021-11-21T13:46:07Z</time>
      </trkpt>
      <trkpt lat="49.15136" lon="7.0765">
        <ele>236.3</ele>
        <time>2021-11-21T13:46:15Z</time>
      </trkpt>
      <trkpt lat="49.15135" lon="7.07665">
        <ele>234.4</ele>
        <time>2021-11-21T13:46:24Z</time>
      </trkpt>
      <trkpt lat="49.15134" lon="7.0768">
        <ele>233.2</ele>
        <time>2021-11-21T13:46:34Z</time>
      </trkpt>
      <trkpt lat="49.15132" lon="7.07695">
        <ele>232.5</ele>
        <time>2021-11-21T13:46:43Z</time>
      </trkpt>
      <trkpt lat="49.1513" lon="7.07709">
        <ele>230.8</ele>
        <time>2021-11-21T13:46:49Z</time>
      </trkpt>
      <trkpt lat="49.15127" lon="7.07722">
        <ele>229.1</ele>
        <time>2021-11-21T13:46:54Z</time>
      </trkpt>
      <trkpt lat="49.15124" lon="7.07735">
        <ele>227.3</ele>
        <time>2021-11-21T13:47:00Z</time>
      </trkpt>
      <trkpt lat="49.15122" lon="7.07749">
        <ele>225.5</ele>
        <time>2021-11-21T13:47:07Z</time>
      </trkpt>
      <trkpt lat="49.1512" lon="7.07764">
        <ele>224</ele>
        <time>2021-11-21T13:47:16Z</time>
      </trkpt>
      <trkpt lat="49.15119" lon="7.07778">
        <ele>222.3</ele>
        <time>2021-11-21T13:47:24Z</time>
      </trkpt>
      <trkpt lat="49.15117" lon="7.07793">
        <ele>220.7</ele>
        <time>2021-11-21T13:47:32Z</time>
      </trkpt>
      <trkpt lat="49.15114" lon="7.07808">
        <ele>219.2</ele>
        <time>2021-11-21T13:47:39Z</time>
      </trkpt>
      <trkpt lat="49.15117" lon="7.07822">
        <ele>218.1</ele>
        <time>2021-11-21T13:47:46Z</time>
      </trkpt>
      <trkpt lat="49.15117" lon="7.07836">
        <ele>217.2</ele>
        <time>2021-11-21T13:47:53Z</time>
      </trkpt>
      <trkpt lat="49.1512" lon="7.07851">
        <ele>216.2</ele>
        <time>2021-11-21T13:48:00Z</time>
      </trkpt>
      <trkpt lat="49.15126" lon="7.07863">
        <ele>215.3</ele>
        <time>2021-11-21T13:48:08Z</time>
      </trkpt>
      <trkpt lat="49.1513" lon="7.07876">
        <ele>214.5</ele>
        <time>2021-11-21T13:48:15Z</time>
      </trkpt>
      <trkpt lat="49.15134" lon="7.07888">
        <ele>213.8</ele>
        <time>2021-11-21T13:48:22Z</time>
      </trkpt>
      <trkpt lat="49.15138" lon="7.07901">
        <ele>213</ele>
        <time>2021-11-21T13:48:30Z</time>
      </trkpt>
      <trkpt lat="49.15145" lon="7.07912">
        <ele>212.2</ele>
        <time>2021-11-21T13:48:37Z</time>
      </trkpt>
      <trkpt lat="49.15151" lon="7.07925">
        <ele>211.3</ele>
        <time>2021-11-21T13:48:45Z</time>
      </trkpt>
      <trkpt lat="49.15156" lon="7.07937">
        <ele>210.5</ele>
        <time>2021-11-21T13:48:52Z</time>
      </trkpt>
      <trkpt lat="49.15162" lon="7.07948">
        <ele>209.7</ele>
        <time>2021-11-21T13:49:00Z</time>
      </trkpt>
      <trkpt lat="49.15169" lon="7.07961">
        <ele>208.8</ele>
        <time>2021-11-21T13:49:08Z</time>
      </trkpt>
      <trkpt lat="49.15176" lon="7.07971">
        <ele>208</ele>
        <time>2021-11-21T13:49:16Z</time>
      </trkpt>
      <trkpt lat="49.1518" lon="7.07984">
        <ele>207.1</ele>
        <time>2021-11-21T13:49:23Z</time>
      </trkpt>
      <trkpt lat="49.15184" lon="7.07998">
        <ele>206.3</ele>
        <time>2021-11-21T13:49:30Z</time>
      </trkpt>
      <trkpt lat="49.15186" lon="7.08014">
        <ele>205.4</ele>
        <time>2021-11-21T13:49:37Z</time>
      </trkpt>
      <trkpt lat="49.15188" lon="7.08028">
        <ele>204.8</ele>
        <time>2021-11-21T13:49:44Z</time>
      </trkpt>
      <trkpt lat="49.15189" lon="7.08042">
        <ele>204.1</ele>
        <time>2021-11-21T13:49:50Z</time>
      </trkpt>
      <trkpt lat="49.15185" lon="7.08055">
        <ele>203.5</ele>
        <time>2021-11-21T13:49:57Z</time>
      </trkpt>
      <trkpt lat="49.1518" lon="7.08067">
        <ele>203</ele>
        <time>2021-11-21T13:50:03Z</time>
      </trkpt>
      <trkpt lat="49.15174" lon="7.08078">
        <ele>202.6</ele>
        <time>2021-11-21T13:50:09Z</time>
      </trkpt>
      <trkpt lat="49.15169" lon="7.08089">
        <ele>202.2</ele>
        <time>2021-11-21T13:50:16Z</time>
      </trkpt>
      <trkpt lat="49.15162" lon="7.08099">
        <ele>201.8</ele>
        <time>2021-11-21T13:50:23Z</time>
      </trkpt>
      <trkpt lat="49.15155" lon="7.08109">
        <ele>201.2</ele>
        <time>2021-11-21T13:50:30Z</time>
      </trkpt>
      <trkpt lat="49.15149" lon="7.08122">
        <ele>200.7</ele>
        <time>2021-11-21T13:50:36Z</time>
      </trkpt>
      <trkpt lat="49.15142" lon="7.08132">
        <ele>200.4</ele>
        <time>2021-11-21T13:50:42Z</time>
      </trkpt>
      <trkpt lat="49.15133" lon="7.08136">
        <ele>200.3</ele>
        <time>2021-11-21T13:50:51Z</time>
      </trkpt>
      <trkpt lat="49.15126" lon="7.08126">
        <ele>200.3</ele>
        <time>2021-11-21T13:51:03Z</time>
      </trkpt>
      <trkpt lat="49.15119" lon="7.08115">
        <ele>200.3</ele>
        <time>2021-11-21T13:51:10Z</time>
      </trkpt>
      <trkpt lat="49.15111" lon="7.08108">
        <ele>200.3</ele>
        <time>2021-11-21T13:51:16Z</time>
      </trkpt>
      <trkpt lat="49.15105" lon="7.08094">
        <ele>200.3</ele>
        <time>2021-11-21T13:51:24Z</time>
      </trkpt>
      <trkpt lat="49.15098" lon="7.08083">
        <ele>200.3</ele>
        <time>2021-11-21T13:51:30Z</time>
      </trkpt>
      <trkpt lat="49.15091" lon="7.08072">
        <ele>200.3</ele>
        <time>2021-11-21T13:51:38Z</time>
      </trkpt>
      <trkpt lat="49.15084" lon="7.08062">
        <ele>200.4</ele>
        <time>2021-11-21T13:51:45Z</time>
      </trkpt>
      <trkpt lat="49.15076" lon="7.08053">
        <ele>200.5</ele>
        <time>2021-11-21T13:51:54Z</time>
      </trkpt>
      <trkpt lat="49.15069" lon="7.08044">
        <ele>200.8</ele>
        <time>2021-11-21T13:52:02Z</time>
      </trkpt>
      <trkpt lat="49.15062" lon="7.08035">
        <ele>201.1</ele>
        <time>2021-11-21T13:52:09Z</time>
      </trkpt>
      <trkpt lat="49.15056" lon="7.08024">
        <ele>201.4</ele>
        <time>2021-11-21T13:52:17Z</time>
      </trkpt>
      <trkpt lat="49.15047" lon="7.08019">
        <ele>201.5</ele>
        <time>2021-11-21T13:52:24Z</time>
      </trkpt>
      <trkpt lat="49.15037" lon="7.08014">
        <ele>201.4</ele>
        <time>2021-11-21T13:52:34Z</time>
      </trkpt>
      <trkpt lat="49.15027" lon="7.08017">
        <ele>201.4</ele>
        <time>2021-11-21T13:52:42Z</time>
      </trkpt>
      <trkpt lat="49.15018" lon="7.08021">
        <ele>201.3</ele>
        <time>2021-11-21T13:52:48Z</time>
      </trkpt>
      <trkpt lat="49.15008" lon="7.08022">
        <ele>201.3</ele>
        <time>2021-11-21T13:52:55Z</time>
      </trkpt>
      <trkpt lat="49.14999" lon="7.08019">
        <ele>201.4</ele>
        <time>2021-11-21T13:53:02Z</time>
      </trkpt>
      <trkpt lat="49.14989" lon="7.08017">
        <ele>201.4</ele>
        <time>2021-11-21T13:53:11Z</time>
      </trkpt>
      <trkpt lat="49.14979" lon="7.08014">
        <ele>201.4</ele>
        <time>2021-11-21T13:53:19Z</time>
      </trkpt>
      <trkpt lat="49.1497" lon="7.08012">
        <ele>201.5</ele>
        <time>2021-11-21T13:53:26Z</time>
      </trkpt>
      <trkpt lat="49.14961" lon="7.08014">
        <ele>201.5</ele>
        <time>2021-11-21T13:53:34Z</time>
      </trkpt>
      <trkpt lat="49.14951" lon="7.08012">
        <ele>201.6</ele>
        <time>2021-11-21T13:53:42Z</time>
      </trkpt>
      <trkpt lat="49.14943" lon="7.08006">
        <ele>201.6</ele>
        <time>2021-11-21T13:53:48Z</time>
      </trkpt>
      <trkpt lat="49.14933" lon="7.08003">
        <ele>201.7</ele>
        <time>2021-11-21T13:53:55Z</time>
      </trkpt>
      <trkpt lat="49.14924" lon="7.07998">
        <ele>201.8</ele>
        <time>2021-11-21T13:54:01Z</time>
      </trkpt>
      <trkpt lat="49.14915" lon="7.07997">
        <ele>201.9</ele>
        <time>2021-11-21T13:54:07Z</time>
      </trkpt>
      <trkpt lat="49.14905" lon="7.07994">
        <ele>201.7</ele>
        <time>2021-11-21T13:54:15Z</time>
      </trkpt>
      <trkpt lat="49.14896" lon="7.0799">
        <ele>201.3</ele>
        <time>2021-11-21T13:54:22Z</time>
      </trkpt>
      <trkpt lat="49.14887" lon="7.07996">
        <ele>200.9</ele>
        <time>2021-11-21T13:54:31Z</time>
      </trkpt>
      <trkpt lat="49.14879" lon="7.08002">
        <ele>200.6</ele>
        <time>2021-11-21T13:54:38Z</time>
      </trkpt>
      <trkpt lat="49.1487" lon="7.08007">
        <ele>200.3</ele>
        <time>2021-11-21T13:54:50Z</time>
      </trkpt>
      <trkpt lat="49.1487" lon="7.08007">
        <ele>200.3</ele>
        <time>2021-11-21T13:54:51Z</time>
      </trkpt>
      <trkpt lat="49.1487" lon="7.08007">
        <ele>200.3</ele>
        <time>2021-11-21T13:54:59Z</time>
      </trkpt>
      <trkpt lat="49.14868" lon="7.08009">
        <ele>200.3</ele>
        <time>2021-11-21T13:55:09Z</time>
      </trkpt>
      <trkpt lat="49.14868" lon="7.0801">
        <ele>200.2</ele>
        <time>2021-11-21T13:55:10Z</time>
      </trkpt>
      <trkpt lat="49.14868" lon="7.08009">
        <ele>200.2</ele>
        <time>2021-11-21T13:55:12Z</time>
      </trkpt>
      <trkpt lat="49.14868" lon="7.08009">
        <ele>200.2</ele>
        <time>2021-11-21T13:55:14Z</time>
      </trkpt>
      <trkpt lat="49.14869" lon="7.08001">
        <ele>200.1</ele>
        <time>2021-11-21T13:55:29Z</time>
      </trkpt>
      <trkpt lat="49.14869" lon="7.08002">
        <ele>200.1</ele>
        <time>2021-11-21T13:55:30Z</time>
      </trkpt>
      <trkpt lat="49.1486" lon="7.07999">
        <ele>199.8</ele>
        <time>2021-11-21T13:55:40Z</time>
      </trkpt>
      <trkpt lat="49.1485" lon="7.08009">
        <ele>199.5</ele>
        <time>2021-11-21T13:55:47Z</time>
      </trkpt>
      <trkpt lat="49.14841" lon="7.08016">
        <ele>199.3</ele>
        <time>2021-11-21T13:55:53Z</time>
      </trkpt>
      <trkpt lat="49.14832" lon="7.0802">
        <ele>199.2</ele>
        <time>2021-11-21T13:56:11Z</time>
      </trkpt>
      <trkpt lat="49.14823" lon="7.08021">
        <ele>199.2</ele>
        <time>2021-11-21T13:56:22Z</time>
      </trkpt>
      <trkpt lat="49.14814" lon="7.08025">
        <ele>199.2</ele>
        <time>2021-11-21T13:56:30Z</time>
      </trkpt>
      <trkpt lat="49.14804" lon="7.0803">
        <ele>199.4</ele>
        <time>2021-11-21T13:56:39Z</time>
      </trkpt>
      <trkpt lat="49.14794" lon="7.08032">
        <ele>199.6</ele>
        <time>2021-11-21T13:56:45Z</time>
      </trkpt>
      <trkpt lat="49.14785" lon="7.0803">
        <ele>199.8</ele>
        <time>2021-11-21T13:56:55Z</time>
      </trkpt>
      <trkpt lat="49.14776" lon="7.08033">
        <ele>200</ele>
        <time>2021-11-21T13:57:02Z</time>
      </trkpt>
      <trkpt lat="49.14766" lon="7.08036">
        <ele>200.2</ele>
        <time>2021-11-21T13:57:10Z</time>
      </trkpt>
      <trkpt lat="49.14757" lon="7.08036">
        <ele>200.4</ele>
        <time>2021-11-21T13:57:19Z</time>
      </trkpt>
      <trkpt lat="49.14748" lon="7.08031">
        <ele>200.6</ele>
        <time>2021-11-21T13:57:29Z</time>
      </trkpt>
      <trkpt lat="49.14738" lon="7.08031">
        <ele>200.8</ele>
        <time>2021-11-21T13:57:35Z</time>
      </trkpt>
      <trkpt lat="49.14728" lon="7.08032">
        <ele>200.9</ele>
        <time>2021-11-21T13:57:41Z</time>
      </trkpt>
      <trkpt lat="49.14718" lon="7.08033">
        <ele>201.1</ele>
        <time>2021-11-21T13:57:50Z</time>
      </trkpt>
      <trkpt lat="49.14709" lon="7.08034">
        <ele>201.3</ele>
        <time>2021-11-21T13:57:57Z</time>
      </trkpt>
      <trkpt lat="49.14701" lon="7.08031">
        <ele>201.4</ele>
        <time>2021-11-21T13:58:09Z</time>
      </trkpt>
      <trkpt lat="49.14692" lon="7.08028">
        <ele>201.5</ele>
        <time>2021-11-21T13:58:19Z</time>
      </trkpt>
      <trkpt lat="49.14683" lon="7.08027">
        <ele>201.7</ele>
        <time>2021-11-21T13:58:30Z</time>
      </trkpt>
      <trkpt lat="49.14673" lon="7.08027">
        <ele>201.8</ele>
        <time>2021-11-21T13:58:37Z</time>
      </trkpt>
      <trkpt lat="49.14664" lon="7.08026">
        <ele>201.9</ele>
        <time>2021-11-21T13:58:46Z</time>
      </trkpt>
      <trkpt lat="49.14655" lon="7.08023">
        <ele>202</ele>
        <time>2021-11-21T13:58:56Z</time>
      </trkpt>
      <trkpt lat="49.14646" lon="7.08025">
        <ele>202.1</ele>
        <time>2021-11-21T13:59:05Z</time>
      </trkpt>
      <trkpt lat="49.14637" lon="7.08019">
        <ele>202.2</ele>
        <time>2021-11-21T13:59:11Z</time>
      </trkpt>
      <trkpt lat="49.14635" lon="7.08016">
        <ele>202.2</ele>
        <time>2021-11-21T13:59:16Z</time>
      </trkpt>
      <trkpt lat="49.14635" lon="7.08016">
        <ele>202.2</ele>
        <time>2021-11-21T13:59:17Z</time>
      </trkpt>
      <trkpt lat="49.14635" lon="7.08016">
        <ele>202.2</ele>
        <time>2021-11-21T13:59:18Z</time>
      </trkpt>
      <trkpt lat="49.14634" lon="7.08017">
        <ele>202.3</ele>
        <time>2021-11-21T13:59:19Z</time>
      </trkpt>
      <trkpt lat="49.14624" lon="7.08018">
        <ele>202.4</ele>
        <time>2021-11-21T13:59:33Z</time>
      </trkpt>
      <trkpt lat="49.14615" lon="7.08022">
        <ele>202.6</ele>
        <time>2021-11-21T13:59:41Z</time>
      </trkpt>
      <trkpt lat="49.14606" lon="7.08024">
        <ele>202.9</ele>
        <time>2021-11-21T13:59:52Z</time>
      </trkpt>
      <trkpt lat="49.14597" lon="7.08024">
        <ele>203.3</ele>
        <time>2021-11-21T13:59:58Z</time>
      </trkpt>
      <trkpt lat="49.14586" lon="7.08023">
        <ele>203.8</ele>
        <time>2021-11-21T14:00:02Z</time>
      </trkpt>
      <trkpt lat="49.14575" lon="7.08026">
        <ele>204.5</ele>
        <time>2021-11-21T14:00:08Z</time>
      </trkpt>
      <trkpt lat="49.14565" lon="7.08025">
        <ele>205.1</ele>
        <time>2021-11-21T14:00:16Z</time>
      </trkpt>
      <trkpt lat="49.14556" lon="7.08021">
        <ele>205.8</ele>
        <time>2021-11-21T14:00:22Z</time>
      </trkpt>
      <trkpt lat="49.14547" lon="7.08019">
        <ele>206.7</ele>
        <time>2021-11-21T14:00:28Z</time>
      </trkpt>
      <trkpt lat="49.14538" lon="7.08015">
        <ele>207.6</ele>
        <time>2021-11-21T14:00:34Z</time>
      </trkpt>
      <trkpt lat="49.14529" lon="7.08013">
        <ele>208.7</ele>
        <time>2021-11-21T14:00:42Z</time>
      </trkpt>
      <trkpt lat="49.14519" lon="7.08011">
        <ele>209.7</ele>
        <time>2021-11-21T14:00:50Z</time>
      </trkpt>
      <trkpt lat="49.14509" lon="7.0801">
        <ele>210.7</ele>
        <time>2021-11-21T14:00:58Z</time>
      </trkpt>
      <trkpt lat="49.145" lon="7.0801">
        <ele>211.5</ele>
        <time>2021-11-21T14:01:06Z</time>
      </trkpt>
      <trkpt lat="49.1449" lon="7.08011">
        <ele>212.3</ele>
        <time>2021-11-21T14:01:13Z</time>
      </trkpt>
      <trkpt lat="49.14481" lon="7.08007">
        <ele>213.1</ele>
        <time>2021-11-21T14:01:22Z</time>
      </trkpt>
      <trkpt lat="49.14472" lon="7.08004">
        <ele>213.9</ele>
        <time>2021-11-21T14:01:31Z</time>
      </trkpt>
      <trkpt lat="49.14462" lon="7.08">
        <ele>214.8</ele>
        <time>2021-11-21T14:01:42Z</time>
      </trkpt>
      <trkpt lat="49.14452" lon="7.08">
        <ele>215.7</ele>
        <time>2021-11-21T14:01:49Z</time>
      </trkpt>
      <trkpt lat="49.14443" lon="7.07999">
        <ele>216.4</ele>
        <time>2021-11-21T14:01:59Z</time>
      </trkpt>
      <trkpt lat="49.14433" lon="7.07996">
        <ele>217.2</ele>
        <time>2021-11-21T14:02:12Z</time>
      </trkpt>
      <trkpt lat="49.14424" lon="7.07998">
        <ele>218</ele>
        <time>2021-11-21T14:02:21Z</time>
      </trkpt>
      <trkpt lat="49.14414" lon="7.07998">
        <ele>218.9</ele>
        <time>2021-11-21T14:02:29Z</time>
      </trkpt>
      <trkpt lat="49.14404" lon="7.07998">
        <ele>219.7</ele>
        <time>2021-11-21T14:02:40Z</time>
      </trkpt>
      <trkpt lat="49.14395" lon="7.08001">
        <ele>220.5</ele>
        <time>2021-11-21T14:02:47Z</time>
      </trkpt>
      <trkpt lat="49.14385" lon="7.08001">
        <ele>221.2</ele>
        <time>2021-11-21T14:02:55Z</time>
      </trkpt>
      <trkpt lat="49.14376" lon="7.08005">
        <ele>221.7</ele>
        <time>2021-11-21T14:03:01Z</time>
      </trkpt>
      <trkpt lat="49.14367" lon="7.08007">
        <ele>222.3</ele>
        <time>2021-11-21T14:03:12Z</time>
      </trkpt>
      <trkpt lat="49.14357" lon="7.08015">
        <ele>222.8</ele>
        <time>2021-11-21T14:03:18Z</time>
      </trkpt>
      <trkpt lat="49.14349" lon="7.0802">
        <ele>223.4</ele>
        <time>2021-11-21T14:03:22Z</time>
      </trkpt>
      <trkpt lat="49.14339" lon="7.08021">
        <ele>223.9</ele>
        <time>2021-11-21T14:03:29Z</time>
      </trkpt>
      <trkpt lat="49.1433" lon="7.08031">
        <ele>224.3</ele>
        <time>2021-11-21T14:03:34Z</time>
      </trkpt>
      <trkpt lat="49.14323" lon="7.0804">
        <ele>224.2</ele>
        <time>2021-11-21T14:03:39Z</time>
      </trkpt>
      <trkpt lat="49.14314" lon="7.08045">
        <ele>223.8</ele>
        <time>2021-11-21T14:03:46Z</time>
      </trkpt>
      <trkpt lat="49.14305" lon="7.08054">
        <ele>223</ele>
        <time>2021-11-21T14:03:53Z</time>
      </trkpt>
      <trkpt lat="49.14297" lon="7.0806">
        <ele>222.3</ele>
        <time>2021-11-21T14:04:01Z</time>
      </trkpt>
      <trkpt lat="49.14289" lon="7.08067">
        <ele>221.4</ele>
        <time>2021-11-21T14:04:08Z</time>
      </trkpt>
      <trkpt lat="49.14279" lon="7.0807">
        <ele>220.5</ele>
        <time>2021-11-21T14:04:16Z</time>
      </trkpt>
      <trkpt lat="49.1427" lon="7.08073">
        <ele>219.5</ele>
        <time>2021-11-21T14:04:24Z</time>
      </trkpt>
      <trkpt lat="49.14262" lon="7.0808">
        <ele>218.6</ele>
        <time>2021-11-21T14:04:31Z</time>
      </trkpt>
      <trkpt lat="49.14255" lon="7.08092">
        <ele>217.5</ele>
        <time>2021-11-21T14:04:37Z</time>
      </trkpt>
      <trkpt lat="49.14247" lon="7.08101">
        <ele>216.5</ele>
        <time>2021-11-21T14:04:42Z</time>
      </trkpt>
      <trkpt lat="49.14239" lon="7.08109">
        <ele>215.6</ele>
        <time>2021-11-21T14:04:52Z</time>
      </trkpt>
      <trkpt lat="49.14232" lon="7.08119">
        <ele>214.6</ele>
        <time>2021-11-21T14:05:01Z</time>
      </trkpt>
      <trkpt lat="49.14225" lon="7.08126">
        <ele>213.5</ele>
        <time>2021-11-21T14:05:09Z</time>
      </trkpt>
      <trkpt lat="49.14217" lon="7.08134">
        <ele>212.3</ele>
        <time>2021-11-21T14:05:17Z</time>
      </trkpt>
      <trkpt lat="49.14209" lon="7.0814">
        <ele>211</ele>
        <time>2021-11-21T14:05:24Z</time>
      </trkpt>
      <trkpt lat="49.142" lon="7.08147">
        <ele>209.5</ele>
        <time>2021-11-21T14:05:31Z</time>
      </trkpt>
      <trkpt lat="49.14194" lon="7.08153">
        <ele>208.5</ele>
        <time>2021-11-21T14:05:39Z</time>
      </trkpt>
      <trkpt lat="49.14194" lon="7.08154">
        <ele>208.4</ele>
        <time>2021-11-21T14:05:43Z</time>
      </trkpt>
      <trkpt lat="49.14196" lon="7.08161">
        <ele>207.7</ele>
        <time>2021-11-21T14:05:58Z</time>
      </trkpt>
      <trkpt lat="49.14196" lon="7.0816">
        <ele>207.6</ele>
        <time>2021-11-21T14:06:00Z</time>
      </trkpt>
      <trkpt lat="49.14196" lon="7.0816">
        <ele>207.6</ele>
        <time>2021-11-21T14:06:01Z</time>
      </trkpt>
      <trkpt lat="49.14196" lon="7.0816">
        <ele>207.6</ele>
        <time>2021-11-21T14:06:04Z</time>
      </trkpt>
      <trkpt lat="49.14196" lon="7.0816">
        <ele>207.6</ele>
        <time>2021-11-21T14:06:05Z</time>
      </trkpt>
      <trkpt lat="49.14197" lon="7.0816">
        <ele>207.5</ele>
        <time>2021-11-21T14:06:08Z</time>
      </trkpt>
      <trkpt lat="49.14197" lon="7.0816">
        <ele>207.5</ele>
        <time>2021-11-21T14:06:09Z</time>
      </trkpt>
      <trkpt lat="49.14196" lon="7.0816">
        <ele>207.5</ele>
        <time>2021-11-21T14:06:19Z</time>
      </trkpt>
      <trkpt lat="49.14196" lon="7.0816">
        <ele>207.5</ele>
        <time>2021-11-21T14:06:20Z</time>
      </trkpt>
      <trkpt lat="49.14196" lon="7.08159">
        <ele>207.5</ele>
        <time>2021-11-21T14:06:24Z</time>
      </trkpt>
      <trkpt lat="49.14198" lon="7.08153">
        <ele>206.8</ele>
        <time>2021-11-21T14:06:34Z</time>
      </trkpt>
      <trkpt lat="49.14198" lon="7.08153">
        <ele>206.8</ele>
        <time>2021-11-21T14:06:42Z</time>
      </trkpt>
      <trkpt lat="49.14198" lon="7.08153">
        <ele>206.8</ele>
        <time>2021-11-21T14:06:47Z</time>
      </trkpt>
      <trkpt lat="49.14198" lon="7.08153">
        <ele>206.7</ele>
        <time>2021-11-21T14:06:53Z</time>
      </trkpt>
      <trkpt lat="49.14198" lon="7.08154">
        <ele>206.7</ele>
        <time>2021-11-21T14:06:55Z</time>
      </trkpt>
      <trkpt lat="49.14198" lon="7.08154">
        <ele>206.7</ele>
        <time>2021-11-21T14:06:56Z</time>
      </trkpt>
      <trkpt lat="49.14198" lon="7.08154">
        <ele>206.7</ele>
        <time>2021-11-21T14:06:57Z</time>
      </trkpt>
      <trkpt lat="49.14197" lon="7.08155">
        <ele>206.5</ele>
        <time>2021-11-21T14:07:00Z</time>
      </trkpt>
      <trkpt lat="49.14197" lon="7.08155">
        <ele>206.5</ele>
        <time>2021-11-21T14:07:01Z</time>
      </trkpt>
      <trkpt lat="49.14197" lon="7.08155">
        <ele>206.5</ele>
        <time>2021-11-21T14:07:02Z</time>
      </trkpt>
      <trkpt lat="49.14197" lon="7.08156">
        <ele>206.5</ele>
        <time>2021-11-21T14:07:05Z</time>
      </trkpt>
      <trkpt lat="49.14198" lon="7.08156">
        <ele>206.4</ele>
        <time>2021-11-21T14:07:09Z</time>
      </trkpt>
      <trkpt lat="49.14199" lon="7.08156">
        <ele>206.1</ele>
        <time>2021-11-21T14:07:12Z</time>
      </trkpt>
      <trkpt lat="49.14199" lon="7.08155">
        <ele>206.1</ele>
        <time>2021-11-21T14:07:18Z</time>
      </trkpt>
      <trkpt lat="49.14199" lon="7.08155">
        <ele>206.1</ele>
        <time>2021-11-21T14:07:19Z</time>
      </trkpt>
      <trkpt lat="49.14199" lon="7.08155">
        <ele>206.1</ele>
        <time>2021-11-21T14:07:28Z</time>
      </trkpt>
      <trkpt lat="49.142" lon="7.08155">
        <ele>206</ele>
        <time>2021-11-21T14:07:34Z</time>
      </trkpt>
      <trkpt lat="49.14199" lon="7.08155">
        <ele>206</ele>
        <time>2021-11-21T14:07:36Z</time>
      </trkpt>
      <trkpt lat="49.1419" lon="7.08157">
        <ele>204.7</ele>
        <time>2021-11-21T14:07:46Z</time>
      </trkpt>
      <trkpt lat="49.14195" lon="7.08169">
        <ele>203.5</ele>
        <time>2021-11-21T14:07:58Z</time>
      </trkpt>
      <trkpt lat="49.14205" lon="7.08166">
        <ele>202.9</ele>
        <time>2021-11-21T14:08:05Z</time>
      </trkpt>
      <trkpt lat="49.14215" lon="7.08163">
        <ele>202.1</ele>
        <time>2021-11-21T14:08:14Z</time>
      </trkpt>
      <trkpt lat="49.14224" lon="7.08161">
        <ele>201.8</ele>
        <time>2021-11-21T14:08:20Z</time>
      </trkpt>
      <trkpt lat="49.14233" lon="7.08159">
        <ele>201.4</ele>
        <time>2021-11-21T14:08:28Z</time>
      </trkpt>
      <trkpt lat="49.14242" lon="7.0816">
        <ele>201.1</ele>
        <time>2021-11-21T14:08:36Z</time>
      </trkpt>
      <trkpt lat="49.14249" lon="7.08171">
        <ele>200.9</ele>
        <time>2021-11-21T14:08:46Z</time>
      </trkpt>
      <trkpt lat="49.14257" lon="7.0818">
        <ele>200.7</ele>
        <time>2021-11-21T14:08:56Z</time>
      </trkpt>
      <trkpt lat="49.14257" lon="7.08182">
        <ele>200.7</ele>
        <time>2021-11-21T14:09:00Z</time>
      </trkpt>
      <trkpt lat="49.14257" lon="7.08181">
        <ele>200.7</ele>
        <time>2021-11-21T14:09:04Z</time>
      </trkpt>
      <trkpt lat="49.1425" lon="7.0817">
        <ele>200.8</ele>
        <time>2021-11-21T14:09:13Z</time>
      </trkpt>
      <trkpt lat="49.14243" lon="7.0816">
        <ele>201</ele>
        <time>2021-11-21T14:09:21Z</time>
      </trkpt>
      <trkpt lat="49.14234" lon="7.0816">
        <ele>201.3</ele>
        <time>2021-11-21T14:09:28Z</time>
      </trkpt>
      <trkpt lat="49.14225" lon="7.08164">
        <ele>201.6</ele>
        <time>2021-11-21T14:09:35Z</time>
      </trkpt>
      <trkpt lat="49.14217" lon="7.08172">
        <ele>201.9</ele>
        <time>2021-11-21T14:09:43Z</time>
      </trkpt>
      <trkpt lat="49.14208" lon="7.08177">
        <ele>202.1</ele>
        <time>2021-11-21T14:09:54Z</time>
      </trkpt>
      <trkpt lat="49.14203" lon="7.08189">
        <ele>213.4</ele>
        <time>2021-11-21T14:10:06Z</time>
      </trkpt>
      <trkpt lat="49.14203" lon="7.08191">
        <ele>213.4</ele>
        <time>2021-11-21T14:10:11Z</time>
      </trkpt>
      <trkpt lat="49.14203" lon="7.08191">
        <ele>213.4</ele>
        <time>2021-11-21T14:10:14Z</time>
      </trkpt>
      <trkpt lat="49.14203" lon="7.08191">
        <ele>213.4</ele>
        <time>2021-11-21T14:10:15Z</time>
      </trkpt>
      <trkpt lat="49.14204" lon="7.08191">
        <ele>213.4</ele>
        <time>2021-11-21T14:10:19Z</time>
      </trkpt>
      <trkpt lat="49.14204" lon="7.08187">
        <ele>213.4</ele>
        <time>2021-11-21T14:10:25Z</time>
      </trkpt>
      <trkpt lat="49.14204" lon="7.08187">
        <ele>213.4</ele>
        <time>2021-11-21T14:10:31Z</time>
      </trkpt>
      <trkpt lat="49.14205" lon="7.08187">
        <ele>213.4</ele>
        <time>2021-11-21T14:10:34Z</time>
      </trkpt>
      <trkpt lat="49.14204" lon="7.08188">
        <ele>213.4</ele>
        <time>2021-11-21T14:10:55Z</time>
      </trkpt>
      <trkpt lat="49.14204" lon="7.08187">
        <ele>213.4</ele>
        <time>2021-11-21T14:10:58Z</time>
      </trkpt>
      <trkpt lat="49.14204" lon="7.08187">
        <ele>213.4</ele>
        <time>2021-11-21T14:11:00Z</time>
      </trkpt>
      <trkpt lat="49.14204" lon="7.08187">
        <ele>213.4</ele>
        <time>2021-11-21T14:11:01Z</time>
      </trkpt>
      <trkpt lat="49.14204" lon="7.08187">
        <ele>213.4</ele>
        <time>2021-11-21T14:11:09Z</time>
      </trkpt>
      <trkpt lat="49.14204" lon="7.08187">
        <ele>213.4</ele>
        <time>2021-11-21T14:11:10Z</time>
      </trkpt>
      <trkpt lat="49.14204" lon="7.08187">
        <ele>213.4</ele>
        <time>2021-11-21T14:11:14Z</time>
      </trkpt>
      <trkpt lat="49.14204" lon="7.08187">
        <ele>213.4</ele>
        <time>2021-11-21T14:11:15Z</time>
      </trkpt>
      <trkpt lat="49.14204" lon="7.08187">
        <ele>213.4</ele>
        <time>2021-11-21T14:11:16Z</time>
      </trkpt>
      <trkpt lat="49.14204" lon="7.08187">
        <ele>213.4</ele>
        <time>2021-11-21T14:11:17Z</time>
      </trkpt>
      <trkpt lat="49.14204" lon="7.08187">
        <ele>213.4</ele>
        <time>2021-11-21T14:11:27Z</time>
      </trkpt>
      <trkpt lat="49.14204" lon="7.08187">
        <ele>213.4</ele>
        <time>2021-11-21T14:11:28Z</time>
      </trkpt>
      <trkpt lat="49.14204" lon="7.08188">
        <ele>213.4</ele>
        <time>2021-11-21T14:11:45Z</time>
      </trkpt>
      <trkpt lat="49.14203" lon="7.08188">
        <ele>213.4</ele>
        <time>2021-11-21T14:11:47Z</time>
      </trkpt>
      <trkpt lat="49.14203" lon="7.08188">
        <ele>213.4</ele>
        <time>2021-11-21T14:11:51Z</time>
      </trkpt>
      <trkpt lat="49.14203" lon="7.08188">
        <ele>213.4</ele>
        <time>2021-11-21T14:11:52Z</time>
      </trkpt>
      <trkpt lat="49.14203" lon="7.08188">
        <ele>213.4</ele>
        <time>2021-11-21T14:11:55Z</time>
      </trkpt>
      <trkpt lat="49.14203" lon="7.08188">
        <ele>213.4</ele>
        <time>2021-11-21T14:11:56Z</time>
      </trkpt>
      <trkpt lat="49.14203" lon="7.08189">
        <ele>213.4</ele>
        <time>2021-11-21T14:12:01Z</time>
      </trkpt>
      <trkpt lat="49.14203" lon="7.08189">
        <ele>213.4</ele>
        <time>2021-11-21T14:12:02Z</time>
      </trkpt>
      <trkpt lat="49.14203" lon="7.08189">
        <ele>213.4</ele>
        <time>2021-11-21T14:12:03Z</time>
      </trkpt>
      <trkpt lat="49.14203" lon="7.08189">
        <ele>213.4</ele>
        <time>2021-11-21T14:12:05Z</time>
      </trkpt>
      <trkpt lat="49.14203" lon="7.08189">
        <ele>213.4</ele>
        <time>2021-11-21T14:12:12Z</time>
      </trkpt>
      <trkpt lat="49.14203" lon="7.08189">
        <ele>213.4</ele>
        <time>2021-11-21T14:12:15Z</time>
      </trkpt>
      <trkpt lat="49.14203" lon="7.08189">
        <ele>213.4</ele>
        <time>2021-11-21T14:12:16Z</time>
      </trkpt>
      <trkpt lat="49.14208" lon="7.08171">
        <ele>213.4</ele>
        <time>2021-11-21T14:12:31Z</time>
      </trkpt>
      <trkpt lat="49.14214" lon="7.08159">
        <ele>202.2</ele>
        <time>2021-11-21T14:12:38Z</time>
      </trkpt>
      <trkpt lat="49.14205" lon="7.08153">
        <ele>203.2</ele>
        <time>2021-11-21T14:12:50Z</time>
      </trkpt>
      <trkpt lat="49.14194" lon="7.08155">
        <ele>203.5</ele>
        <time>2021-11-21T14:12:57Z</time>
      </trkpt>
      <trkpt lat="49.14185" lon="7.08154">
        <ele>203.4</ele>
        <time>2021-11-21T14:13:04Z</time>
      </trkpt>
      <trkpt lat="49.14176" lon="7.08153">
        <ele>203.4</ele>
        <time>2021-11-21T14:13:11Z</time>
      </trkpt>
      <trkpt lat="49.14166" lon="7.08154">
        <ele>203.5</ele>
        <time>2021-11-21T14:13:17Z</time>
      </trkpt>
      <trkpt lat="49.14157" lon="7.08158">
        <ele>203.7</ele>
        <time>2021-11-21T14:13:25Z</time>
      </trkpt>
      <trkpt lat="49.1415" lon="7.08167">
        <ele>203.9</ele>
        <time>2021-11-21T14:13:37Z</time>
      </trkpt>
      <trkpt lat="49.14141" lon="7.08169">
        <ele>204.1</ele>
        <time>2021-11-21T14:13:46Z</time>
      </trkpt>
      <trkpt lat="49.14134" lon="7.08181">
        <ele>204.2</ele>
        <time>2021-11-21T14:13:54Z</time>
      </trkpt>
      <trkpt lat="49.14132" lon="7.08185">
        <ele>204.2</ele>
        <time>2021-11-21T14:13:59Z</time>
      </trkpt>
      <trkpt lat="49.14132" lon="7.08186">
        <ele>204.2</ele>
        <time>2021-11-21T14:14:00Z</time>
      </trkpt>
      <trkpt lat="49.14132" lon="7.08186">
        <ele>204.2</ele>
        <time>2021-11-21T14:14:01Z</time>
      </trkpt>
      <trkpt lat="49.14132" lon="7.08186">
        <ele>204.2</ele>
        <time>2021-11-21T14:14:02Z</time>
      </trkpt>
      <trkpt lat="49.14123" lon="7.08192">
        <ele>204.1</ele>
        <time>2021-11-21T14:14:16Z</time>
      </trkpt>
      <trkpt lat="49.14114" lon="7.08196">
        <ele>203.9</ele>
        <time>2021-11-21T14:14:27Z</time>
      </trkpt>
      <trkpt lat="49.14104" lon="7.08196">
        <ele>203.7</ele>
        <time>2021-11-21T14:14:38Z</time>
      </trkpt>
      <trkpt lat="49.14095" lon="7.08203">
        <ele>203.4</ele>
        <time>2021-11-21T14:14:44Z</time>
      </trkpt>
      <trkpt lat="49.14086" lon="7.08207">
        <ele>203.1</ele>
        <time>2021-11-21T14:14:50Z</time>
      </trkpt>
      <trkpt lat="49.14077" lon="7.08204">
        <ele>203</ele>
        <time>2021-11-21T14:14:59Z</time>
      </trkpt>
      <trkpt lat="49.14068" lon="7.08207">
        <ele>202.9</ele>
        <time>2021-11-21T14:15:06Z</time>
      </trkpt>
      <trkpt lat="49.14059" lon="7.08216">
        <ele>202.8</ele>
        <time>2021-11-21T14:15:14Z</time>
      </trkpt>
      <trkpt lat="49.14051" lon="7.08225">
        <ele>202.7</ele>
        <time>2021-11-21T14:15:22Z</time>
      </trkpt>
      <trkpt lat="49.14043" lon="7.08231">
        <ele>202.6</ele>
        <time>2021-11-21T14:15:33Z</time>
      </trkpt>
      <trkpt lat="49.14035" lon="7.08238">
        <ele>202.5</ele>
        <time>2021-11-21T14:15:41Z</time>
      </trkpt>
      <trkpt lat="49.14026" lon="7.08244">
        <ele>202.6</ele>
        <time>2021-11-21T14:15:51Z</time>
      </trkpt>
      <trkpt lat="49.14019" lon="7.08253">
        <ele>202.7</ele>
        <time>2021-11-21T14:16:00Z</time>
      </trkpt>
      <trkpt lat="49.14012" lon="7.08264">
        <ele>202.9</ele>
        <time>2021-11-21T14:16:06Z</time>
      </trkpt>
      <trkpt lat="49.14005" lon="7.08271">
        <ele>203</ele>
        <time>2021-11-21T14:16:13Z</time>
      </trkpt>
      <trkpt lat="49.13997" lon="7.08282">
        <ele>203.3</ele>
        <time>2021-11-21T14:16:21Z</time>
      </trkpt>
      <trkpt lat="49.13987" lon="7.08286">
        <ele>203.6</ele>
        <time>2021-11-21T14:16:29Z</time>
      </trkpt>
      <trkpt lat="49.13978" lon="7.08293">
        <ele>203.7</ele>
        <time>2021-11-21T14:16:39Z</time>
      </trkpt>
      <trkpt lat="49.13969" lon="7.08299">
        <ele>203.9</ele>
        <time>2021-11-21T14:16:48Z</time>
      </trkpt>
      <trkpt lat="49.13962" lon="7.08307">
        <ele>204</ele>
        <time>2021-11-21T14:16:55Z</time>
      </trkpt>
      <trkpt lat="49.13953" lon="7.08315">
        <ele>204.2</ele>
        <time>2021-11-21T14:17:00Z</time>
      </trkpt>
      <trkpt lat="49.13945" lon="7.08323">
        <ele>204.3</ele>
        <time>2021-11-21T14:17:05Z</time>
      </trkpt>
      <trkpt lat="49.13938" lon="7.08331">
        <ele>204.5</ele>
        <time>2021-11-21T14:17:10Z</time>
      </trkpt>
      <trkpt lat="49.13929" lon="7.08335">
        <ele>204.5</ele>
        <time>2021-11-21T14:17:17Z</time>
      </trkpt>
      <trkpt lat="49.1392" lon="7.08338">
        <ele>204.5</ele>
        <time>2021-11-21T14:17:26Z</time>
      </trkpt>
      <trkpt lat="49.13911" lon="7.08344">
        <ele>204.2</ele>
        <time>2021-11-21T14:17:34Z</time>
      </trkpt>
      <trkpt lat="49.13901" lon="7.0835">
        <ele>203.7</ele>
        <time>2021-11-21T14:17:40Z</time>
      </trkpt>
      <trkpt lat="49.13895" lon="7.08361">
        <ele>203.2</ele>
        <time>2021-11-21T14:17:48Z</time>
      </trkpt>
      <trkpt lat="49.13885" lon="7.08367">
        <ele>202.7</ele>
        <time>2021-11-21T14:17:54Z</time>
      </trkpt>
      <trkpt lat="49.13878" lon="7.08378">
        <ele>202.4</ele>
        <time>2021-11-21T14:17:59Z</time>
      </trkpt>
      <trkpt lat="49.13869" lon="7.08384">
        <ele>202.2</ele>
        <time>2021-11-21T14:18:06Z</time>
      </trkpt>
      <trkpt lat="49.13861" lon="7.0839">
        <ele>202.1</ele>
        <time>2021-11-21T14:18:14Z</time>
      </trkpt>
      <trkpt lat="49.13852" lon="7.08395">
        <ele>202</ele>
        <time>2021-11-21T14:18:22Z</time>
      </trkpt>
      <trkpt lat="49.13844" lon="7.08403">
        <ele>202</ele>
        <time>2021-11-21T14:18:29Z</time>
      </trkpt>
      <trkpt lat="49.13838" lon="7.08414">
        <ele>201.9</ele>
        <time>2021-11-21T14:18:40Z</time>
      </trkpt>
      <trkpt lat="49.13829" lon="7.08418">
        <ele>201.9</ele>
        <time>2021-11-21T14:18:47Z</time>
      </trkpt>
      <trkpt lat="49.13821" lon="7.08426">
        <ele>201.9</ele>
        <time>2021-11-21T14:18:54Z</time>
      </trkpt>
      <trkpt lat="49.13814" lon="7.08435">
        <ele>202.1</ele>
        <time>2021-11-21T14:19:03Z</time>
      </trkpt>
      <trkpt lat="49.13804" lon="7.08441">
        <ele>202.2</ele>
        <time>2021-11-21T14:19:12Z</time>
      </trkpt>
      <trkpt lat="49.13798" lon="7.08451">
        <ele>202.4</ele>
        <time>2021-11-21T14:19:20Z</time>
      </trkpt>
      <trkpt lat="49.13791" lon="7.08461">
        <ele>202.6</ele>
        <time>2021-11-21T14:19:28Z</time>
      </trkpt>
      <trkpt lat="49.13785" lon="7.08468">
        <ele>202.8</ele>
        <time>2021-11-21T14:19:36Z</time>
      </trkpt>
      <trkpt lat="49.13784" lon="7.08468">
        <ele>202.8</ele>
        <time>2021-11-21T14:19:37Z</time>
      </trkpt>
      <trkpt lat="49.13776" lon="7.08475">
        <ele>203</ele>
        <time>2021-11-21T14:19:45Z</time>
      </trkpt>
      <trkpt lat="49.13767" lon="7.08483">
        <ele>203.2</ele>
        <time>2021-11-21T14:19:53Z</time>
      </trkpt>
      <trkpt lat="49.13759" lon="7.08491">
        <ele>203.4</ele>
        <time>2021-11-21T14:20:00Z</time>
      </trkpt>
      <trkpt lat="49.13751" lon="7.08499">
        <ele>203.5</ele>
        <time>2021-11-21T14:20:07Z</time>
      </trkpt>
      <trkpt lat="49.13744" lon="7.08511">
        <ele>203.5</ele>
        <time>2021-11-21T14:20:15Z</time>
      </trkpt>
      <trkpt lat="49.13736" lon="7.08518">
        <ele>203.5</ele>
        <time>2021-11-21T14:20:22Z</time>
      </trkpt>
      <trkpt lat="49.13728" lon="7.08524">
        <ele>203.5</ele>
        <time>2021-11-21T14:20:30Z</time>
      </trkpt>
      <trkpt lat="49.1372" lon="7.0853">
        <ele>203.5</ele>
        <time>2021-11-21T14:20:42Z</time>
      </trkpt>
      <trkpt lat="49.13712" lon="7.08537">
        <ele>203.4</ele>
        <time>2021-11-21T14:20:50Z</time>
      </trkpt>
      <trkpt lat="49.13703" lon="7.08545">
        <ele>203.3</ele>
        <time>2021-11-21T14:20:59Z</time>
      </trkpt>
      <trkpt lat="49.13696" lon="7.08554">
        <ele>203.2</ele>
        <time>2021-11-21T14:21:05Z</time>
      </trkpt>
      <trkpt lat="49.13697" lon="7.08558">
        <ele>203.1</ele>
        <time>2021-11-21T14:21:15Z</time>
      </trkpt>
      <trkpt lat="49.13697" lon="7.08557">
        <ele>203.1</ele>
        <time>2021-11-21T14:21:16Z</time>
      </trkpt>
      <trkpt lat="49.13697" lon="7.08556">
        <ele>203.1</ele>
        <time>2021-11-21T14:21:19Z</time>
      </trkpt>
      <trkpt lat="49.13697" lon="7.08556">
        <ele>203.1</ele>
        <time>2021-11-21T14:21:21Z</time>
      </trkpt>
      <trkpt lat="49.13697" lon="7.08556">
        <ele>203.1</ele>
        <time>2021-11-21T14:21:22Z</time>
      </trkpt>
      <trkpt lat="49.13696" lon="7.08556">
        <ele>203.1</ele>
        <time>2021-11-21T14:21:25Z</time>
      </trkpt>
      <trkpt lat="49.13696" lon="7.08556">
        <ele>203.1</ele>
        <time>2021-11-21T14:21:28Z</time>
      </trkpt>
      <trkpt lat="49.13696" lon="7.08557">
        <ele>203.1</ele>
        <time>2021-11-21T14:21:30Z</time>
      </trkpt>
      <trkpt lat="49.13696" lon="7.08558">
        <ele>203.1</ele>
        <time>2021-11-21T14:21:36Z</time>
      </trkpt>
      <trkpt lat="49.13696" lon="7.08559">
        <ele>203.1</ele>
        <time>2021-11-21T14:21:38Z</time>
      </trkpt>
      <trkpt lat="49.13695" lon="7.0856">
        <ele>203.1</ele>
        <time>2021-11-21T14:21:44Z</time>
      </trkpt>
      <trkpt lat="49.13695" lon="7.0856">
        <ele>203.1</ele>
        <time>2021-11-21T14:21:45Z</time>
      </trkpt>
      <trkpt lat="49.13695" lon="7.08559">
        <ele>203.1</ele>
        <time>2021-11-21T14:21:49Z</time>
      </trkpt>
      <trkpt lat="49.13696" lon="7.08559">
        <ele>203.1</ele>
        <time>2021-11-21T14:21:50Z</time>
      </trkpt>
      <trkpt lat="49.13696" lon="7.08558">
        <ele>203.1</ele>
        <time>2021-11-21T14:21:54Z</time>
      </trkpt>
      <trkpt lat="49.13695" lon="7.08558">
        <ele>203.1</ele>
        <time>2021-11-21T14:21:55Z</time>
      </trkpt>
      <trkpt lat="49.13695" lon="7.08559">
        <ele>203.1</ele>
        <time>2021-11-21T14:21:57Z</time>
      </trkpt>
      <trkpt lat="49.13696" lon="7.08558">
        <ele>203.1</ele>
        <time>2021-11-21T14:21:58Z</time>
      </trkpt>
      <trkpt lat="49.13694" lon="7.08563">
        <ele>203</ele>
        <time>2021-11-21T14:22:09Z</time>
      </trkpt>
      <trkpt lat="49.13694" lon="7.08563">
        <ele>203</ele>
        <time>2021-11-21T14:22:10Z</time>
      </trkpt>
      <trkpt lat="49.13693" lon="7.08563">
        <ele>203</ele>
        <time>2021-11-21T14:22:15Z</time>
      </trkpt>
      <trkpt lat="49.13693" lon="7.08563">
        <ele>203</ele>
        <time>2021-11-21T14:22:16Z</time>
      </trkpt>
      <trkpt lat="49.13683" lon="7.08563">
        <ele>202.9</ele>
        <time>2021-11-21T14:22:53Z</time>
      </trkpt>
      <trkpt lat="49.13681" lon="7.08561">
        <ele>202.9</ele>
        <time>2021-11-21T14:22:55Z</time>
      </trkpt>
      <trkpt lat="49.13681" lon="7.08561">
        <ele>202.9</ele>
        <time>2021-11-21T14:22:56Z</time>
      </trkpt>
      <trkpt lat="49.13681" lon="7.08561">
        <ele>202.9</ele>
        <time>2021-11-21T14:22:57Z</time>
      </trkpt>
      <trkpt lat="49.13681" lon="7.08562">
        <ele>202.9</ele>
        <time>2021-11-21T14:23:00Z</time>
      </trkpt>
      <trkpt lat="49.13673" lon="7.08572">
        <ele>202.8</ele>
        <time>2021-11-21T14:23:11Z</time>
      </trkpt>
      <trkpt lat="49.13666" lon="7.08581">
        <ele>202.6</ele>
        <time>2021-11-21T14:23:24Z</time>
      </trkpt>
      <trkpt lat="49.13659" lon="7.08589">
        <ele>202.5</ele>
        <time>2021-11-21T14:23:32Z</time>
      </trkpt>
      <trkpt lat="49.13651" lon="7.08597">
        <ele>202.4</ele>
        <time>2021-11-21T14:23:40Z</time>
      </trkpt>
      <trkpt lat="49.13647" lon="7.086">
        <ele>202.3</ele>
        <time>2021-11-21T14:23:49Z</time>
      </trkpt>
      <trkpt lat="49.13647" lon="7.086">
        <ele>202.3</ele>
        <time>2021-11-21T14:23:50Z</time>
      </trkpt>
      <trkpt lat="49.13642" lon="7.08612">
        <ele>202.2</ele>
        <time>2021-11-21T14:24:00Z</time>
      </trkpt>
      <trkpt lat="49.13641" lon="7.08614">
        <ele>202.1</ele>
        <time>2021-11-21T14:24:04Z</time>
      </trkpt>
      <trkpt lat="49.13641" lon="7.08613">
        <ele>202.1</ele>
        <time>2021-11-21T14:24:08Z</time>
      </trkpt>
      <trkpt lat="49.13641" lon="7.08613">
        <ele>202.1</ele>
        <time>2021-11-21T14:24:09Z</time>
      </trkpt>
      <trkpt lat="49.1364" lon="7.08613">
        <ele>202.1</ele>
        <time>2021-11-21T14:24:12Z</time>
      </trkpt>
      <trkpt lat="49.1364" lon="7.08611">
        <ele>202.1</ele>
        <time>2021-11-21T14:24:14Z</time>
      </trkpt>
      <trkpt lat="49.13639" lon="7.08611">
        <ele>202.1</ele>
        <time>2021-11-21T14:24:18Z</time>
      </trkpt>
      <trkpt lat="49.13638" lon="7.08612">
        <ele>202.1</ele>
        <time>2021-11-21T14:24:22Z</time>
      </trkpt>
      <trkpt lat="49.13637" lon="7.08612">
        <ele>202.1</ele>
        <time>2021-11-21T14:24:23Z</time>
      </trkpt>
      <trkpt lat="49.1363" lon="7.08621">
        <ele>201.9</ele>
        <time>2021-11-21T14:24:36Z</time>
      </trkpt>
      <trkpt lat="49.13622" lon="7.08628">
        <ele>201.8</ele>
        <time>2021-11-21T14:24:48Z</time>
      </trkpt>
      <trkpt lat="49.13619" lon="7.08626">
        <ele>201.8</ele>
        <time>2021-11-21T14:24:54Z</time>
      </trkpt>
      <trkpt lat="49.13618" lon="7.08627">
        <ele>201.8</ele>
        <time>2021-11-21T14:25:01Z</time>
      </trkpt>
      <trkpt lat="49.13617" lon="7.08628">
        <ele>201.8</ele>
        <time>2021-11-21T14:25:07Z</time>
      </trkpt>
      <trkpt lat="49.13616" lon="7.08629">
        <ele>201.8</ele>
        <time>2021-11-21T14:25:08Z</time>
      </trkpt>
      <trkpt lat="49.13615" lon="7.08631">
        <ele>201.7</ele>
        <time>2021-11-21T14:25:14Z</time>
      </trkpt>
      <trkpt lat="49.13615" lon="7.0863">
        <ele>201.7</ele>
        <time>2021-11-21T14:25:15Z</time>
      </trkpt>
      <trkpt lat="49.13608" lon="7.08639">
        <ele>201.7</ele>
        <time>2021-11-21T14:25:35Z</time>
      </trkpt>
      <trkpt lat="49.13601" lon="7.08649">
        <ele>201.6</ele>
        <time>2021-11-21T14:25:44Z</time>
      </trkpt>
      <trkpt lat="49.13593" lon="7.08654">
        <ele>201.7</ele>
        <time>2021-11-21T14:25:56Z</time>
      </trkpt>
      <trkpt lat="49.13585" lon="7.08664">
        <ele>201.7</ele>
        <time>2021-11-21T14:26:07Z</time>
      </trkpt>
      <trkpt lat="49.13577" lon="7.08672">
        <ele>201.7</ele>
        <time>2021-11-21T14:26:16Z</time>
      </trkpt>
      <trkpt lat="49.13569" lon="7.08678">
        <ele>201.6</ele>
        <time>2021-11-21T14:26:29Z</time>
      </trkpt>
      <trkpt lat="49.13569" lon="7.08678">
        <ele>201.6</ele>
        <time>2021-11-21T14:26:31Z</time>
      </trkpt>
      <trkpt lat="49.13567" lon="7.08679">
        <ele>201.6</ele>
        <time>2021-11-21T14:26:36Z</time>
      </trkpt>
      <trkpt lat="49.13567" lon="7.08679">
        <ele>201.6</ele>
        <time>2021-11-21T14:26:37Z</time>
      </trkpt>
      <trkpt lat="49.13567" lon="7.08679">
        <ele>201.6</ele>
        <time>2021-11-21T14:26:38Z</time>
      </trkpt>
      <trkpt lat="49.13567" lon="7.08679">
        <ele>201.6</ele>
        <time>2021-11-21T14:26:43Z</time>
      </trkpt>
      <trkpt lat="49.13566" lon="7.08679">
        <ele>201.6</ele>
        <time>2021-11-21T14:26:47Z</time>
      </trkpt>
      <trkpt lat="49.13566" lon="7.08678">
        <ele>201.6</ele>
        <time>2021-11-21T14:26:48Z</time>
      </trkpt>
      <trkpt lat="49.13558" lon="7.08686">
        <ele>201.5</ele>
        <time>2021-11-21T14:27:01Z</time>
      </trkpt>
      <trkpt lat="49.1355" lon="7.08694">
        <ele>201.5</ele>
        <time>2021-11-21T14:27:10Z</time>
      </trkpt>
      <trkpt lat="49.13541" lon="7.087">
        <ele>201.6</ele>
        <time>2021-11-21T14:27:17Z</time>
      </trkpt>
      <trkpt lat="49.13533" lon="7.0871">
        <ele>201.7</ele>
        <time>2021-11-21T14:27:24Z</time>
      </trkpt>
      <trkpt lat="49.13525" lon="7.08717">
        <ele>201.8</ele>
        <time>2021-11-21T14:27:33Z</time>
      </trkpt>
      <trkpt lat="49.13516" lon="7.08719">
        <ele>201.9</ele>
        <time>2021-11-21T14:27:39Z</time>
      </trkpt>
      <trkpt lat="49.1351" lon="7.08708">
        <ele>203.7</ele>
        <time>2021-11-21T14:27:46Z</time>
      </trkpt>
      <trkpt lat="49.13509" lon="7.08707">
        <ele>203.8</ele>
        <time>2021-11-21T14:27:50Z</time>
      </trkpt>
      <trkpt lat="49.13508" lon="7.08707">
        <ele>203.8</ele>
        <time>2021-11-21T14:27:51Z</time>
      </trkpt>
      <trkpt lat="49.13502" lon="7.08719">
        <ele>203.9</ele>
        <time>2021-11-21T14:27:59Z</time>
      </trkpt>
      <trkpt lat="49.13492" lon="7.08721">
        <ele>203.7</ele>
        <time>2021-11-21T14:28:10Z</time>
      </trkpt>
      <trkpt lat="49.13485" lon="7.08731">
        <ele>203.3</ele>
        <time>2021-11-21T14:28:20Z</time>
      </trkpt>
      <trkpt lat="49.1348" lon="7.08742">
        <ele>203.1</ele>
        <time>2021-11-21T14:28:27Z</time>
      </trkpt>
      <trkpt lat="49.13472" lon="7.08751">
        <ele>203.1</ele>
        <time>2021-11-21T14:28:35Z</time>
      </trkpt>
      <trkpt lat="49.13464" lon="7.08761">
        <ele>203.2</ele>
        <time>2021-11-21T14:28:44Z</time>
      </trkpt>
      <trkpt lat="49.13456" lon="7.08768">
        <ele>203.2</ele>
        <time>2021-11-21T14:28:51Z</time>
      </trkpt>
      <trkpt lat="49.13449" lon="7.08778">
        <ele>203.2</ele>
        <time>2021-11-21T14:28:59Z</time>
      </trkpt>
      <trkpt lat="49.13443" lon="7.0879">
        <ele>203.2</ele>
        <time>2021-11-21T14:29:07Z</time>
      </trkpt>
      <trkpt lat="49.13439" lon="7.08804">
        <ele>203.2</ele>
        <time>2021-11-21T14:29:14Z</time>
      </trkpt>
      <trkpt lat="49.1343" lon="7.08811">
        <ele>203.4</ele>
        <time>2021-11-21T14:29:19Z</time>
      </trkpt>
      <trkpt lat="49.13421" lon="7.08815">
        <ele>203.5</ele>
        <time>2021-11-21T14:29:25Z</time>
      </trkpt>
      <trkpt lat="49.13413" lon="7.08824">
        <ele>203.7</ele>
        <time>2021-11-21T14:29:32Z</time>
      </trkpt>
      <trkpt lat="49.13404" lon="7.08831">
        <ele>203.8</ele>
        <time>2021-11-21T14:29:40Z</time>
      </trkpt>
      <trkpt lat="49.13396" lon="7.0884">
        <ele>204</ele>
        <time>2021-11-21T14:29:48Z</time>
      </trkpt>
      <trkpt lat="49.13391" lon="7.08828">
        <ele>208.1</ele>
        <time>2021-11-21T14:30:05Z</time>
      </trkpt>
      <trkpt lat="49.13393" lon="7.08814">
        <ele>210.7</ele>
        <time>2021-11-21T14:30:16Z</time>
      </trkpt>
      <trkpt lat="49.13385" lon="7.08807">
        <ele>213</ele>
        <time>2021-11-21T14:30:25Z</time>
      </trkpt>
      <trkpt lat="49.13382" lon="7.08794">
        <ele>214.7</ele>
        <time>2021-11-21T14:30:37Z</time>
      </trkpt>
      <trkpt lat="49.13376" lon="7.08783">
        <ele>215.9</ele>
        <time>2021-11-21T14:30:46Z</time>
      </trkpt>
      <trkpt lat="49.13374" lon="7.08769">
        <ele>216.8</ele>
        <time>2021-11-21T14:30:55Z</time>
      </trkpt>
      <trkpt lat="49.1337" lon="7.08757">
        <ele>217.3</ele>
        <time>2021-11-21T14:31:03Z</time>
      </trkpt>
      <trkpt lat="49.13363" lon="7.08746">
        <ele>217.8</ele>
        <time>2021-11-21T14:31:13Z</time>
      </trkpt>
      <trkpt lat="49.13361" lon="7.08732">
        <ele>218.6</ele>
        <time>2021-11-21T14:31:22Z</time>
      </trkpt>
      <trkpt lat="49.13361" lon="7.08716">
        <ele>219.4</ele>
        <time>2021-11-21T14:31:32Z</time>
      </trkpt>
      <trkpt lat="49.13357" lon="7.08703">
        <ele>219.9</ele>
        <time>2021-11-21T14:31:39Z</time>
      </trkpt>
      <trkpt lat="49.13353" lon="7.08691">
        <ele>220.4</ele>
        <time>2021-11-21T14:31:47Z</time>
      </trkpt>
      <trkpt lat="49.13347" lon="7.08678">
        <ele>221</ele>
        <time>2021-11-21T14:31:57Z</time>
      </trkpt>
      <trkpt lat="49.13342" lon="7.08666">
        <ele>221.6</ele>
        <time>2021-11-21T14:32:05Z</time>
      </trkpt>
      <trkpt lat="49.13339" lon="7.08652">
        <ele>222.2</ele>
        <time>2021-11-21T14:32:14Z</time>
      </trkpt>
      <trkpt lat="49.13334" lon="7.08638">
        <ele>222.9</ele>
        <time>2021-11-21T14:32:23Z</time>
      </trkpt>
      <trkpt lat="49.1333" lon="7.08625">
        <ele>223.5</ele>
        <time>2021-11-21T14:32:30Z</time>
      </trkpt>
      <trkpt lat="49.13329" lon="7.0861">
        <ele>224.1</ele>
        <time>2021-11-21T14:32:38Z</time>
      </trkpt>
      <trkpt lat="49.13326" lon="7.08597">
        <ele>224.6</ele>
        <time>2021-11-21T14:32:46Z</time>
      </trkpt>
      <trkpt lat="49.13319" lon="7.08586">
        <ele>225</ele>
        <time>2021-11-21T14:32:53Z</time>
      </trkpt>
      <trkpt lat="49.13322" lon="7.08572">
        <ele>225.4</ele>
        <time>2021-11-21T14:33:00Z</time>
      </trkpt>
      <trkpt lat="49.13324" lon="7.08559">
        <ele>225.8</ele>
        <time>2021-11-21T14:33:10Z</time>
      </trkpt>
      <trkpt lat="49.13325" lon="7.08545">
        <ele>226.2</ele>
        <time>2021-11-21T14:33:16Z</time>
      </trkpt>
      <trkpt lat="49.13318" lon="7.08536">
        <ele>226.6</ele>
        <time>2021-11-21T14:33:22Z</time>
      </trkpt>
      <trkpt lat="49.13318" lon="7.08519">
        <ele>227.1</ele>
        <time>2021-11-21T14:33:28Z</time>
      </trkpt>
      <trkpt lat="49.13318" lon="7.08505">
        <ele>227.4</ele>
        <time>2021-11-21T14:33:36Z</time>
      </trkpt>
      <trkpt lat="49.1331" lon="7.08497">
        <ele>227.9</ele>
        <time>2021-11-21T14:33:44Z</time>
      </trkpt>
      <trkpt lat="49.13308" lon="7.08483">
        <ele>227.9</ele>
        <time>2021-11-21T14:33:54Z</time>
      </trkpt>
      <trkpt lat="49.13311" lon="7.08469">
        <ele>228.4</ele>
        <time>2021-11-21T14:34:01Z</time>
      </trkpt>
      <trkpt lat="49.13311" lon="7.08456">
        <ele>228.7</ele>
        <time>2021-11-21T14:34:14Z</time>
      </trkpt>
      <trkpt lat="49.1331" lon="7.08456">
        <ele>228.7</ele>
        <time>2021-11-21T14:34:19Z</time>
      </trkpt>
      <trkpt lat="49.1331" lon="7.08456">
        <ele>228.8</ele>
        <time>2021-11-21T14:34:21Z</time>
      </trkpt>
      <trkpt lat="49.1331" lon="7.08456">
        <ele>228.8</ele>
        <time>2021-11-21T14:34:22Z</time>
      </trkpt>
      <trkpt lat="49.13303" lon="7.08454">
        <ele>229.1</ele>
        <time>2021-11-21T14:34:39Z</time>
      </trkpt>
      <trkpt lat="49.13303" lon="7.08454">
        <ele>229.1</ele>
        <time>2021-11-21T14:34:42Z</time>
      </trkpt>
      <trkpt lat="49.13302" lon="7.08453">
        <ele>229.1</ele>
        <time>2021-11-21T14:34:45Z</time>
      </trkpt>
      <trkpt lat="49.13301" lon="7.08453">
        <ele>229.2</ele>
        <time>2021-11-21T14:34:54Z</time>
      </trkpt>
      <trkpt lat="49.13302" lon="7.08453">
        <ele>229.2</ele>
        <time>2021-11-21T14:34:56Z</time>
      </trkpt>
      <trkpt lat="49.13301" lon="7.08452">
        <ele>229.2</ele>
        <time>2021-11-21T14:34:57Z</time>
      </trkpt>
      <trkpt lat="49.13301" lon="7.08453">
        <ele>229.2</ele>
        <time>2021-11-21T14:34:58Z</time>
      </trkpt>
      <trkpt lat="49.13301" lon="7.08453">
        <ele>229.2</ele>
        <time>2021-11-21T14:35:04Z</time>
      </trkpt>
      <trkpt lat="49.13301" lon="7.08439">
        <ele>229.6</ele>
        <time>2021-11-21T14:35:16Z</time>
      </trkpt>
      <trkpt lat="49.13303" lon="7.08424">
        <ele>230</ele>
        <time>2021-11-21T14:35:26Z</time>
      </trkpt>
      <trkpt lat="49.13306" lon="7.08411">
        <ele>230.5</ele>
        <time>2021-11-21T14:35:35Z</time>
      </trkpt>
      <trkpt lat="49.13311" lon="7.08397">
        <ele>231.1</ele>
        <time>2021-11-21T14:35:41Z</time>
      </trkpt>
      <trkpt lat="49.13315" lon="7.08384">
        <ele>231.7</ele>
        <time>2021-11-21T14:35:46Z</time>
      </trkpt>
      <trkpt lat="49.13318" lon="7.0837">
        <ele>232.2</ele>
        <time>2021-11-21T14:35:54Z</time>
      </trkpt>
      <trkpt lat="49.13322" lon="7.08358">
        <ele>232.7</ele>
        <time>2021-11-21T14:36:01Z</time>
      </trkpt>
      <trkpt lat="49.13327" lon="7.08345">
        <ele>233.3</ele>
        <time>2021-11-21T14:36:07Z</time>
      </trkpt>
      <trkpt lat="49.13331" lon="7.08333">
        <ele>233.8</ele>
        <time>2021-11-21T14:36:13Z</time>
      </trkpt>
      <trkpt lat="49.13338" lon="7.08322">
        <ele>234.3</ele>
        <time>2021-11-21T14:36:21Z</time>
      </trkpt>
      <trkpt lat="49.13341" lon="7.08308">
        <ele>234.7</ele>
        <time>2021-11-21T14:36:29Z</time>
      </trkpt>
      <trkpt lat="49.13345" lon="7.08294">
        <ele>235.1</ele>
        <time>2021-11-21T14:36:36Z</time>
      </trkpt>
      <trkpt lat="49.13351" lon="7.08281">
        <ele>235.5</ele>
        <time>2021-11-21T14:36:42Z</time>
      </trkpt>
      <trkpt lat="49.13353" lon="7.08265">
        <ele>235.7</ele>
        <time>2021-11-21T14:36:49Z</time>
      </trkpt>
      <trkpt lat="49.13355" lon="7.08252">
        <ele>235.7</ele>
        <time>2021-11-21T14:36:56Z</time>
      </trkpt>
      <trkpt lat="49.13357" lon="7.08246">
        <ele>235.7</ele>
        <time>2021-11-21T14:37:02Z</time>
      </trkpt>
      <trkpt lat="49.13357" lon="7.08245">
        <ele>235.7</ele>
        <time>2021-11-21T14:37:05Z</time>
      </trkpt>
      <trkpt lat="49.1335" lon="7.08235">
        <ele>235.7</ele>
        <time>2021-11-21T14:37:15Z</time>
      </trkpt>
      <trkpt lat="49.13349" lon="7.08221">
        <ele>235.7</ele>
        <time>2021-11-21T14:37:24Z</time>
      </trkpt>
      <trkpt lat="49.13343" lon="7.08209">
        <ele>235.7</ele>
        <time>2021-11-21T14:37:33Z</time>
      </trkpt>
      <trkpt lat="49.13338" lon="7.08196">
        <ele>235.8</ele>
        <time>2021-11-21T14:37:42Z</time>
      </trkpt>
      <trkpt lat="49.13335" lon="7.08184">
        <ele>236</ele>
        <time>2021-11-21T14:37:50Z</time>
      </trkpt>
      <trkpt lat="49.1333" lon="7.08172">
        <ele>236.1</ele>
        <time>2021-11-21T14:37:56Z</time>
      </trkpt>
      <trkpt lat="49.13325" lon="7.0816">
        <ele>236.2</ele>
        <time>2021-11-21T14:38:03Z</time>
      </trkpt>
      <trkpt lat="49.13317" lon="7.08152">
        <ele>236.2</ele>
        <time>2021-11-21T14:38:12Z</time>
      </trkpt>
      <trkpt lat="49.1331" lon="7.08142">
        <ele>236.2</ele>
        <time>2021-11-21T14:38:22Z</time>
      </trkpt>
      <trkpt lat="49.13306" lon="7.08129">
        <ele>236.2</ele>
        <time>2021-11-21T14:38:29Z</time>
      </trkpt>
      <trkpt lat="49.13297" lon="7.08123">
        <ele>236.1</ele>
        <time>2021-11-21T14:38:34Z</time>
      </trkpt>
      <trkpt lat="49.13286" lon="7.08128">
        <ele>235.9</ele>
        <time>2021-11-21T14:38:39Z</time>
      </trkpt>
      <trkpt lat="49.13277" lon="7.08123">
        <ele>235.6</ele>
        <time>2021-11-21T14:38:45Z</time>
      </trkpt>
      <trkpt lat="49.13269" lon="7.08115">
        <ele>235.5</ele>
        <time>2021-11-21T14:38:51Z</time>
      </trkpt>
      <trkpt lat="49.13259" lon="7.08116">
        <ele>235.3</ele>
        <time>2021-11-21T14:38:58Z</time>
      </trkpt>
      <trkpt lat="49.13249" lon="7.08123">
        <ele>235.2</ele>
        <time>2021-11-21T14:39:04Z</time>
      </trkpt>
      <trkpt lat="49.13239" lon="7.08125">
        <ele>235</ele>
        <time>2021-11-21T14:39:11Z</time>
      </trkpt>
      <trkpt lat="49.13229" lon="7.08129">
        <ele>234.8</ele>
        <time>2021-11-21T14:39:18Z</time>
      </trkpt>
      <trkpt lat="49.1322" lon="7.08134">
        <ele>234.5</ele>
        <time>2021-11-21T14:39:24Z</time>
      </trkpt>
      <trkpt lat="49.13211" lon="7.08141">
        <ele>234.2</ele>
        <time>2021-11-21T14:39:32Z</time>
      </trkpt>
      <trkpt lat="49.13202" lon="7.08148">
        <ele>233.7</ele>
        <time>2021-11-21T14:39:39Z</time>
      </trkpt>
      <trkpt lat="49.13194" lon="7.08155">
        <ele>233.2</ele>
        <time>2021-11-21T14:39:45Z</time>
      </trkpt>
      <trkpt lat="49.13186" lon="7.08162">
        <ele>232.8</ele>
        <time>2021-11-21T14:39:51Z</time>
      </trkpt>
      <trkpt lat="49.13178" lon="7.0817">
        <ele>232.5</ele>
        <time>2021-11-21T14:39:58Z</time>
      </trkpt>
      <trkpt lat="49.13169" lon="7.08167">
        <ele>232.4</ele>
        <time>2021-11-21T14:40:08Z</time>
      </trkpt>
      <trkpt lat="49.13159" lon="7.08162">
        <ele>232.1</ele>
        <time>2021-11-21T14:40:16Z</time>
      </trkpt>
      <trkpt lat="49.1315" lon="7.08164">
        <ele>231.7</ele>
        <time>2021-11-21T14:40:23Z</time>
      </trkpt>
      <trkpt lat="49.13141" lon="7.08165">
        <ele>231.1</ele>
        <time>2021-11-21T14:40:29Z</time>
      </trkpt>
      <trkpt lat="49.13131" lon="7.0817">
        <ele>230.5</ele>
        <time>2021-11-21T14:40:36Z</time>
      </trkpt>
      <trkpt lat="49.13122" lon="7.08172">
        <ele>229.9</ele>
        <time>2021-11-21T14:40:44Z</time>
      </trkpt>
      <trkpt lat="49.13113" lon="7.08178">
        <ele>229.3</ele>
        <time>2021-11-21T14:40:51Z</time>
      </trkpt>
      <trkpt lat="49.13104" lon="7.08185">
        <ele>228.6</ele>
        <time>2021-11-21T14:40:59Z</time>
      </trkpt>
      <trkpt lat="49.13095" lon="7.08193">
        <ele>228</ele>
        <time>2021-11-21T14:41:05Z</time>
      </trkpt>
      <trkpt lat="49.13086" lon="7.08199">
        <ele>227.3</ele>
        <time>2021-11-21T14:41:11Z</time>
      </trkpt>
      <trkpt lat="49.13078" lon="7.08209">
        <ele>226.7</ele>
        <time>2021-11-21T14:41:18Z</time>
      </trkpt>
      <trkpt lat="49.1307" lon="7.08216">
        <ele>226</ele>
        <time>2021-11-21T14:41:26Z</time>
      </trkpt>
      <trkpt lat="49.13061" lon="7.08217">
        <ele>225.4</ele>
        <time>2021-11-21T14:41:36Z</time>
      </trkpt>
      <trkpt lat="49.13051" lon="7.08222">
        <ele>224.6</ele>
        <time>2021-11-21T14:41:42Z</time>
      </trkpt>
      <trkpt lat="49.13042" lon="7.08227">
        <ele>224</ele>
        <time>2021-11-21T14:41:48Z</time>
      </trkpt>
      <trkpt lat="49.13034" lon="7.08235">
        <ele>223.3</ele>
        <time>2021-11-21T14:41:56Z</time>
      </trkpt>
      <trkpt lat="49.13026" lon="7.0824">
        <ele>222.6</ele>
        <time>2021-11-21T14:42:01Z</time>
      </trkpt>
      <trkpt lat="49.13017" lon="7.08248">
        <ele>221.8</ele>
        <time>2021-11-21T14:42:06Z</time>
      </trkpt>
      <trkpt lat="49.13008" lon="7.08253">
        <ele>221.1</ele>
        <time>2021-11-21T14:42:13Z</time>
      </trkpt>
      <trkpt lat="49.12998" lon="7.08252">
        <ele>220.3</ele>
        <time>2021-11-21T14:42:21Z</time>
      </trkpt>
      <trkpt lat="49.12988" lon="7.08254">
        <ele>219.3</ele>
        <time>2021-11-21T14:42:28Z</time>
      </trkpt>
      <trkpt lat="49.12978" lon="7.08255">
        <ele>218.5</ele>
        <time>2021-11-21T14:42:38Z</time>
      </trkpt>
      <trkpt lat="49.12969" lon="7.0826">
        <ele>217.6</ele>
        <time>2021-11-21T14:42:45Z</time>
      </trkpt>
      <trkpt lat="49.1296" lon="7.0826">
        <ele>216.6</ele>
        <time>2021-11-21T14:42:52Z</time>
      </trkpt>
      <trkpt lat="49.12949" lon="7.08258">
        <ele>215.3</ele>
        <time>2021-11-21T14:43:00Z</time>
      </trkpt>
      <trkpt lat="49.12939" lon="7.08264">
        <ele>213.9</ele>
        <time>2021-11-21T14:43:06Z</time>
      </trkpt>
      <trkpt lat="49.12931" lon="7.08271">
        <ele>212.7</ele>
        <time>2021-11-21T14:43:12Z</time>
      </trkpt>
      <trkpt lat="49.12925" lon="7.08281">
        <ele>211.6</ele>
        <time>2021-11-21T14:43:18Z</time>
      </trkpt>
      <trkpt lat="49.12916" lon="7.08288">
        <ele>210.5</ele>
        <time>2021-11-21T14:43:26Z</time>
      </trkpt>
      <trkpt lat="49.12907" lon="7.08291">
        <ele>209.2</ele>
        <time>2021-11-21T14:43:34Z</time>
      </trkpt>
      <trkpt lat="49.12898" lon="7.08297">
        <ele>208</ele>
        <time>2021-11-21T14:43:40Z</time>
      </trkpt>
      <trkpt lat="49.12889" lon="7.083">
        <ele>206.8</ele>
        <time>2021-11-21T14:43:47Z</time>
      </trkpt>
      <trkpt lat="49.12881" lon="7.08309">
        <ele>205.5</ele>
        <time>2021-11-21T14:43:54Z</time>
      </trkpt>
      <trkpt lat="49.12872" lon="7.08318">
        <ele>204.1</ele>
        <time>2021-11-21T14:44:02Z</time>
      </trkpt>
      <trkpt lat="49.12864" lon="7.08326">
        <ele>203.1</ele>
        <time>2021-11-21T14:44:08Z</time>
      </trkpt>
      <trkpt lat="49.12856" lon="7.08319">
        <ele>202.5</ele>
        <time>2021-11-21T14:44:19Z</time>
      </trkpt>
      <trkpt lat="49.12851" lon="7.08307">
        <ele>202.5</ele>
        <time>2021-11-21T14:44:28Z</time>
      </trkpt>
      <trkpt lat="49.12847" lon="7.08295">
        <ele>202.5</ele>
        <time>2021-11-21T14:44:36Z</time>
      </trkpt>
      <trkpt lat="49.12844" lon="7.08281">
        <ele>202.5</ele>
        <time>2021-11-21T14:44:42Z</time>
      </trkpt>
      <trkpt lat="49.1284" lon="7.08268">
        <ele>202.5</ele>
        <time>2021-11-21T14:44:49Z</time>
      </trkpt>
      <trkpt lat="49.12837" lon="7.08255">
        <ele>202.4</ele>
        <time>2021-11-21T14:45:00Z</time>
      </trkpt>
      <trkpt lat="49.12833" lon="7.08242">
        <ele>202.4</ele>
        <time>2021-11-21T14:45:06Z</time>
      </trkpt>
      <trkpt lat="49.12831" lon="7.08228">
        <ele>202.3</ele>
        <time>2021-11-21T14:45:13Z</time>
      </trkpt>
      <trkpt lat="49.12831" lon="7.08215">
        <ele>202.3</ele>
        <time>2021-11-21T14:45:19Z</time>
      </trkpt>
      <trkpt lat="49.1283" lon="7.08201">
        <ele>202.2</ele>
        <time>2021-11-21T14:45:30Z</time>
      </trkpt>
      <trkpt lat="49.12824" lon="7.08189">
        <ele>202.2</ele>
        <time>2021-11-21T14:45:41Z</time>
      </trkpt>
      <trkpt lat="49.12822" lon="7.08174">
        <ele>202.1</ele>
        <time>2021-11-21T14:45:51Z</time>
      </trkpt>
      <trkpt lat="49.12821" lon="7.08159">
        <ele>202</ele>
        <time>2021-11-21T14:46:00Z</time>
      </trkpt>
      <trkpt lat="49.12818" lon="7.08145">
        <ele>201.9</ele>
        <time>2021-11-21T14:46:06Z</time>
      </trkpt>
      <trkpt lat="49.12812" lon="7.08134">
        <ele>201.8</ele>
        <time>2021-11-21T14:46:13Z</time>
      </trkpt>
      <trkpt lat="49.12812" lon="7.08126">
        <ele>201.8</ele>
        <time>2021-11-21T14:46:18Z</time>
      </trkpt>
      <trkpt lat="49.12812" lon="7.08125">
        <ele>201.8</ele>
        <time>2021-11-21T14:46:24Z</time>
      </trkpt>
      <trkpt lat="49.12808" lon="7.08121">
        <ele>201.7</ele>
        <time>2021-11-21T14:46:32Z</time>
      </trkpt>
      <trkpt lat="49.12807" lon="7.08121">
        <ele>201.7</ele>
        <time>2021-11-21T14:46:35Z</time>
      </trkpt>
      <trkpt lat="49.12807" lon="7.081">
        <ele>201.6</ele>
        <time>2021-11-21T14:46:39Z</time>
      </trkpt>
      <trkpt lat="49.12807" lon="7.08086">
        <ele>201.5</ele>
        <time>2021-11-21T14:46:44Z</time>
      </trkpt>
      <trkpt lat="49.12803" lon="7.08072">
        <ele>201.5</ele>
        <time>2021-11-21T14:46:51Z</time>
      </trkpt>
      <trkpt lat="49.12799" lon="7.0806">
        <ele>201.4</ele>
        <time>2021-11-21T14:46:57Z</time>
      </trkpt>
      <trkpt lat="49.12795" lon="7.08047">
        <ele>201.4</ele>
        <time>2021-11-21T14:47:04Z</time>
      </trkpt>
      <trkpt lat="49.12795" lon="7.08033">
        <ele>201.3</ele>
        <time>2021-11-21T14:47:12Z</time>
      </trkpt>
      <trkpt lat="49.12795" lon="7.08018">
        <ele>201.3</ele>
        <time>2021-11-21T14:47:22Z</time>
      </trkpt>
      <trkpt lat="49.12792" lon="7.08005">
        <ele>201.2</ele>
        <time>2021-11-21T14:47:29Z</time>
      </trkpt>
      <trkpt lat="49.12785" lon="7.07995">
        <ele>201.2</ele>
        <time>2021-11-21T14:47:35Z</time>
      </trkpt>
      <trkpt lat="49.1278" lon="7.07982">
        <ele>201.1</ele>
        <time>2021-11-21T14:47:43Z</time>
      </trkpt>
      <trkpt lat="49.12778" lon="7.07967">
        <ele>201.1</ele>
        <time>2021-11-21T14:47:50Z</time>
      </trkpt>
      <trkpt lat="49.12775" lon="7.07954">
        <ele>201.1</ele>
        <time>2021-11-21T14:47:58Z</time>
      </trkpt>
      <trkpt lat="49.12775" lon="7.07937">
        <ele>201.2</ele>
        <time>2021-11-21T14:48:04Z</time>
      </trkpt>
      <trkpt lat="49.12775" lon="7.07922">
        <ele>201.2</ele>
        <time>2021-11-21T14:48:08Z</time>
      </trkpt>
      <trkpt lat="49.12772" lon="7.07909">
        <ele>201.3</ele>
        <time>2021-11-21T14:48:15Z</time>
      </trkpt>
      <trkpt lat="49.12771" lon="7.07894">
        <ele>201.4</ele>
        <time>2021-11-21T14:48:23Z</time>
      </trkpt>
      <trkpt lat="49.12771" lon="7.07879">
        <ele>201.5</ele>
        <time>2021-11-21T14:48:31Z</time>
      </trkpt>
      <trkpt lat="49.1277" lon="7.07863">
        <ele>201.6</ele>
        <time>2021-11-21T14:48:37Z</time>
      </trkpt>
      <trkpt lat="49.12767" lon="7.07849">
        <ele>201.7</ele>
        <time>2021-11-21T14:48:45Z</time>
      </trkpt>
      <trkpt lat="49.12763" lon="7.07835">
        <ele>201.9</ele>
        <time>2021-11-21T14:48:52Z</time>
      </trkpt>
      <trkpt lat="49.12759" lon="7.07822">
        <ele>202</ele>
        <time>2021-11-21T14:48:57Z</time>
      </trkpt>
      <trkpt lat="49.12753" lon="7.07811">
        <ele>202.1</ele>
        <time>2021-11-21T14:49:04Z</time>
      </trkpt>
      <trkpt lat="49.1275" lon="7.07796">
        <ele>202.2</ele>
        <time>2021-11-21T14:49:12Z</time>
      </trkpt>
      <trkpt lat="49.12749" lon="7.07782">
        <ele>202.3</ele>
        <time>2021-11-21T14:49:19Z</time>
      </trkpt>
      <trkpt lat="49.12742" lon="7.07771">
        <ele>202.3</ele>
        <time>2021-11-21T14:49:26Z</time>
      </trkpt>
      <trkpt lat="49.12736" lon="7.07757">
        <ele>202.4</ele>
        <time>2021-11-21T14:49:34Z</time>
      </trkpt>
      <trkpt lat="49.12733" lon="7.07744">
        <ele>202.5</ele>
        <time>2021-11-21T14:49:41Z</time>
      </trkpt>
      <trkpt lat="49.1273" lon="7.0773">
        <ele>202.6</ele>
        <time>2021-11-21T14:49:47Z</time>
      </trkpt>
      <trkpt lat="49.12726" lon="7.07717">
        <ele>202.7</ele>
        <time>2021-11-21T14:49:53Z</time>
      </trkpt>
      <trkpt lat="49.12722" lon="7.07703">
        <ele>202.8</ele>
        <time>2021-11-21T14:49:59Z</time>
      </trkpt>
      <trkpt lat="49.12715" lon="7.07694">
        <ele>202.9</ele>
        <time>2021-11-21T14:50:04Z</time>
      </trkpt>
      <trkpt lat="49.12707" lon="7.07686">
        <ele>203</ele>
        <time>2021-11-21T14:50:11Z</time>
      </trkpt>
      <trkpt lat="49.12698" lon="7.07679">
        <ele>203.1</ele>
        <time>2021-11-21T14:50:22Z</time>
      </trkpt>
      <trkpt lat="49.12689" lon="7.07674">
        <ele>203.2</ele>
        <time>2021-11-21T14:50:29Z</time>
      </trkpt>
      <trkpt lat="49.1268" lon="7.0767">
        <ele>203.2</ele>
        <time>2021-11-21T14:50:36Z</time>
      </trkpt>
      <trkpt lat="49.12672" lon="7.07663">
        <ele>203.3</ele>
        <time>2021-11-21T14:50:46Z</time>
      </trkpt>
      <trkpt lat="49.12672" lon="7.07662">
        <ele>203.3</ele>
        <time>2021-11-21T14:50:49Z</time>
      </trkpt>
      <trkpt lat="49.12671" lon="7.07662">
        <ele>203.3</ele>
        <time>2021-11-21T14:50:50Z</time>
      </trkpt>
      <trkpt lat="49.12671" lon="7.07662">
        <ele>203.3</ele>
        <time>2021-11-21T14:50:51Z</time>
      </trkpt>
      <trkpt lat="49.1267" lon="7.07662">
        <ele>203.4</ele>
        <time>2021-11-21T14:50:52Z</time>
      </trkpt>
      <trkpt lat="49.1267" lon="7.07662">
        <ele>203.4</ele>
        <time>2021-11-21T14:50:53Z</time>
      </trkpt>
      <trkpt lat="49.1267" lon="7.07662">
        <ele>203.4</ele>
        <time>2021-11-21T14:50:56Z</time>
      </trkpt>
      <trkpt lat="49.1267" lon="7.07662">
        <ele>203.4</ele>
        <time>2021-11-21T14:50:57Z</time>
      </trkpt>
      <trkpt lat="49.12669" lon="7.07662">
        <ele>203.4</ele>
        <time>2021-11-21T14:51:01Z</time>
      </trkpt>
      <trkpt lat="49.12666" lon="7.07662">
        <ele>203.5</ele>
        <time>2021-11-21T14:51:06Z</time>
      </trkpt>
      <trkpt lat="49.12665" lon="7.07662">
        <ele>203.5</ele>
        <time>2021-11-21T14:51:09Z</time>
      </trkpt>
      <trkpt lat="49.12663" lon="7.07662">
        <ele>203.6</ele>
        <time>2021-11-21T14:51:13Z</time>
      </trkpt>
      <trkpt lat="49.12663" lon="7.07662">
        <ele>203.6</ele>
        <time>2021-11-21T14:51:19Z</time>
      </trkpt>
      <trkpt lat="49.12663" lon="7.07662">
        <ele>203.6</ele>
        <time>2021-11-21T14:51:20Z</time>
      </trkpt>
      <trkpt lat="49.12663" lon="7.07662">
        <ele>203.6</ele>
        <time>2021-11-21T14:51:23Z</time>
      </trkpt>
      <trkpt lat="49.12663" lon="7.07662">
        <ele>203.6</ele>
        <time>2021-11-21T14:51:24Z</time>
      </trkpt>
      <trkpt lat="49.12663" lon="7.07661">
        <ele>203.6</ele>
        <time>2021-11-21T14:51:28Z</time>
      </trkpt>
      <trkpt lat="49.12663" lon="7.07662">
        <ele>203.7</ele>
        <time>2021-11-21T14:51:41Z</time>
      </trkpt>
      <trkpt lat="49.12663" lon="7.07661">
        <ele>203.7</ele>
        <time>2021-11-21T14:51:43Z</time>
      </trkpt>
      <trkpt lat="49.12659" lon="7.07656">
        <ele>204</ele>
        <time>2021-11-21T14:52:04Z</time>
      </trkpt>
      <trkpt lat="49.12659" lon="7.07656">
        <ele>204</ele>
        <time>2021-11-21T14:52:05Z</time>
      </trkpt>
      <trkpt lat="49.12662" lon="7.07649">
        <ele>204.4</ele>
        <time>2021-11-21T14:52:14Z</time>
      </trkpt>
      <trkpt lat="49.12662" lon="7.07649">
        <ele>204.4</ele>
        <time>2021-11-21T14:52:15Z</time>
      </trkpt>
      <trkpt lat="49.12661" lon="7.07635">
        <ele>205.2</ele>
        <time>2021-11-21T14:52:34Z</time>
      </trkpt>
      <trkpt lat="49.12661" lon="7.07635">
        <ele>205.2</ele>
        <time>2021-11-21T14:52:36Z</time>
      </trkpt>
      <trkpt lat="49.12661" lon="7.07635">
        <ele>205.3</ele>
        <time>2021-11-21T14:52:37Z</time>
      </trkpt>
      <trkpt lat="49.12658" lon="7.07621">
        <ele>206.2</ele>
        <time>2021-11-21T14:52:47Z</time>
      </trkpt>
      <trkpt lat="49.12656" lon="7.07606">
        <ele>206.7</ele>
        <time>2021-11-21T14:52:57Z</time>
      </trkpt>
      <trkpt lat="49.12655" lon="7.07605">
        <ele>206.7</ele>
        <time>2021-11-21T14:53:00Z</time>
      </trkpt>
      <trkpt lat="49.12655" lon="7.07605">
        <ele>206.7</ele>
        <time>2021-11-21T14:53:06Z</time>
      </trkpt>
      <trkpt lat="49.12655" lon="7.07605">
        <ele>206.7</ele>
        <time>2021-11-21T14:53:07Z</time>
      </trkpt>
      <trkpt lat="49.12655" lon="7.07605">
        <ele>206.7</ele>
        <time>2021-11-21T14:53:12Z</time>
      </trkpt>
      <trkpt lat="49.12655" lon="7.07605">
        <ele>206.7</ele>
        <time>2021-11-21T14:53:13Z</time>
      </trkpt>
      <trkpt lat="49.12655" lon="7.07605">
        <ele>206.7</ele>
        <time>2021-11-21T14:53:15Z</time>
      </trkpt>
      <trkpt lat="49.12655" lon="7.0759">
        <ele>206.2</ele>
        <time>2021-11-21T14:53:32Z</time>
      </trkpt>
      <trkpt lat="49.12655" lon="7.07576">
        <ele>205.8</ele>
        <time>2021-11-21T14:53:42Z</time>
      </trkpt>
      <trkpt lat="49.1265" lon="7.07565">
        <ele>205.2</ele>
        <time>2021-11-21T14:53:51Z</time>
      </trkpt>
      <trkpt lat="49.12645" lon="7.0756">
        <ele>204.8</ele>
        <time>2021-11-21T14:53:58Z</time>
      </trkpt>
      <trkpt lat="49.12645" lon="7.07559">
        <ele>204.7</ele>
        <time>2021-11-21T14:53:59Z</time>
      </trkpt>
      <trkpt lat="49.12637" lon="7.07549">
        <ele>203.8</ele>
        <time>2021-11-21T14:54:07Z</time>
      </trkpt>
      <trkpt lat="49.12634" lon="7.07544">
        <ele>203.4</ele>
        <time>2021-11-21T14:54:11Z</time>
      </trkpt>
      <trkpt lat="49.12634" lon="7.07544">
        <ele>203.4</ele>
        <time>2021-11-21T14:54:13Z</time>
      </trkpt>
      <trkpt lat="49.12625" lon="7.0754">
        <ele>203</ele>
        <time>2021-11-21T14:54:28Z</time>
      </trkpt>
      <trkpt lat="49.12631" lon="7.0753">
        <ele>203.1</ele>
        <time>2021-11-21T14:54:39Z</time>
      </trkpt>
      <trkpt lat="49.12637" lon="7.07519">
        <ele>203.4</ele>
        <time>2021-11-21T14:54:45Z</time>
      </trkpt>
      <trkpt lat="49.12643" lon="7.07507">
        <ele>203.8</ele>
        <time>2021-11-21T14:55:01Z</time>
      </trkpt>
      <trkpt lat="49.1264" lon="7.07493">
        <ele>203.9</ele>
        <time>2021-11-21T14:55:14Z</time>
      </trkpt>
      <trkpt lat="49.12637" lon="7.07481">
        <ele>203.8</ele>
        <time>2021-11-21T14:55:26Z</time>
      </trkpt>
      <trkpt lat="49.12637" lon="7.0748">
        <ele>203.8</ele>
        <time>2021-11-21T14:55:27Z</time>
      </trkpt>
      <trkpt lat="49.12637" lon="7.07466">
        <ele>204.1</ele>
        <time>2021-11-21T14:55:36Z</time>
      </trkpt>
      <trkpt lat="49.12637" lon="7.07451">
        <ele>205.8</ele>
        <time>2021-11-21T14:55:43Z</time>
      </trkpt>
      <trkpt lat="49.12633" lon="7.07438">
        <ele>207.3</ele>
        <time>2021-11-21T14:55:50Z</time>
      </trkpt>
      <trkpt lat="49.12632" lon="7.07424">
        <ele>208.4</ele>
        <time>2021-11-21T14:55:59Z</time>
      </trkpt>
      <trkpt lat="49.1263" lon="7.0741">
        <ele>209.3</ele>
        <time>2021-11-21T14:56:09Z</time>
      </trkpt>
      <trkpt lat="49.12628" lon="7.07396">
        <ele>210.2</ele>
        <time>2021-11-21T14:56:18Z</time>
      </trkpt>
      <trkpt lat="49.12626" lon="7.07382">
        <ele>211.1</ele>
        <time>2021-11-21T14:56:25Z</time>
      </trkpt>
      <trkpt lat="49.12626" lon="7.07366">
        <ele>212.4</ele>
        <time>2021-11-21T14:56:33Z</time>
      </trkpt>
      <trkpt lat="49.12627" lon="7.07352">
        <ele>213.6</ele>
        <time>2021-11-21T14:56:42Z</time>
      </trkpt>
      <trkpt lat="49.12632" lon="7.07339">
        <ele>215</ele>
        <time>2021-11-21T14:56:50Z</time>
      </trkpt>
      <trkpt lat="49.12636" lon="7.07325">
        <ele>216.6</ele>
        <time>2021-11-21T14:56:58Z</time>
      </trkpt>
      <trkpt lat="49.12643" lon="7.07315">
        <ele>218.1</ele>
        <time>2021-11-21T14:57:06Z</time>
      </trkpt>
      <trkpt lat="49.12648" lon="7.07302">
        <ele>219.7</ele>
        <time>2021-11-21T14:57:14Z</time>
      </trkpt>
      <trkpt lat="49.12654" lon="7.07291">
        <ele>221.2</ele>
        <time>2021-11-21T14:57:22Z</time>
      </trkpt>
      <trkpt lat="49.1266" lon="7.0728">
        <ele>222.5</ele>
        <time>2021-11-21T14:57:29Z</time>
      </trkpt>
      <trkpt lat="49.12666" lon="7.07268">
        <ele>223.8</ele>
        <time>2021-11-21T14:57:37Z</time>
      </trkpt>
      <trkpt lat="49.1267" lon="7.07255">
        <ele>224.8</ele>
        <time>2021-11-21T14:57:46Z</time>
      </trkpt>
      <trkpt lat="49.12676" lon="7.07241">
        <ele>225.7</ele>
        <time>2021-11-21T14:57:55Z</time>
      </trkpt>
      <trkpt lat="49.12677" lon="7.07227">
        <ele>226.1</ele>
        <time>2021-11-21T14:58:03Z</time>
      </trkpt>
      <trkpt lat="49.12681" lon="7.07215">
        <ele>226.7</ele>
        <time>2021-11-21T14:58:10Z</time>
      </trkpt>
      <trkpt lat="49.12686" lon="7.07202">
        <ele>227.3</ele>
        <time>2021-11-21T14:58:18Z</time>
      </trkpt>
      <trkpt lat="49.12694" lon="7.07193">
        <ele>228</ele>
        <time>2021-11-21T14:58:24Z</time>
      </trkpt>
      <trkpt lat="49.127" lon="7.07181">
        <ele>228.6</ele>
        <time>2021-11-21T14:58:32Z</time>
      </trkpt>
      <trkpt lat="49.12704" lon="7.07168">
        <ele>229.1</ele>
        <time>2021-11-21T14:58:39Z</time>
      </trkpt>
      <trkpt lat="49.12706" lon="7.07154">
        <ele>229.6</ele>
        <time>2021-11-21T14:58:45Z</time>
      </trkpt>
      <trkpt lat="49.12708" lon="7.0714">
        <ele>230.1</ele>
        <time>2021-11-21T14:58:52Z</time>
      </trkpt>
      <trkpt lat="49.12712" lon="7.07127">
        <ele>230.6</ele>
        <time>2021-11-21T14:59:00Z</time>
      </trkpt>
      <trkpt lat="49.12717" lon="7.07115">
        <ele>231.2</ele>
        <time>2021-11-21T14:59:08Z</time>
      </trkpt>
      <trkpt lat="49.12724" lon="7.07105">
        <ele>231.6</ele>
        <time>2021-11-21T14:59:15Z</time>
      </trkpt>
      <trkpt lat="49.12728" lon="7.07091">
        <ele>232.1</ele>
        <time>2021-11-21T14:59:22Z</time>
      </trkpt>
      <trkpt lat="49.1273" lon="7.07077">
        <ele>232.4</ele>
        <time>2021-11-21T14:59:29Z</time>
      </trkpt>
      <trkpt lat="49.12734" lon="7.07062">
        <ele>232.7</ele>
        <time>2021-11-21T14:59:37Z</time>
      </trkpt>
      <trkpt lat="49.12741" lon="7.07052">
        <ele>232.9</ele>
        <time>2021-11-21T14:59:44Z</time>
      </trkpt>
      <trkpt lat="49.12747" lon="7.0704">
        <ele>233</ele>
        <time>2021-11-21T14:59:53Z</time>
      </trkpt>
      <trkpt lat="49.12746" lon="7.07026">
        <ele>233</ele>
        <time>2021-11-21T14:59:58Z</time>
      </trkpt>
      <trkpt lat="49.1275" lon="7.07011">
        <ele>233</ele>
        <time>2021-11-21T15:00:08Z</time>
      </trkpt>
      <trkpt lat="49.12755" lon="7.06999">
        <ele>232.9</ele>
        <time>2021-11-21T15:00:15Z</time>
      </trkpt>
      <trkpt lat="49.12765" lon="7.07002">
        <ele>233.1</ele>
        <time>2021-11-21T15:00:24Z</time>
      </trkpt>
      <trkpt lat="49.12772" lon="7.07011">
        <ele>233.7</ele>
        <time>2021-11-21T15:00:31Z</time>
      </trkpt>
      <trkpt lat="49.1278" lon="7.07019">
        <ele>234.3</ele>
        <time>2021-11-21T15:00:37Z</time>
      </trkpt>
      <trkpt lat="49.12789" lon="7.07026">
        <ele>234.8</ele>
        <time>2021-11-21T15:00:43Z</time>
      </trkpt>
      <trkpt lat="49.12796" lon="7.07035">
        <ele>235.3</ele>
        <time>2021-11-21T15:00:49Z</time>
      </trkpt>
      <trkpt lat="49.12804" lon="7.07043">
        <ele>235.7</ele>
        <time>2021-11-21T15:00:57Z</time>
      </trkpt>
      <trkpt lat="49.12811" lon="7.07052">
        <ele>236.1</ele>
        <time>2021-11-21T15:01:05Z</time>
      </trkpt>
      <trkpt lat="49.12818" lon="7.07061">
        <ele>236.5</ele>
        <time>2021-11-21T15:01:12Z</time>
      </trkpt>
      <trkpt lat="49.1282" lon="7.07071">
        <ele>237.2</ele>
        <time>2021-11-21T15:01:27Z</time>
      </trkpt>
      <trkpt lat="49.12821" lon="7.07071">
        <ele>237.2</ele>
        <time>2021-11-21T15:01:28Z</time>
      </trkpt>
      <trkpt lat="49.12829" lon="7.07068">
        <ele>237.4</ele>
        <time>2021-11-21T15:01:38Z</time>
      </trkpt>
      <trkpt lat="49.12839" lon="7.07071">
        <ele>237.5</ele>
        <time>2021-11-21T15:01:46Z</time>
      </trkpt>
      <trkpt lat="49.12849" lon="7.07073">
        <ele>237.7</ele>
        <time>2021-11-21T15:01:58Z</time>
      </trkpt>
      <trkpt lat="49.12859" lon="7.07077">
        <ele>237.9</ele>
        <time>2021-11-21T15:02:05Z</time>
      </trkpt>
      <trkpt lat="49.12869" lon="7.07071">
        <ele>238.2</ele>
        <time>2021-11-21T15:02:13Z</time>
      </trkpt>
      <trkpt lat="49.12879" lon="7.07073">
        <ele>238.5</ele>
        <time>2021-11-21T15:02:23Z</time>
      </trkpt>
      <trkpt lat="49.12889" lon="7.07075">
        <ele>238.8</ele>
        <time>2021-11-21T15:02:28Z</time>
      </trkpt>
      <trkpt lat="49.12898" lon="7.07079">
        <ele>239.1</ele>
        <time>2021-11-21T15:02:36Z</time>
      </trkpt>
      <trkpt lat="49.12907" lon="7.07077">
        <ele>239.3</ele>
        <time>2021-11-21T15:02:47Z</time>
      </trkpt>
      <trkpt lat="49.12917" lon="7.07079">
        <ele>239.6</ele>
        <time>2021-11-21T15:02:55Z</time>
      </trkpt>
      <trkpt lat="49.12925" lon="7.07075">
        <ele>239.9</ele>
        <time>2021-11-21T15:03:04Z</time>
      </trkpt>
      <trkpt lat="49.12936" lon="7.07075">
        <ele>240.3</ele>
        <time>2021-11-21T15:03:11Z</time>
      </trkpt>
      <trkpt lat="49.12945" lon="7.07078">
        <ele>240.6</ele>
        <time>2021-11-21T15:03:16Z</time>
      </trkpt>
      <trkpt lat="49.12955" lon="7.07076">
        <ele>240.8</ele>
        <time>2021-11-21T15:03:23Z</time>
      </trkpt>
      <trkpt lat="49.12964" lon="7.07077">
        <ele>241</ele>
        <time>2021-11-21T15:03:29Z</time>
      </trkpt>
      <trkpt lat="49.12974" lon="7.07079">
        <ele>241.1</ele>
        <time>2021-11-21T15:03:35Z</time>
      </trkpt>
      <trkpt lat="49.12982" lon="7.07084">
        <ele>241.1</ele>
        <time>2021-11-21T15:03:42Z</time>
      </trkpt>
      <trkpt lat="49.12992" lon="7.07086">
        <ele>241.2</ele>
        <time>2021-11-21T15:03:50Z</time>
      </trkpt>
      <trkpt lat="49.13003" lon="7.07085">
        <ele>241.3</ele>
        <time>2021-11-21T15:03:59Z</time>
      </trkpt>
      <trkpt lat="49.13012" lon="7.07089">
        <ele>241.4</ele>
        <time>2021-11-21T15:04:04Z</time>
      </trkpt>
      <trkpt lat="49.13021" lon="7.07085">
        <ele>241.4</ele>
        <time>2021-11-21T15:04:11Z</time>
      </trkpt>
      <trkpt lat="49.13026" lon="7.07083">
        <ele>241.5</ele>
        <time>2021-11-21T15:04:19Z</time>
      </trkpt>
      <trkpt lat="49.13025" lon="7.07082">
        <ele>241.5</ele>
        <time>2021-11-21T15:04:20Z</time>
      </trkpt>
      <trkpt lat="49.13036" lon="7.07082">
        <ele>241.6</ele>
        <time>2021-11-21T15:04:29Z</time>
      </trkpt>
      <trkpt lat="49.13046" lon="7.07088">
        <ele>241.7</ele>
        <time>2021-11-21T15:04:36Z</time>
      </trkpt>
      <trkpt lat="49.13054" lon="7.07095">
        <ele>241.9</ele>
        <time>2021-11-21T15:04:43Z</time>
      </trkpt>
      <trkpt lat="49.13062" lon="7.07104">
        <ele>242.2</ele>
        <time>2021-11-21T15:04:51Z</time>
      </trkpt>
      <trkpt lat="49.1307" lon="7.07112">
        <ele>242.4</ele>
        <time>2021-11-21T15:04:58Z</time>
      </trkpt>
      <trkpt lat="49.13079" lon="7.07119">
        <ele>242.7</ele>
        <time>2021-11-21T15:05:06Z</time>
      </trkpt>
      <trkpt lat="49.13088" lon="7.07119">
        <ele>243</ele>
        <time>2021-11-21T15:05:14Z</time>
      </trkpt>
      <trkpt lat="49.13098" lon="7.0712">
        <ele>243.2</ele>
        <time>2021-11-21T15:05:22Z</time>
      </trkpt>
      <trkpt lat="49.13109" lon="7.0712">
        <ele>243.4</ele>
        <time>2021-11-21T15:05:28Z</time>
      </trkpt>
      <trkpt lat="49.13119" lon="7.07115">
        <ele>243.4</ele>
        <time>2021-11-21T15:05:33Z</time>
      </trkpt>
      <trkpt lat="49.13128" lon="7.07108">
        <ele>243.4</ele>
        <time>2021-11-21T15:05:42Z</time>
      </trkpt>
      <trkpt lat="49.13138" lon="7.07102">
        <ele>243.3</ele>
        <time>2021-11-21T15:05:47Z</time>
      </trkpt>
      <trkpt lat="49.13145" lon="7.07095">
        <ele>243.2</ele>
        <time>2021-11-21T15:05:53Z</time>
      </trkpt>
      <trkpt lat="49.13152" lon="7.07085">
        <ele>243.1</ele>
        <time>2021-11-21T15:06:00Z</time>
      </trkpt>
      <trkpt lat="49.13156" lon="7.07077">
        <ele>242.7</ele>
        <time>2021-11-21T15:06:09Z</time>
      </trkpt>
      <trkpt lat="49.13156" lon="7.07077">
        <ele>242.7</ele>
        <time>2021-11-21T15:06:11Z</time>
      </trkpt>
      <trkpt lat="49.13159" lon="7.07075">
        <ele>242.4</ele>
        <time>2021-11-21T15:06:16Z</time>
      </trkpt>
      <trkpt lat="49.13159" lon="7.07075">
        <ele>242.3</ele>
        <time>2021-11-21T15:06:17Z</time>
      </trkpt>
      <trkpt lat="49.13159" lon="7.07075">
        <ele>242.3</ele>
        <time>2021-11-21T15:06:19Z</time>
      </trkpt>
      <trkpt lat="49.1316" lon="7.07075">
        <ele>242.3</ele>
        <time>2021-11-21T15:06:26Z</time>
      </trkpt>
      <trkpt lat="49.13161" lon="7.07075">
        <ele>242.2</ele>
        <time>2021-11-21T15:06:30Z</time>
      </trkpt>
      <trkpt lat="49.13161" lon="7.07075">
        <ele>242.1</ele>
        <time>2021-11-21T15:06:31Z</time>
      </trkpt>
      <trkpt lat="49.13161" lon="7.07075">
        <ele>242.1</ele>
        <time>2021-11-21T15:06:32Z</time>
      </trkpt>
      <trkpt lat="49.13161" lon="7.07075">
        <ele>242.1</ele>
        <time>2021-11-21T15:06:36Z</time>
      </trkpt>
      <trkpt lat="49.13165" lon="7.07078">
        <ele>242.1</ele>
        <time>2021-11-21T15:06:49Z</time>
      </trkpt>
      <trkpt lat="49.13166" lon="7.07079">
        <ele>242.8</ele>
        <time>2021-11-21T15:06:51Z</time>
      </trkpt>
      <trkpt lat="49.13175" lon="7.07084">
        <ele>243.1</ele>
        <time>2021-11-21T15:07:00Z</time>
      </trkpt>
      <trkpt lat="49.1318" lon="7.07096">
        <ele>243.4</ele>
        <time>2021-11-21T15:07:09Z</time>
      </trkpt>
      <trkpt lat="49.13184" lon="7.0711">
        <ele>243.8</ele>
        <time>2021-11-21T15:07:17Z</time>
      </trkpt>
      <trkpt lat="49.1319" lon="7.07121">
        <ele>244.1</ele>
        <time>2021-11-21T15:07:27Z</time>
      </trkpt>
      <trkpt lat="49.13195" lon="7.07135">
        <ele>244.5</ele>
        <time>2021-11-21T15:07:37Z</time>
      </trkpt>
      <trkpt lat="49.13202" lon="7.07145">
        <ele>244.8</ele>
        <time>2021-11-21T15:07:46Z</time>
      </trkpt>
      <trkpt lat="49.13209" lon="7.07155">
        <ele>245</ele>
        <time>2021-11-21T15:07:52Z</time>
      </trkpt>
      <trkpt lat="49.13215" lon="7.07167">
        <ele>245.3</ele>
        <time>2021-11-21T15:07:58Z</time>
      </trkpt>
      <trkpt lat="49.13219" lon="7.0718">
        <ele>245.7</ele>
        <time>2021-11-21T15:08:06Z</time>
      </trkpt>
      <trkpt lat="49.13224" lon="7.07193">
        <ele>246.1</ele>
        <time>2021-11-21T15:08:13Z</time>
      </trkpt>
      <trkpt lat="49.13228" lon="7.07207">
        <ele>246.7</ele>
        <time>2021-11-21T15:08:21Z</time>
      </trkpt>
      <trkpt lat="49.13233" lon="7.07219">
        <ele>247.1</ele>
        <time>2021-11-21T15:08:29Z</time>
      </trkpt>
      <trkpt lat="49.13239" lon="7.07231">
        <ele>247.6</ele>
        <time>2021-11-21T15:08:38Z</time>
      </trkpt>
      <trkpt lat="49.13244" lon="7.07243">
        <ele>248</ele>
        <time>2021-11-21T15:08:44Z</time>
      </trkpt>
      <trkpt lat="49.1325" lon="7.07255">
        <ele>248.4</ele>
        <time>2021-11-21T15:08:53Z</time>
      </trkpt>
      <trkpt lat="49.13254" lon="7.07268">
        <ele>248.7</ele>
        <time>2021-11-21T15:09:00Z</time>
      </trkpt>
      <trkpt lat="49.13263" lon="7.07272">
        <ele>249.1</ele>
        <time>2021-11-21T15:09:11Z</time>
      </trkpt>
      <trkpt lat="49.13272" lon="7.07279">
        <ele>249.6</ele>
        <time>2021-11-21T15:09:20Z</time>
      </trkpt>
      <trkpt lat="49.13263" lon="7.07274">
        <ele>249.9</ele>
        <time>2021-11-21T15:09:34Z</time>
      </trkpt>
      <trkpt lat="49.13261" lon="7.07288">
        <ele>250.2</ele>
        <time>2021-11-21T15:09:48Z</time>
      </trkpt>
      <trkpt lat="49.13265" lon="7.07302">
        <ele>250.5</ele>
        <time>2021-11-21T15:09:58Z</time>
      </trkpt>
      <trkpt lat="49.13272" lon="7.07313">
        <ele>250.8</ele>
        <time>2021-11-21T15:10:06Z</time>
      </trkpt>
      <trkpt lat="49.13277" lon="7.07325">
        <ele>251</ele>
        <time>2021-11-21T15:10:14Z</time>
      </trkpt>
      <trkpt lat="49.13282" lon="7.07337">
        <ele>251.2</ele>
        <time>2021-11-21T15:10:22Z</time>
      </trkpt>
      <trkpt lat="49.13287" lon="7.0735">
        <ele>251.3</ele>
        <time>2021-11-21T15:10:30Z</time>
      </trkpt>
      <trkpt lat="49.13291" lon="7.07363">
        <ele>251.5</ele>
        <time>2021-11-21T15:10:37Z</time>
      </trkpt>
      <trkpt lat="49.13296" lon="7.07376">
        <ele>251.7</ele>
        <time>2021-11-21T15:10:43Z</time>
      </trkpt>
      <trkpt lat="49.13301" lon="7.07389">
        <ele>251.8</ele>
        <time>2021-11-21T15:10:51Z</time>
      </trkpt>
      <trkpt lat="49.13306" lon="7.074">
        <ele>251.9</ele>
        <time>2021-11-21T15:10:59Z</time>
      </trkpt>
      <trkpt lat="49.13312" lon="7.0741">
        <ele>252</ele>
        <time>2021-11-21T15:11:07Z</time>
      </trkpt>
      <trkpt lat="49.13319" lon="7.0742">
        <ele>252.1</ele>
        <time>2021-11-21T15:11:16Z</time>
      </trkpt>
      <trkpt lat="49.13326" lon="7.07431">
        <ele>252.2</ele>
        <time>2021-11-21T15:11:24Z</time>
      </trkpt>
      <trkpt lat="49.13333" lon="7.07441">
        <ele>252.4</ele>
        <time>2021-11-21T15:11:31Z</time>
      </trkpt>
      <trkpt lat="49.13342" lon="7.07438">
        <ele>253.5</ele>
        <time>2021-11-21T15:11:40Z</time>
      </trkpt>
      <trkpt lat="49.13351" lon="7.07434">
        <ele>253.9</ele>
        <time>2021-11-21T15:11:47Z</time>
      </trkpt>
      <trkpt lat="49.13359" lon="7.07427">
        <ele>254.3</ele>
        <time>2021-11-21T15:11:55Z</time>
      </trkpt>
      <trkpt lat="49.13368" lon="7.07421">
        <ele>254.7</ele>
        <time>2021-11-21T15:12:04Z</time>
      </trkpt>
      <trkpt lat="49.13376" lon="7.07413">
        <ele>255.2</ele>
        <time>2021-11-21T15:12:13Z</time>
      </trkpt>
      <trkpt lat="49.13385" lon="7.07404">
        <ele>255.6</ele>
        <time>2021-11-21T15:12:25Z</time>
      </trkpt>
      <trkpt lat="49.13393" lon="7.07396">
        <ele>256</ele>
        <time>2021-11-21T15:12:31Z</time>
      </trkpt>
      <trkpt lat="49.13402" lon="7.07392">
        <ele>256.3</ele>
        <time>2021-11-21T15:12:38Z</time>
      </trkpt>
      <trkpt lat="49.1341" lon="7.07381">
        <ele>256.6</ele>
        <time>2021-11-21T15:12:47Z</time>
      </trkpt>
      <trkpt lat="49.1342" lon="7.07376">
        <ele>256.9</ele>
        <time>2021-11-21T15:12:55Z</time>
      </trkpt>
      <trkpt lat="49.1343" lon="7.07371">
        <ele>257.2</ele>
        <time>2021-11-21T15:13:00Z</time>
      </trkpt>
      <trkpt lat="49.13439" lon="7.07365">
        <ele>257.4</ele>
        <time>2021-11-21T15:13:07Z</time>
      </trkpt>
      <trkpt lat="49.13447" lon="7.07357">
        <ele>257.5</ele>
        <time>2021-11-21T15:13:14Z</time>
      </trkpt>
      <trkpt lat="49.13455" lon="7.0735">
        <ele>257.6</ele>
        <time>2021-11-21T15:13:20Z</time>
      </trkpt>
      <trkpt lat="49.13464" lon="7.07347">
        <ele>257.8</ele>
        <time>2021-11-21T15:13:28Z</time>
      </trkpt>
      <trkpt lat="49.13471" lon="7.07337">
        <ele>258</ele>
        <time>2021-11-21T15:13:36Z</time>
      </trkpt>
      <trkpt lat="49.1348" lon="7.07332">
        <ele>258.4</ele>
        <time>2021-11-21T15:13:45Z</time>
      </trkpt>
      <trkpt lat="49.13488" lon="7.07325">
        <ele>258.8</ele>
        <time>2021-11-21T15:13:51Z</time>
      </trkpt>
      <trkpt lat="49.13497" lon="7.07318">
        <ele>259.2</ele>
        <time>2021-11-21T15:13:56Z</time>
      </trkpt>
      <trkpt lat="49.13505" lon="7.07312">
        <ele>259.5</ele>
        <time>2021-11-21T15:14:03Z</time>
      </trkpt>
      <trkpt lat="49.13513" lon="7.07306">
        <ele>260</ele>
        <time>2021-11-21T15:14:10Z</time>
      </trkpt>
      <trkpt lat="49.13521" lon="7.073">
        <ele>260.4</ele>
        <time>2021-11-21T15:14:16Z</time>
      </trkpt>
      <trkpt lat="49.1353" lon="7.07293">
        <ele>261</ele>
        <time>2021-11-21T15:14:23Z</time>
      </trkpt>
      <trkpt lat="49.13538" lon="7.07286">
        <ele>261.5</ele>
        <time>2021-11-21T15:14:30Z</time>
      </trkpt>
      <trkpt lat="49.13546" lon="7.07279">
        <ele>262.1</ele>
        <time>2021-11-21T15:14:36Z</time>
      </trkpt>
      <trkpt lat="49.13554" lon="7.07272">
        <ele>262.6</ele>
        <time>2021-11-21T15:14:43Z</time>
      </trkpt>
      <trkpt lat="49.13563" lon="7.07266">
        <ele>263</ele>
        <time>2021-11-21T15:14:50Z</time>
      </trkpt>
      <trkpt lat="49.13573" lon="7.07266">
        <ele>263.4</ele>
        <time>2021-11-21T15:15:00Z</time>
      </trkpt>
      <trkpt lat="49.13582" lon="7.07268">
        <ele>263.7</ele>
        <time>2021-11-21T15:15:07Z</time>
      </trkpt>
      <trkpt lat="49.13591" lon="7.07263">
        <ele>264.1</ele>
        <time>2021-11-21T15:15:15Z</time>
      </trkpt>
      <trkpt lat="49.13599" lon="7.07271">
        <ele>264.2</ele>
        <time>2021-11-21T15:15:22Z</time>
      </trkpt>
      <trkpt lat="49.13604" lon="7.07284">
        <ele>264.3</ele>
        <time>2021-11-21T15:15:29Z</time>
      </trkpt>
      <trkpt lat="49.13608" lon="7.07296">
        <ele>264.4</ele>
        <time>2021-11-21T15:15:36Z</time>
      </trkpt>
      <trkpt lat="49.13613" lon="7.07309">
        <ele>264.5</ele>
        <time>2021-11-21T15:15:44Z</time>
      </trkpt>
      <trkpt lat="49.13618" lon="7.07322">
        <ele>264.6</ele>
        <time>2021-11-21T15:15:53Z</time>
      </trkpt>
      <trkpt lat="49.13622" lon="7.07334">
        <ele>264.6</ele>
        <time>2021-11-21T15:16:01Z</time>
      </trkpt>
      <trkpt lat="49.13626" lon="7.07347">
        <ele>264.7</ele>
        <time>2021-11-21T15:16:09Z</time>
      </trkpt>
      <trkpt lat="49.13631" lon="7.0736">
        <ele>264.9</ele>
        <time>2021-11-21T15:16:17Z</time>
      </trkpt>
      <trkpt lat="49.13638" lon="7.07372">
        <ele>265</ele>
        <time>2021-11-21T15:16:24Z</time>
      </trkpt>
      <trkpt lat="49.13643" lon="7.07385">
        <ele>265.1</ele>
        <time>2021-11-21T15:16:30Z</time>
      </trkpt>
      <trkpt lat="49.13648" lon="7.07399">
        <ele>265.3</ele>
        <time>2021-11-21T15:16:37Z</time>
      </trkpt>
      <trkpt lat="49.13654" lon="7.0741">
        <ele>265.5</ele>
        <time>2021-11-21T15:16:44Z</time>
      </trkpt>
      <trkpt lat="49.1366" lon="7.07421">
        <ele>265.7</ele>
        <time>2021-11-21T15:16:51Z</time>
      </trkpt>
      <trkpt lat="49.13664" lon="7.07435">
        <ele>265.9</ele>
        <time>2021-11-21T15:16:59Z</time>
      </trkpt>
      <trkpt lat="49.13668" lon="7.07448">
        <ele>266.1</ele>
        <time>2021-11-21T15:17:08Z</time>
      </trkpt>
      <trkpt lat="49.13674" lon="7.07459">
        <ele>266.2</ele>
        <time>2021-11-21T15:17:15Z</time>
      </trkpt>
      <trkpt lat="49.13681" lon="7.07468">
        <ele>266.3</ele>
        <time>2021-11-21T15:17:20Z</time>
      </trkpt>
      <trkpt lat="49.1369" lon="7.07476">
        <ele>266.5</ele>
        <time>2021-11-21T15:17:25Z</time>
      </trkpt>
      <trkpt lat="49.13698" lon="7.07483">
        <ele>266.7</ele>
        <time>2021-11-21T15:17:32Z</time>
      </trkpt>
      <trkpt lat="49.13708" lon="7.07485">
        <ele>267.1</ele>
        <time>2021-11-21T15:17:38Z</time>
      </trkpt>
      <trkpt lat="49.13713" lon="7.07488">
        <ele>267.3</ele>
        <time>2021-11-21T15:17:43Z</time>
      </trkpt>
      <trkpt lat="49.13713" lon="7.07488">
        <ele>267.3</ele>
        <time>2021-11-21T15:17:48Z</time>
      </trkpt>
      <trkpt lat="49.1372" lon="7.07497">
        <ele>267.6</ele>
        <time>2021-11-21T15:17:58Z</time>
      </trkpt>
      <trkpt lat="49.13728" lon="7.07504">
        <ele>267.9</ele>
        <time>2021-11-21T15:18:06Z</time>
      </trkpt>
      <trkpt lat="49.13735" lon="7.07513">
        <ele>268.2</ele>
        <time>2021-11-21T15:18:14Z</time>
      </trkpt>
      <trkpt lat="49.13743" lon="7.07524">
        <ele>268.4</ele>
        <time>2021-11-21T15:18:20Z</time>
      </trkpt>
      <trkpt lat="49.1375" lon="7.07536">
        <ele>268.6</ele>
        <time>2021-11-21T15:18:27Z</time>
      </trkpt>
      <trkpt lat="49.13756" lon="7.07547">
        <ele>268.8</ele>
        <time>2021-11-21T15:18:35Z</time>
      </trkpt>
      <trkpt lat="49.13764" lon="7.07556">
        <ele>269.1</ele>
        <time>2021-11-21T15:18:42Z</time>
      </trkpt>
      <trkpt lat="49.13771" lon="7.07564">
        <ele>269.3</ele>
        <time>2021-11-21T15:18:50Z</time>
      </trkpt>
      <trkpt lat="49.13779" lon="7.07571">
        <ele>269.6</ele>
        <time>2021-11-21T15:18:57Z</time>
      </trkpt>
      <trkpt lat="49.13787" lon="7.07579">
        <ele>269.9</ele>
        <time>2021-11-21T15:19:04Z</time>
      </trkpt>
      <trkpt lat="49.13794" lon="7.07587">
        <ele>270.2</ele>
        <time>2021-11-21T15:19:11Z</time>
      </trkpt>
      <trkpt lat="49.13802" lon="7.07596">
        <ele>270.6</ele>
        <time>2021-11-21T15:19:19Z</time>
      </trkpt>
      <trkpt lat="49.1381" lon="7.07606">
        <ele>271.1</ele>
        <time>2021-11-21T15:19:27Z</time>
      </trkpt>
      <trkpt lat="49.13818" lon="7.07615">
        <ele>271.5</ele>
        <time>2021-11-21T15:19:34Z</time>
      </trkpt>
      <trkpt lat="49.13827" lon="7.07623">
        <ele>272</ele>
        <time>2021-11-21T15:19:41Z</time>
      </trkpt>
      <trkpt lat="49.13836" lon="7.07628">
        <ele>272.6</ele>
        <time>2021-11-21T15:19:48Z</time>
      </trkpt>
      <trkpt lat="49.13845" lon="7.07633">
        <ele>273.1</ele>
        <time>2021-11-21T15:19:57Z</time>
      </trkpt>
      <trkpt lat="49.13854" lon="7.07637">
        <ele>273.6</ele>
        <time>2021-11-21T15:20:05Z</time>
      </trkpt>
      <trkpt lat="49.13864" lon="7.07639">
        <ele>274.1</ele>
        <time>2021-11-21T15:20:11Z</time>
      </trkpt>
      <trkpt lat="49.13873" lon="7.07639">
        <ele>274.7</ele>
        <time>2021-11-21T15:20:17Z</time>
      </trkpt>
      <trkpt lat="49.13882" lon="7.07639">
        <ele>275.3</ele>
        <time>2021-11-21T15:20:25Z</time>
      </trkpt>
      <trkpt lat="49.13892" lon="7.07639">
        <ele>275.9</ele>
        <time>2021-11-21T15:20:32Z</time>
      </trkpt>
      <trkpt lat="49.13902" lon="7.07634">
        <ele>276.6</ele>
        <time>2021-11-21T15:20:41Z</time>
      </trkpt>
      <trkpt lat="49.13912" lon="7.07636">
        <ele>277.2</ele>
        <time>2021-11-21T15:20:49Z</time>
      </trkpt>
      <trkpt lat="49.13921" lon="7.07643">
        <ele>277.7</ele>
        <time>2021-11-21T15:20:55Z</time>
      </trkpt>
      <trkpt lat="49.1393" lon="7.07652">
        <ele>278.2</ele>
        <time>2021-11-21T15:21:01Z</time>
      </trkpt>
      <trkpt lat="49.13937" lon="7.07661">
        <ele>278.5</ele>
        <time>2021-11-21T15:21:09Z</time>
      </trkpt>
      <trkpt lat="49.13944" lon="7.07671">
        <ele>278.7</ele>
        <time>2021-11-21T15:21:16Z</time>
      </trkpt>
      <trkpt lat="49.13951" lon="7.07683">
        <ele>278.9</ele>
        <time>2021-11-21T15:21:24Z</time>
      </trkpt>
      <trkpt lat="49.13958" lon="7.07695">
        <ele>279</ele>
        <time>2021-11-21T15:21:33Z</time>
      </trkpt>
      <trkpt lat="49.13965" lon="7.07704">
        <ele>279</ele>
        <time>2021-11-21T15:21:39Z</time>
      </trkpt>
      <trkpt lat="49.13974" lon="7.07712">
        <ele>279</ele>
        <time>2021-11-21T15:21:45Z</time>
      </trkpt>
      <trkpt lat="49.13981" lon="7.07723">
        <ele>279</ele>
        <time>2021-11-21T15:21:54Z</time>
      </trkpt>
      <trkpt lat="49.13989" lon="7.07734">
        <ele>278.8</ele>
        <time>2021-11-21T15:22:03Z</time>
      </trkpt>
      <trkpt lat="49.13998" lon="7.0774">
        <ele>278.6</ele>
        <time>2021-11-21T15:22:09Z</time>
      </trkpt>
      <trkpt lat="49.14003" lon="7.07753">
        <ele>278.4</ele>
        <time>2021-11-21T15:22:17Z</time>
      </trkpt>
      <trkpt lat="49.14007" lon="7.07766">
        <ele>278.1</ele>
        <time>2021-11-21T15:22:26Z</time>
      </trkpt>
      <trkpt lat="49.14012" lon="7.07778">
        <ele>277.7</ele>
        <time>2021-11-21T15:22:34Z</time>
      </trkpt>
      <trkpt lat="49.14019" lon="7.07789">
        <ele>277.3</ele>
        <time>2021-11-21T15:22:42Z</time>
      </trkpt>
      <trkpt lat="49.14021" lon="7.07803">
        <ele>277</ele>
        <time>2021-11-21T15:22:50Z</time>
      </trkpt>
      <trkpt lat="49.14027" lon="7.07814">
        <ele>276.6</ele>
        <time>2021-11-21T15:22:58Z</time>
      </trkpt>
      <trkpt lat="49.14034" lon="7.07824">
        <ele>276.2</ele>
        <time>2021-11-21T15:23:05Z</time>
      </trkpt>
      <trkpt lat="49.14038" lon="7.07836">
        <ele>275.7</ele>
        <time>2021-11-21T15:23:12Z</time>
      </trkpt>
      <trkpt lat="49.14041" lon="7.0785">
        <ele>275.2</ele>
        <time>2021-11-21T15:23:20Z</time>
      </trkpt>
      <trkpt lat="49.14047" lon="7.0786">
        <ele>274.5</ele>
        <time>2021-11-21T15:23:27Z</time>
      </trkpt>
      <trkpt lat="49.14053" lon="7.07872">
        <ele>273.7</ele>
        <time>2021-11-21T15:23:34Z</time>
      </trkpt>
      <trkpt lat="49.14061" lon="7.0788">
        <ele>272.8</ele>
        <time>2021-11-21T15:23:41Z</time>
      </trkpt>
      <trkpt lat="49.14068" lon="7.07889">
        <ele>272.1</ele>
        <time>2021-11-21T15:23:49Z</time>
      </trkpt>
      <trkpt lat="49.14077" lon="7.07897">
        <ele>271.5</ele>
        <time>2021-11-21T15:23:56Z</time>
      </trkpt>
      <trkpt lat="49.14086" lon="7.07894">
        <ele>271.2</ele>
        <time>2021-11-21T15:24:05Z</time>
      </trkpt>
      <trkpt lat="49.14095" lon="7.07887">
        <ele>271.1</ele>
        <time>2021-11-21T15:24:14Z</time>
      </trkpt>
      <trkpt lat="49.14104" lon="7.0788">
        <ele>271.3</ele>
        <time>2021-11-21T15:24:21Z</time>
      </trkpt>
      <trkpt lat="49.14113" lon="7.07877">
        <ele>271.7</ele>
        <time>2021-11-21T15:24:27Z</time>
      </trkpt>
      <trkpt lat="49.14123" lon="7.07872">
        <ele>272.1</ele>
        <time>2021-11-21T15:24:34Z</time>
      </trkpt>
      <trkpt lat="49.14131" lon="7.07866">
        <ele>272.6</ele>
        <time>2021-11-21T15:24:40Z</time>
      </trkpt>
      <trkpt lat="49.1414" lon="7.0786">
        <ele>273.1</ele>
        <time>2021-11-21T15:24:48Z</time>
      </trkpt>
      <trkpt lat="49.14148" lon="7.07852">
        <ele>273.5</ele>
        <time>2021-11-21T15:24:56Z</time>
      </trkpt>
      <trkpt lat="49.14157" lon="7.07844">
        <ele>273.9</ele>
        <time>2021-11-21T15:25:04Z</time>
      </trkpt>
      <trkpt lat="49.14165" lon="7.07837">
        <ele>274.1</ele>
        <time>2021-11-21T15:25:11Z</time>
      </trkpt>
      <trkpt lat="49.14173" lon="7.07832">
        <ele>274.2</ele>
        <time>2021-11-21T15:25:18Z</time>
      </trkpt>
      <trkpt lat="49.14182" lon="7.07828">
        <ele>274.2</ele>
        <time>2021-11-21T15:25:25Z</time>
      </trkpt>
      <trkpt lat="49.14192" lon="7.07823">
        <ele>274.1</ele>
        <time>2021-11-21T15:25:33Z</time>
      </trkpt>
      <trkpt lat="49.14201" lon="7.07819">
        <ele>273.9</ele>
        <time>2021-11-21T15:25:42Z</time>
      </trkpt>
      <trkpt lat="49.1421" lon="7.07816">
        <ele>273.8</ele>
        <time>2021-11-21T15:25:49Z</time>
      </trkpt>
      <trkpt lat="49.1422" lon="7.07811">
        <ele>273.7</ele>
        <time>2021-11-21T15:25:57Z</time>
      </trkpt>
      <trkpt lat="49.1423" lon="7.07808">
        <ele>273.7</ele>
        <time>2021-11-21T15:26:06Z</time>
      </trkpt>
      <trkpt lat="49.1424" lon="7.07804">
        <ele>273.6</ele>
        <time>2021-11-21T15:26:15Z</time>
      </trkpt>
      <trkpt lat="49.1425" lon="7.07802">
        <ele>273.6</ele>
        <time>2021-11-21T15:26:22Z</time>
      </trkpt>
      <trkpt lat="49.14259" lon="7.07798">
        <ele>273.7</ele>
        <time>2021-11-21T15:26:29Z</time>
      </trkpt>
      <trkpt lat="49.14268" lon="7.07793">
        <ele>273.7</ele>
        <time>2021-11-21T15:26:35Z</time>
      </trkpt>
      <trkpt lat="49.14276" lon="7.07787">
        <ele>273.8</ele>
        <time>2021-11-21T15:26:46Z</time>
      </trkpt>
      <trkpt lat="49.14285" lon="7.0778">
        <ele>273.9</ele>
        <time>2021-11-21T15:26:53Z</time>
      </trkpt>
      <trkpt lat="49.14295" lon="7.07776">
        <ele>274</ele>
        <time>2021-11-21T15:27:02Z</time>
      </trkpt>
      <trkpt lat="49.14305" lon="7.07774">
        <ele>274</ele>
        <time>2021-11-21T15:27:11Z</time>
      </trkpt>
      <trkpt lat="49.14315" lon="7.07774">
        <ele>273.9</ele>
        <time>2021-11-21T15:27:18Z</time>
      </trkpt>
      <trkpt lat="49.14324" lon="7.07769">
        <ele>273.7</ele>
        <time>2021-11-21T15:27:26Z</time>
      </trkpt>
      <trkpt lat="49.14333" lon="7.07764">
        <ele>273.4</ele>
        <time>2021-11-21T15:27:34Z</time>
      </trkpt>
      <trkpt lat="49.14342" lon="7.07758">
        <ele>272.9</ele>
        <time>2021-11-21T15:27:42Z</time>
      </trkpt>
      <trkpt lat="49.14351" lon="7.07756">
        <ele>272.4</ele>
        <time>2021-11-21T15:27:51Z</time>
      </trkpt>
      <trkpt lat="49.1436" lon="7.07757">
        <ele>271.7</ele>
        <time>2021-11-21T15:27:57Z</time>
      </trkpt>
      <trkpt lat="49.1437" lon="7.07756">
        <ele>271.1</ele>
        <time>2021-11-21T15:28:02Z</time>
      </trkpt>
      <trkpt lat="49.14378" lon="7.07753">
        <ele>270.4</ele>
        <time>2021-11-21T15:28:11Z</time>
      </trkpt>
      <trkpt lat="49.14389" lon="7.07752">
        <ele>269.8</ele>
        <time>2021-11-21T15:28:19Z</time>
      </trkpt>
      <trkpt lat="49.14399" lon="7.07752">
        <ele>269.3</ele>
        <time>2021-11-21T15:28:24Z</time>
      </trkpt>
      <trkpt lat="49.14408" lon="7.07752">
        <ele>268.9</ele>
        <time>2021-11-21T15:28:32Z</time>
      </trkpt>
      <trkpt lat="49.14417" lon="7.07753">
        <ele>268.5</ele>
        <time>2021-11-21T15:28:40Z</time>
      </trkpt>
      <trkpt lat="49.14426" lon="7.0775">
        <ele>268.2</ele>
        <time>2021-11-21T15:28:46Z</time>
      </trkpt>
      <trkpt lat="49.14436" lon="7.07751">
        <ele>267.9</ele>
        <time>2021-11-21T15:28:55Z</time>
      </trkpt>
      <trkpt lat="49.14446" lon="7.07747">
        <ele>267.8</ele>
        <time>2021-11-21T15:29:02Z</time>
      </trkpt>
      <trkpt lat="49.14455" lon="7.07748">
        <ele>267.7</ele>
        <time>2021-11-21T15:29:10Z</time>
      </trkpt>
      <trkpt lat="49.14464" lon="7.07749">
        <ele>267.6</ele>
        <time>2021-11-21T15:29:16Z</time>
      </trkpt>
      <trkpt lat="49.14474" lon="7.07751">
        <ele>267.5</ele>
        <time>2021-11-21T15:29:23Z</time>
      </trkpt>
      <trkpt lat="49.14483" lon="7.07756">
        <ele>267.4</ele>
        <time>2021-11-21T15:29:30Z</time>
      </trkpt>
      <trkpt lat="49.14494" lon="7.07753">
        <ele>267.2</ele>
        <time>2021-11-21T15:29:39Z</time>
      </trkpt>
      <trkpt lat="49.14504" lon="7.07751">
        <ele>266.9</ele>
        <time>2021-11-21T15:29:44Z</time>
      </trkpt>
      <trkpt lat="49.14513" lon="7.07748">
        <ele>266.6</ele>
        <time>2021-11-21T15:29:52Z</time>
      </trkpt>
      <trkpt lat="49.14522" lon="7.07746">
        <ele>266.3</ele>
        <time>2021-11-21T15:30:00Z</time>
      </trkpt>
      <trkpt lat="49.14531" lon="7.07742">
        <ele>265.9</ele>
        <time>2021-11-21T15:30:07Z</time>
      </trkpt>
      <trkpt lat="49.1454" lon="7.0774">
        <ele>265.7</ele>
        <time>2021-11-21T15:30:17Z</time>
      </trkpt>
      <trkpt lat="49.1455" lon="7.07739">
        <ele>265.4</ele>
        <time>2021-11-21T15:30:26Z</time>
      </trkpt>
      <trkpt lat="49.1456" lon="7.07736">
        <ele>265.2</ele>
        <time>2021-11-21T15:30:33Z</time>
      </trkpt>
      <trkpt lat="49.14569" lon="7.07736">
        <ele>265</ele>
        <time>2021-11-21T15:30:41Z</time>
      </trkpt>
      <trkpt lat="49.14579" lon="7.07734">
        <ele>264.9</ele>
        <time>2021-11-21T15:30:48Z</time>
      </trkpt>
      <trkpt lat="49.14588" lon="7.07729">
        <ele>264.8</ele>
        <time>2021-11-21T15:30:54Z</time>
      </trkpt>
      <trkpt lat="49.14597" lon="7.07724">
        <ele>264.8</ele>
        <time>2021-11-21T15:31:02Z</time>
      </trkpt>
      <trkpt lat="49.14606" lon="7.07721">
        <ele>264.8</ele>
        <time>2021-11-21T15:31:13Z</time>
      </trkpt>
      <trkpt lat="49.14615" lon="7.07719">
        <ele>264.9</ele>
        <time>2021-11-21T15:31:19Z</time>
      </trkpt>
      <trkpt lat="49.14624" lon="7.07718">
        <ele>265.1</ele>
        <time>2021-11-21T15:31:27Z</time>
      </trkpt>
      <trkpt lat="49.14633" lon="7.07713">
        <ele>265.5</ele>
        <time>2021-11-21T15:31:34Z</time>
      </trkpt>
      <trkpt lat="49.14632" lon="7.07698">
        <ele>268.7</ele>
        <time>2021-11-21T15:31:44Z</time>
      </trkpt>
      <trkpt lat="49.14628" lon="7.07686">
        <ele>271.2</ele>
        <time>2021-11-21T15:31:52Z</time>
      </trkpt>
      <trkpt lat="49.14627" lon="7.0767">
        <ele>273.6</ele>
        <time>2021-11-21T15:31:59Z</time>
      </trkpt>
      <trkpt lat="49.14626" lon="7.07656">
        <ele>275.8</ele>
        <time>2021-11-21T15:32:08Z</time>
      </trkpt>
      <trkpt lat="49.14631" lon="7.07643">
        <ele>278</ele>
        <time>2021-11-21T15:32:18Z</time>
      </trkpt>
      <trkpt lat="49.14634" lon="7.0763">
        <ele>280.1</ele>
        <time>2021-11-21T15:32:26Z</time>
      </trkpt>
      <trkpt lat="49.14637" lon="7.07616">
        <ele>282.4</ele>
        <time>2021-11-21T15:32:42Z</time>
      </trkpt>
      <trkpt lat="49.14637" lon="7.07619">
        <ele>282.9</ele>
        <time>2021-11-21T15:32:50Z</time>
      </trkpt>
      <trkpt lat="49.14637" lon="7.0762">
        <ele>283.1</ele>
        <time>2021-11-21T15:32:51Z</time>
      </trkpt>
      <trkpt lat="49.14636" lon="7.07621">
        <ele>283.3</ele>
        <time>2021-11-21T15:32:54Z</time>
      </trkpt>
      <trkpt lat="49.14636" lon="7.07621">
        <ele>283.4</ele>
        <time>2021-11-21T15:32:55Z</time>
      </trkpt>
      <trkpt lat="49.14636" lon="7.07621">
        <ele>283.4</ele>
        <time>2021-11-21T15:32:57Z</time>
      </trkpt>
      <trkpt lat="49.14636" lon="7.07621">
        <ele>283.5</ele>
        <time>2021-11-21T15:32:59Z</time>
      </trkpt>
      <trkpt lat="49.14636" lon="7.07621">
        <ele>283.5</ele>
        <time>2021-11-21T15:33:00Z</time>
      </trkpt>
      <trkpt lat="49.14636" lon="7.07621">
        <ele>283.6</ele>
        <time>2021-11-21T15:33:03Z</time>
      </trkpt>
      <trkpt lat="49.14633" lon="7.07607">
        <ele>285.8</ele>
        <time>2021-11-21T15:33:13Z</time>
      </trkpt>
      <trkpt lat="49.14628" lon="7.07595">
        <ele>287.7</ele>
        <time>2021-11-21T15:33:30Z</time>
      </trkpt>
      <trkpt lat="49.14624" lon="7.07581">
        <ele>289.6</ele>
        <time>2021-11-21T15:33:40Z</time>
      </trkpt>
      <trkpt lat="49.14616" lon="7.07572">
        <ele>291.6</ele>
        <time>2021-11-21T15:33:50Z</time>
      </trkpt>
      <trkpt lat="49.14608" lon="7.07565">
        <ele>293.7</ele>
        <time>2021-11-21T15:34:00Z</time>
      </trkpt>
      <trkpt lat="49.14604" lon="7.07552">
        <ele>295.7</ele>
        <time>2021-11-21T15:34:09Z</time>
      </trkpt>
      <trkpt lat="49.14601" lon="7.07539">
        <ele>297.6</ele>
        <time>2021-11-21T15:34:21Z</time>
      </trkpt>
      <trkpt lat="49.14605" lon="7.07526">
        <ele>299.5</ele>
        <time>2021-11-21T15:34:31Z</time>
      </trkpt>
      <trkpt lat="49.1461" lon="7.07514">
        <ele>301.4</ele>
        <time>2021-11-21T15:34:40Z</time>
      </trkpt>
      <trkpt lat="49.14612" lon="7.075">
        <ele>303.3</ele>
        <time>2021-11-21T15:34:49Z</time>
      </trkpt>
      <trkpt lat="49.14617" lon="7.07489">
        <ele>304.9</ele>
        <time>2021-11-21T15:35:00Z</time>
      </trkpt>
      <trkpt lat="49.1462" lon="7.07475">
        <ele>306.3</ele>
        <time>2021-11-21T15:35:09Z</time>
      </trkpt>
      <trkpt lat="49.14622" lon="7.07461">
        <ele>307.4</ele>
        <time>2021-11-21T15:35:18Z</time>
      </trkpt>
      <trkpt lat="49.14624" lon="7.07447">
        <ele>308.2</ele>
        <time>2021-11-21T15:35:28Z</time>
      </trkpt>
      <trkpt lat="49.14622" lon="7.07432">
        <ele>308.6</ele>
        <time>2021-11-21T15:35:35Z</time>
      </trkpt>
      <trkpt lat="49.14629" lon="7.07425">
        <ele>309</ele>
        <time>2021-11-21T15:35:44Z</time>
      </trkpt>
      <trkpt lat="49.14632" lon="7.07423">
        <ele>309.1</ele>
        <time>2021-11-21T15:35:50Z</time>
      </trkpt>
      <trkpt lat="49.14632" lon="7.07423">
        <ele>309.1</ele>
        <time>2021-11-21T15:36:17Z</time>
      </trkpt>
      <trkpt lat="49.14632" lon="7.07423">
        <ele>309.1</ele>
        <time>2021-11-21T15:36:18Z</time>
      </trkpt>
      <trkpt lat="49.14632" lon="7.07423">
        <ele>309.2</ele>
        <time>2021-11-21T15:36:38Z</time>
      </trkpt>
      <trkpt lat="49.14632" lon="7.07423">
        <ele>309.2</ele>
        <time>2021-11-21T15:36:39Z</time>
      </trkpt>
      <trkpt lat="49.14632" lon="7.07423">
        <ele>309.2</ele>
        <time>2021-11-21T15:36:58Z</time>
      </trkpt>
      <trkpt lat="49.14632" lon="7.07423">
        <ele>309.2</ele>
        <time>2021-11-21T15:36:59Z</time>
      </trkpt>
      <trkpt lat="49.14633" lon="7.07423">
        <ele>309.2</ele>
        <time>2021-11-21T15:37:55Z</time>
      </trkpt>
      <trkpt lat="49.14634" lon="7.07422">
        <ele>309.2</ele>
        <time>2021-11-21T15:37:57Z</time>
      </trkpt>
      <trkpt lat="49.14634" lon="7.07422">
        <ele>309.2</ele>
        <time>2021-11-21T15:38:03Z</time>
      </trkpt>
      <trkpt lat="49.14634" lon="7.07422">
        <ele>309.2</ele>
        <time>2021-11-21T15:38:04Z</time>
      </trkpt>
      <trkpt lat="49.14634" lon="7.07422">
        <ele>309.2</ele>
        <time>2021-11-21T15:38:57Z</time>
      </trkpt>
      <trkpt lat="49.14634" lon="7.07422">
        <ele>309.2</ele>
        <time>2021-11-21T15:38:58Z</time>
      </trkpt>
      <trkpt lat="49.14634" lon="7.07422">
        <ele>309.2</ele>
        <time>2021-11-21T15:39:22Z</time>
      </trkpt>
      <trkpt lat="49.14634" lon="7.07422">
        <ele>309.2</ele>
        <time>2021-11-21T15:39:23Z</time>
      </trkpt>
      <trkpt lat="49.14634" lon="7.07422">
        <ele>309.3</ele>
        <time>2021-11-21T15:39:27Z</time>
      </trkpt>
      <trkpt lat="49.14634" lon="7.07422">
        <ele>309.3</ele>
        <time>2021-11-21T15:39:28Z</time>
      </trkpt>
      <trkpt lat="49.14635" lon="7.07422">
        <ele>309.3</ele>
        <time>2021-11-21T15:39:39Z</time>
      </trkpt>
      <trkpt lat="49.14643" lon="7.07417">
        <ele>309.6</ele>
        <time>2021-11-21T15:39:48Z</time>
      </trkpt>
      <trkpt lat="49.14651" lon="7.0741">
        <ele>309.9</ele>
        <time>2021-11-21T15:39:57Z</time>
      </trkpt>
      <trkpt lat="49.1466" lon="7.07405">
        <ele>310.3</ele>
        <time>2021-11-21T15:40:11Z</time>
      </trkpt>
      <trkpt lat="49.14668" lon="7.07401">
        <ele>310.6</ele>
        <time>2021-11-21T15:40:18Z</time>
      </trkpt>
      <trkpt lat="49.14677" lon="7.07395">
        <ele>311.1</ele>
        <time>2021-11-21T15:40:27Z</time>
      </trkpt>
      <trkpt lat="49.14686" lon="7.07387">
        <ele>311.5</ele>
        <time>2021-11-21T15:40:36Z</time>
      </trkpt>
      <trkpt lat="49.14693" lon="7.07378">
        <ele>312</ele>
        <time>2021-11-21T15:40:44Z</time>
      </trkpt>
      <trkpt lat="49.14699" lon="7.07366">
        <ele>312.4</ele>
        <time>2021-11-21T15:40:53Z</time>
      </trkpt>
      <trkpt lat="49.14707" lon="7.07358">
        <ele>312.6</ele>
        <time>2021-11-21T15:41:02Z</time>
      </trkpt>
      <trkpt lat="49.14715" lon="7.0735">
        <ele>312.8</ele>
        <time>2021-11-21T15:41:12Z</time>
      </trkpt>
      <trkpt lat="49.14724" lon="7.07345">
        <ele>312.8</ele>
        <time>2021-11-21T15:41:20Z</time>
      </trkpt>
      <trkpt lat="49.14733" lon="7.0734">
        <ele>312.9</ele>
        <time>2021-11-21T15:41:29Z</time>
      </trkpt>
      <trkpt lat="49.14741" lon="7.07334">
        <ele>313</ele>
        <time>2021-11-21T15:41:38Z</time>
      </trkpt>
      <trkpt lat="49.14746" lon="7.07332">
        <ele>313</ele>
        <time>2021-11-21T15:41:47Z</time>
      </trkpt>
      <trkpt lat="49.14746" lon="7.07332">
        <ele>313</ele>
        <time>2021-11-21T15:42:07Z</time>
      </trkpt>
      <trkpt lat="49.14746" lon="7.07332">
        <ele>313</ele>
        <time>2021-11-21T15:42:09Z</time>
      </trkpt>
      <trkpt lat="49.14746" lon="7.07332">
        <ele>313</ele>
        <time>2021-11-21T15:42:27Z</time>
      </trkpt>
      <trkpt lat="49.14752" lon="7.07329">
        <ele>313.1</ele>
        <time>2021-11-21T15:42:38Z</time>
      </trkpt>
      <trkpt lat="49.14752" lon="7.07329">
        <ele>313.1</ele>
        <time>2021-11-21T15:43:05Z</time>
      </trkpt>
      <trkpt lat="49.1476" lon="7.07322">
        <ele>313.2</ele>
        <time>2021-11-21T15:43:14Z</time>
      </trkpt>
      <trkpt lat="49.14769" lon="7.07315">
        <ele>313.4</ele>
        <time>2021-11-21T15:43:23Z</time>
      </trkpt>
      <trkpt lat="49.14776" lon="7.07307">
        <ele>313.5</ele>
        <time>2021-11-21T15:43:33Z</time>
      </trkpt>
      <trkpt lat="49.14785" lon="7.073">
        <ele>313.7</ele>
        <time>2021-11-21T15:43:43Z</time>
      </trkpt>
      <trkpt lat="49.14793" lon="7.07295">
        <ele>313.9</ele>
        <time>2021-11-21T15:43:52Z</time>
      </trkpt>
      <trkpt lat="49.14801" lon="7.07287">
        <ele>314.1</ele>
        <time>2021-11-21T15:44:01Z</time>
      </trkpt>
      <trkpt lat="49.14804" lon="7.07285">
        <ele>314.1</ele>
        <time>2021-11-21T15:44:06Z</time>
      </trkpt>
      <trkpt lat="49.14804" lon="7.07285">
        <ele>314.1</ele>
        <time>2021-11-21T15:44:08Z</time>
      </trkpt>
      <trkpt lat="49.14804" lon="7.07285">
        <ele>314.1</ele>
        <time>2021-11-21T15:44:09Z</time>
      </trkpt>
      <trkpt lat="49.14804" lon="7.07285">
        <ele>314.1</ele>
        <time>2021-11-21T15:44:11Z</time>
      </trkpt>
      <trkpt lat="49.14805" lon="7.07285">
        <ele>314.1</ele>
        <time>2021-11-21T15:44:14Z</time>
      </trkpt>
      <trkpt lat="49.14805" lon="7.07285">
        <ele>314.1</ele>
        <time>2021-11-21T15:44:27Z</time>
      </trkpt>
      <trkpt lat="49.14805" lon="7.07285">
        <ele>314.1</ele>
        <time>2021-11-21T15:44:28Z</time>
      </trkpt>
      <trkpt lat="49.14805" lon="7.07286">
        <ele>314.1</ele>
        <time>2021-11-21T15:44:29Z</time>
      </trkpt>
      <trkpt lat="49.14805" lon="7.07286">
        <ele>314.1</ele>
        <time>2021-11-21T15:44:30Z</time>
      </trkpt>
      <trkpt lat="49.14805" lon="7.07286">
        <ele>314.2</ele>
        <time>2021-11-21T15:44:31Z</time>
      </trkpt>
      <trkpt lat="49.14805" lon="7.07286">
        <ele>314.2</ele>
        <time>2021-11-21T15:44:32Z</time>
      </trkpt>
      <trkpt lat="49.14805" lon="7.07286">
        <ele>314.2</ele>
        <time>2021-11-21T15:44:34Z</time>
      </trkpt>
      <trkpt lat="49.14806" lon="7.07286">
        <ele>314.2</ele>
        <time>2021-11-21T15:44:36Z</time>
      </trkpt>
      <trkpt lat="49.14805" lon="7.07286">
        <ele>314.2</ele>
        <time>2021-11-21T15:44:53Z</time>
      </trkpt>
      <trkpt lat="49.14805" lon="7.07286">
        <ele>314.2</ele>
        <time>2021-11-21T15:44:54Z</time>
      </trkpt>
      <trkpt lat="49.14805" lon="7.07287">
        <ele>314.2</ele>
        <time>2021-11-21T15:44:58Z</time>
      </trkpt>
      <trkpt lat="49.14805" lon="7.07287">
        <ele>314.2</ele>
        <time>2021-11-21T15:45:00Z</time>
      </trkpt>
      <trkpt lat="49.14805" lon="7.07287">
        <ele>314.2</ele>
        <time>2021-11-21T15:45:05Z</time>
      </trkpt>
      <trkpt lat="49.14805" lon="7.07287">
        <ele>314.2</ele>
        <time>2021-11-21T15:45:06Z</time>
      </trkpt>
      <trkpt lat="49.14805" lon="7.07286">
        <ele>314.2</ele>
        <time>2021-11-21T15:45:25Z</time>
      </trkpt>
      <trkpt lat="49.14811" lon="7.07275">
        <ele>314.4</ele>
        <time>2021-11-21T15:45:34Z</time>
      </trkpt>
      <trkpt lat="49.1482" lon="7.07267">
        <ele>314.6</ele>
        <time>2021-11-21T15:45:43Z</time>
      </trkpt>
      <trkpt lat="49.14827" lon="7.07258">
        <ele>314.8</ele>
        <time>2021-11-21T15:45:51Z</time>
      </trkpt>
      <trkpt lat="49.14835" lon="7.0725">
        <ele>315.2</ele>
        <time>2021-11-21T15:46:04Z</time>
      </trkpt>
      <trkpt lat="49.14843" lon="7.07242">
        <ele>315.7</ele>
        <time>2021-11-21T15:46:13Z</time>
      </trkpt>
      <trkpt lat="49.14849" lon="7.07231">
        <ele>316.4</ele>
        <time>2021-11-21T15:46:21Z</time>
      </trkpt>
      <trkpt lat="49.1485" lon="7.07216">
        <ele>317.1</ele>
        <time>2021-11-21T15:46:31Z</time>
      </trkpt>
      <trkpt lat="49.14852" lon="7.07201">
        <ele>318</ele>
        <time>2021-11-21T15:46:39Z</time>
      </trkpt>
      <trkpt lat="49.14852" lon="7.07187">
        <ele>318.9</ele>
        <time>2021-11-21T15:46:46Z</time>
      </trkpt>
      <trkpt lat="49.14851" lon="7.07171">
        <ele>319.7</ele>
        <time>2021-11-21T15:46:54Z</time>
      </trkpt>
      <trkpt lat="49.14848" lon="7.07158">
        <ele>320.9</ele>
        <time>2021-11-21T15:47:02Z</time>
      </trkpt>
      <trkpt lat="49.14842" lon="7.07145">
        <ele>321.7</ele>
        <time>2021-11-21T15:47:15Z</time>
      </trkpt>
      <trkpt lat="49.14837" lon="7.07132">
        <ele>322.4</ele>
        <time>2021-11-21T15:47:22Z</time>
      </trkpt>
      <trkpt lat="49.14832" lon="7.07119">
        <ele>323</ele>
        <time>2021-11-21T15:47:31Z</time>
      </trkpt>
      <trkpt lat="49.14827" lon="7.07108">
        <ele>323.5</ele>
        <time>2021-11-21T15:47:39Z</time>
      </trkpt>
      <trkpt lat="49.14822" lon="7.07096">
        <ele>323.9</ele>
        <time>2021-11-21T15:47:47Z</time>
      </trkpt>
      <trkpt lat="49.14817" lon="7.07085">
        <ele>324.2</ele>
        <time>2021-11-21T15:47:55Z</time>
      </trkpt>
      <trkpt lat="49.14812" lon="7.07072">
        <ele>324.5</ele>
        <time>2021-11-21T15:48:03Z</time>
      </trkpt>
      <trkpt lat="49.14807" lon="7.07059">
        <ele>324.7</ele>
        <time>2021-11-21T15:48:11Z</time>
      </trkpt>
      <trkpt lat="49.14802" lon="7.07046">
        <ele>324.9</ele>
        <time>2021-11-21T15:48:19Z</time>
      </trkpt>
      <trkpt lat="49.14797" lon="7.07034">
        <ele>324.9</ele>
        <time>2021-11-21T15:48:27Z</time>
      </trkpt>
      <trkpt lat="49.14791" lon="7.07022">
        <ele>324.9</ele>
        <time>2021-11-21T15:48:36Z</time>
      </trkpt>
      <trkpt lat="49.14787" lon="7.0701">
        <ele>324.8</ele>
        <time>2021-11-21T15:48:43Z</time>
      </trkpt>
      <trkpt lat="49.14783" lon="7.06997">
        <ele>324.8</ele>
        <time>2021-11-21T15:48:51Z</time>
      </trkpt>
      <trkpt lat="49.14778" lon="7.06984">
        <ele>324.8</ele>
        <time>2021-11-21T15:48:59Z</time>
      </trkpt>
      <trkpt lat="49.1478" lon="7.0697">
        <ele>324.9</ele>
        <time>2021-11-21T15:49:07Z</time>
      </trkpt>
      <trkpt lat="49.14786" lon="7.06959">
        <ele>325</ele>
        <time>2021-11-21T15:49:16Z</time>
      </trkpt>
      <trkpt lat="49.14793" lon="7.0695">
        <ele>325.2</ele>
        <time>2021-11-21T15:49:24Z</time>
      </trkpt>
      <trkpt lat="49.14801" lon="7.06942">
        <ele>325.4</ele>
        <time>2021-11-21T15:49:32Z</time>
      </trkpt>
      <trkpt lat="49.1481" lon="7.06934">
        <ele>325.7</ele>
        <time>2021-11-21T15:49:40Z</time>
      </trkpt>
      <trkpt lat="49.14818" lon="7.06927">
        <ele>325.9</ele>
        <time>2021-11-21T15:49:48Z</time>
      </trkpt>
      <trkpt lat="49.14826" lon="7.06919">
        <ele>326.2</ele>
        <time>2021-11-21T15:49:56Z</time>
      </trkpt>
      <trkpt lat="49.14834" lon="7.06911">
        <ele>326.5</ele>
        <time>2021-11-21T15:50:04Z</time>
      </trkpt>
      <trkpt lat="49.14843" lon="7.06903">
        <ele>326.8</ele>
        <time>2021-11-21T15:50:11Z</time>
      </trkpt>
      <trkpt lat="49.14851" lon="7.06895">
        <ele>327</ele>
        <time>2021-11-21T15:50:18Z</time>
      </trkpt>
      <trkpt lat="49.14858" lon="7.06886">
        <ele>327.3</ele>
        <time>2021-11-21T15:50:27Z</time>
      </trkpt>
      <trkpt lat="49.14866" lon="7.06877">
        <ele>327.6</ele>
        <time>2021-11-21T15:50:34Z</time>
      </trkpt>
      <trkpt lat="49.14872" lon="7.06866">
        <ele>327.9</ele>
        <time>2021-11-21T15:50:43Z</time>
      </trkpt>
      <trkpt lat="49.14874" lon="7.06863">
        <ele>328</ele>
        <time>2021-11-21T15:50:47Z</time>
      </trkpt>
      <trkpt lat="49.14873" lon="7.06863">
        <ele>328</ele>
        <time>2021-11-21T15:50:48Z</time>
      </trkpt>
      <trkpt lat="49.14873" lon="7.06863">
        <ele>328</ele>
        <time>2021-11-21T15:50:49Z</time>
      </trkpt>
      <trkpt lat="49.14874" lon="7.06863">
        <ele>328</ele>
        <time>2021-11-21T15:50:50Z</time>
      </trkpt>
      <trkpt lat="49.14878" lon="7.0685">
        <ele>328.2</ele>
        <time>2021-11-21T15:51:03Z</time>
      </trkpt>
      <trkpt lat="49.14884" lon="7.06837">
        <ele>328.4</ele>
        <time>2021-11-21T15:51:13Z</time>
      </trkpt>
      <trkpt lat="49.14892" lon="7.0683">
        <ele>328.5</ele>
        <time>2021-11-21T15:51:21Z</time>
      </trkpt>
      <trkpt lat="49.149" lon="7.06822">
        <ele>328.6</ele>
        <time>2021-11-21T15:51:29Z</time>
      </trkpt>
      <trkpt lat="49.14909" lon="7.06814">
        <ele>328.7</ele>
        <time>2021-11-21T15:51:39Z</time>
      </trkpt>
      <trkpt lat="49.14917" lon="7.06809">
        <ele>328.8</ele>
        <time>2021-11-21T15:51:49Z</time>
      </trkpt>
      <trkpt lat="49.14926" lon="7.06801">
        <ele>328.9</ele>
        <time>2021-11-21T15:51:57Z</time>
      </trkpt>
      <trkpt lat="49.14935" lon="7.06796">
        <ele>328.9</ele>
        <time>2021-11-21T15:52:05Z</time>
      </trkpt>
      <trkpt lat="49.14945" lon="7.06792">
        <ele>328.9</ele>
        <time>2021-11-21T15:52:13Z</time>
      </trkpt>
      <trkpt lat="49.14953" lon="7.06786">
        <ele>328.9</ele>
        <time>2021-11-21T15:52:21Z</time>
      </trkpt>
      <trkpt lat="49.14962" lon="7.06779">
        <ele>328.7</ele>
        <time>2021-11-21T15:52:30Z</time>
      </trkpt>
      <trkpt lat="49.14969" lon="7.06769">
        <ele>328.4</ele>
        <time>2021-11-21T15:52:38Z</time>
      </trkpt>
      <trkpt lat="49.14969" lon="7.06755">
        <ele>328.7</ele>
        <time>2021-11-21T15:52:46Z</time>
      </trkpt>
      <trkpt lat="49.14963" lon="7.06744">
        <ele>328.9</ele>
        <time>2021-11-21T15:52:53Z</time>
      </trkpt>
      <trkpt lat="49.14959" lon="7.06731">
        <ele>329.2</ele>
        <time>2021-11-21T15:53:01Z</time>
      </trkpt>
      <trkpt lat="49.14954" lon="7.06717">
        <ele>329.4</ele>
        <time>2021-11-21T15:53:08Z</time>
      </trkpt>
      <trkpt lat="49.14949" lon="7.06705">
        <ele>329.6</ele>
        <time>2021-11-21T15:53:16Z</time>
      </trkpt>
      <trkpt lat="49.14943" lon="7.06693">
        <ele>329.7</ele>
        <time>2021-11-21T15:53:25Z</time>
      </trkpt>
      <trkpt lat="49.14938" lon="7.0668">
        <ele>329.8</ele>
        <time>2021-11-21T15:53:33Z</time>
      </trkpt>
      <trkpt lat="49.14933" lon="7.06668">
        <ele>329.8</ele>
        <time>2021-11-21T15:53:41Z</time>
      </trkpt>
      <trkpt lat="49.14928" lon="7.06655">
        <ele>329.8</ele>
        <time>2021-11-21T15:53:49Z</time>
      </trkpt>
      <trkpt lat="49.14923" lon="7.06644">
        <ele>329.8</ele>
        <time>2021-11-21T15:53:57Z</time>
      </trkpt>
      <trkpt lat="49.14917" lon="7.06632">
        <ele>329.8</ele>
        <time>2021-11-21T15:54:05Z</time>
      </trkpt>
      <trkpt lat="49.1491" lon="7.06622">
        <ele>329.7</ele>
        <time>2021-11-21T15:54:13Z</time>
      </trkpt>
      <trkpt lat="49.14907" lon="7.0661">
        <ele>329.9</ele>
        <time>2021-11-21T15:54:23Z</time>
      </trkpt>
      <trkpt lat="49.14907" lon="7.06611">
        <ele>329.9</ele>
        <time>2021-11-21T15:54:24Z</time>
      </trkpt>
      <trkpt lat="49.14916" lon="7.06609">
        <ele>330.2</ele>
        <time>2021-11-21T15:54:36Z</time>
      </trkpt>
      <trkpt lat="49.14927" lon="7.06607">
        <ele>330.6</ele>
        <time>2021-11-21T15:54:45Z</time>
      </trkpt>
      <trkpt lat="49.1493" lon="7.06605">
        <ele>330.8</ele>
        <time>2021-11-21T15:54:50Z</time>
      </trkpt>
      <trkpt lat="49.14931" lon="7.06604">
        <ele>330.8</ele>
        <time>2021-11-21T15:55:15Z</time>
      </trkpt>
      <trkpt lat="49.1494" lon="7.06598">
        <ele>331.2</ele>
        <time>2021-11-21T15:55:23Z</time>
      </trkpt>
      <trkpt lat="49.14949" lon="7.06593">
        <ele>331.6</ele>
        <time>2021-11-21T15:55:31Z</time>
      </trkpt>
      <trkpt lat="49.14959" lon="7.06587">
        <ele>332.1</ele>
        <time>2021-11-21T15:55:39Z</time>
      </trkpt>
      <trkpt lat="49.14968" lon="7.06581">
        <ele>332.6</ele>
        <time>2021-11-21T15:55:47Z</time>
      </trkpt>
      <trkpt lat="49.14977" lon="7.06575">
        <ele>333.1</ele>
        <time>2021-11-21T15:55:55Z</time>
      </trkpt>
      <trkpt lat="49.14986" lon="7.06568">
        <ele>333.6</ele>
        <time>2021-11-21T15:56:04Z</time>
      </trkpt>
      <trkpt lat="49.14995" lon="7.06563">
        <ele>334.1</ele>
        <time>2021-11-21T15:56:11Z</time>
      </trkpt>
      <trkpt lat="49.15003" lon="7.06558">
        <ele>334.6</ele>
        <time>2021-11-21T15:56:19Z</time>
      </trkpt>
      <trkpt lat="49.15012" lon="7.06551">
        <ele>335.2</ele>
        <time>2021-11-21T15:56:28Z</time>
      </trkpt>
      <trkpt lat="49.1502" lon="7.06545">
        <ele>335.7</ele>
        <time>2021-11-21T15:56:36Z</time>
      </trkpt>
      <trkpt lat="49.15028" lon="7.06539">
        <ele>336.2</ele>
        <time>2021-11-21T15:56:44Z</time>
      </trkpt>
      <trkpt lat="49.15037" lon="7.06534">
        <ele>336.7</ele>
        <time>2021-11-21T15:56:52Z</time>
      </trkpt>
      <trkpt lat="49.15046" lon="7.06527">
        <ele>337.3</ele>
        <time>2021-11-21T15:57:01Z</time>
      </trkpt>
      <trkpt lat="49.15055" lon="7.06522">
        <ele>337.8</ele>
        <time>2021-11-21T15:57:10Z</time>
      </trkpt>
      <trkpt lat="49.15064" lon="7.06516">
        <ele>338.2</ele>
        <time>2021-11-21T15:57:18Z</time>
      </trkpt>
      <trkpt lat="49.15073" lon="7.0651">
        <ele>338.5</ele>
        <time>2021-11-21T15:57:26Z</time>
      </trkpt>
      <trkpt lat="49.15082" lon="7.06504">
        <ele>338.8</ele>
        <time>2021-11-21T15:57:34Z</time>
      </trkpt>
      <trkpt lat="49.15091" lon="7.06497">
        <ele>339</ele>
        <time>2021-11-21T15:57:42Z</time>
      </trkpt>
      <trkpt lat="49.15099" lon="7.0649">
        <ele>339.1</ele>
        <time>2021-11-21T15:57:50Z</time>
      </trkpt>
      <trkpt lat="49.15108" lon="7.06483">
        <ele>339.2</ele>
        <time>2021-11-21T15:57:59Z</time>
      </trkpt>
      <trkpt lat="49.15116" lon="7.06476">
        <ele>339.3</ele>
        <time>2021-11-21T15:58:07Z</time>
      </trkpt>
      <trkpt lat="49.15125" lon="7.0647">
        <ele>339.4</ele>
        <time>2021-11-21T15:58:16Z</time>
      </trkpt>
      <trkpt lat="49.15134" lon="7.06463">
        <ele>339.6</ele>
        <time>2021-11-21T15:58:25Z</time>
      </trkpt>
      <trkpt lat="49.15143" lon="7.06456">
        <ele>339.8</ele>
        <time>2021-11-21T15:58:34Z</time>
      </trkpt>
      <trkpt lat="49.15151" lon="7.0645">
        <ele>339.9</ele>
        <time>2021-11-21T15:58:42Z</time>
      </trkpt>
      <trkpt lat="49.1516" lon="7.06444">
        <ele>340.2</ele>
        <time>2021-11-21T15:58:50Z</time>
      </trkpt>
      <trkpt lat="49.15169" lon="7.06436">
        <ele>340.6</ele>
        <time>2021-11-21T15:58:58Z</time>
      </trkpt>
      <trkpt lat="49.15176" lon="7.06428">
        <ele>341</ele>
        <time>2021-11-21T15:59:06Z</time>
      </trkpt>
      <trkpt lat="49.15182" lon="7.06416">
        <ele>341.5</ele>
        <time>2021-11-21T15:59:15Z</time>
      </trkpt>
      <trkpt lat="49.15181" lon="7.06401">
        <ele>342.3</ele>
        <time>2021-11-21T15:59:23Z</time>
      </trkpt>
      <trkpt lat="49.15179" lon="7.06386">
        <ele>343</ele>
        <time>2021-11-21T15:59:30Z</time>
      </trkpt>
      <trkpt lat="49.15187" lon="7.06378">
        <ele>343.6</ele>
        <time>2021-11-21T15:59:38Z</time>
      </trkpt>
      <trkpt lat="49.15196" lon="7.06373">
        <ele>344.3</ele>
        <time>2021-11-21T15:59:46Z</time>
      </trkpt>
      <trkpt lat="49.15205" lon="7.06367">
        <ele>344.9</ele>
        <time>2021-11-21T15:59:54Z</time>
      </trkpt>
      <trkpt lat="49.15214" lon="7.06363">
        <ele>345.4</ele>
        <time>2021-11-21T16:00:02Z</time>
      </trkpt>
      <trkpt lat="49.15223" lon="7.06358">
        <ele>345.9</ele>
        <time>2021-11-21T16:00:11Z</time>
      </trkpt>
      <trkpt lat="49.15231" lon="7.06349">
        <ele>346.4</ele>
        <time>2021-11-21T16:00:19Z</time>
      </trkpt>
      <trkpt lat="49.15231" lon="7.06335">
        <ele>346.4</ele>
        <time>2021-11-21T16:00:26Z</time>
      </trkpt>
      <trkpt lat="49.15228" lon="7.06321">
        <ele>346.4</ele>
        <time>2021-11-21T16:00:34Z</time>
      </trkpt>
      <trkpt lat="49.15225" lon="7.06306">
        <ele>346.5</ele>
        <time>2021-11-21T16:00:43Z</time>
      </trkpt>
      <trkpt lat="49.15223" lon="7.06292">
        <ele>346.5</ele>
        <time>2021-11-21T16:00:49Z</time>
      </trkpt>
      <trkpt lat="49.15221" lon="7.06279">
        <ele>346.5</ele>
        <time>2021-11-21T16:00:56Z</time>
      </trkpt>
      <trkpt lat="49.15218" lon="7.06263">
        <ele>346.5</ele>
        <time>2021-11-21T16:01:05Z</time>
      </trkpt>
      <trkpt lat="49.15215" lon="7.06249">
        <ele>346.5</ele>
        <time>2021-11-21T16:01:14Z</time>
      </trkpt>
      <trkpt lat="49.15212" lon="7.06233">
        <ele>346.5</ele>
        <time>2021-11-21T16:01:21Z</time>
      </trkpt>
      <trkpt lat="49.1521" lon="7.0622">
        <ele>346.4</ele>
        <time>2021-11-21T16:01:29Z</time>
      </trkpt>
      <trkpt lat="49.15206" lon="7.06206">
        <ele>346.3</ele>
        <time>2021-11-21T16:01:38Z</time>
      </trkpt>
      <trkpt lat="49.15203" lon="7.06191">
        <ele>346.2</ele>
        <time>2021-11-21T16:01:47Z</time>
      </trkpt>
      <trkpt lat="49.15201" lon="7.06177">
        <ele>346.1</ele>
        <time>2021-11-21T16:01:54Z</time>
      </trkpt>
      <trkpt lat="49.152" lon="7.06163">
        <ele>346.1</ele>
        <time>2021-11-21T16:02:02Z</time>
      </trkpt>
      <trkpt lat="49.15201" lon="7.06147">
        <ele>346</ele>
        <time>2021-11-21T16:02:10Z</time>
      </trkpt>
      <trkpt lat="49.15208" lon="7.06138">
        <ele>345.9</ele>
        <time>2021-11-21T16:02:19Z</time>
      </trkpt>
      <trkpt lat="49.15217" lon="7.06135">
        <ele>345.9</ele>
        <time>2021-11-21T16:02:27Z</time>
      </trkpt>
      <trkpt lat="49.15226" lon="7.06132">
        <ele>345.9</ele>
        <time>2021-11-21T16:02:35Z</time>
      </trkpt>
      <trkpt lat="49.15236" lon="7.06129">
        <ele>345.9</ele>
        <time>2021-11-21T16:02:43Z</time>
      </trkpt>
      <trkpt lat="49.15245" lon="7.06126">
        <ele>345.9</ele>
        <time>2021-11-21T16:02:51Z</time>
      </trkpt>
      <trkpt lat="49.15254" lon="7.06122">
        <ele>345.8</ele>
        <time>2021-11-21T16:02:59Z</time>
      </trkpt>
      <trkpt lat="49.15263" lon="7.06118">
        <ele>345.8</ele>
        <time>2021-11-21T16:03:08Z</time>
      </trkpt>
      <trkpt lat="49.15272" lon="7.06114">
        <ele>345.8</ele>
        <time>2021-11-21T16:03:16Z</time>
      </trkpt>
      <trkpt lat="49.15281" lon="7.0611">
        <ele>345.7</ele>
        <time>2021-11-21T16:03:25Z</time>
      </trkpt>
      <trkpt lat="49.15291" lon="7.06106">
        <ele>345.6</ele>
        <time>2021-11-21T16:03:34Z</time>
      </trkpt>
      <trkpt lat="49.153" lon="7.06102">
        <ele>345.5</ele>
        <time>2021-11-21T16:03:42Z</time>
      </trkpt>
      <trkpt lat="49.15309" lon="7.06097">
        <ele>345.4</ele>
        <time>2021-11-21T16:03:51Z</time>
      </trkpt>
      <trkpt lat="49.15318" lon="7.06095">
        <ele>345.3</ele>
        <time>2021-11-21T16:03:59Z</time>
      </trkpt>
      <trkpt lat="49.15328" lon="7.06091">
        <ele>345.2</ele>
        <time>2021-11-21T16:04:08Z</time>
      </trkpt>
      <trkpt lat="49.15338" lon="7.06087">
        <ele>345.1</ele>
        <time>2021-11-21T16:04:17Z</time>
      </trkpt>
      <trkpt lat="49.15347" lon="7.06083">
        <ele>345.1</ele>
        <time>2021-11-21T16:04:26Z</time>
      </trkpt>
      <trkpt lat="49.15357" lon="7.06079">
        <ele>345</ele>
        <time>2021-11-21T16:04:35Z</time>
      </trkpt>
      <trkpt lat="49.15366" lon="7.06075">
        <ele>345</ele>
        <time>2021-11-21T16:04:43Z</time>
      </trkpt>
      <trkpt lat="49.15375" lon="7.06072">
        <ele>344.9</ele>
        <time>2021-11-21T16:04:52Z</time>
      </trkpt>
      <trkpt lat="49.15384" lon="7.06067">
        <ele>344.9</ele>
        <time>2021-11-21T16:05:00Z</time>
      </trkpt>
      <trkpt lat="49.15393" lon="7.06062">
        <ele>344.9</ele>
        <time>2021-11-21T16:05:08Z</time>
      </trkpt>
      <trkpt lat="49.15402" lon="7.06059">
        <ele>344.9</ele>
        <time>2021-11-21T16:05:16Z</time>
      </trkpt>
      <trkpt lat="49.15409" lon="7.06049">
        <ele>344.9</ele>
        <time>2021-11-21T16:05:25Z</time>
      </trkpt>
      <trkpt lat="49.15403" lon="7.06037">
        <ele>344.2</ele>
        <time>2021-11-21T16:05:33Z</time>
      </trkpt>
      <trkpt lat="49.15398" lon="7.06024">
        <ele>343.7</ele>
        <time>2021-11-21T16:05:42Z</time>
      </trkpt>
      <trkpt lat="49.15394" lon="7.06011">
        <ele>343.3</ele>
        <time>2021-11-21T16:05:50Z</time>
      </trkpt>
      <trkpt lat="49.15388" lon="7.06">
        <ele>342.9</ele>
        <time>2021-11-21T16:05:58Z</time>
      </trkpt>
      <trkpt lat="49.15383" lon="7.05988">
        <ele>342.4</ele>
        <time>2021-11-21T16:06:07Z</time>
      </trkpt>
      <trkpt lat="49.15378" lon="7.05974">
        <ele>341.9</ele>
        <time>2021-11-21T16:06:15Z</time>
      </trkpt>
      <trkpt lat="49.15374" lon="7.05961">
        <ele>341.4</ele>
        <time>2021-11-21T16:06:23Z</time>
      </trkpt>
      <trkpt lat="49.15368" lon="7.05947">
        <ele>340.9</ele>
        <time>2021-11-21T16:06:31Z</time>
      </trkpt>
      <trkpt lat="49.15363" lon="7.05935">
        <ele>340.4</ele>
        <time>2021-11-21T16:06:39Z</time>
      </trkpt>
      <trkpt lat="49.15362" lon="7.05921">
        <ele>339.9</ele>
        <time>2021-11-21T16:06:47Z</time>
      </trkpt>
      <trkpt lat="49.15361" lon="7.05917">
        <ele>339.7</ele>
        <time>2021-11-21T16:06:53Z</time>
      </trkpt>
      <trkpt lat="49.15361" lon="7.05917">
        <ele>339.7</ele>
        <time>2021-11-21T16:07:14Z</time>
      </trkpt>
      <trkpt lat="49.15362" lon="7.05902">
        <ele>339.1</ele>
        <time>2021-11-21T16:07:23Z</time>
      </trkpt>
      <trkpt lat="49.1536" lon="7.05888">
        <ele>338.6</ele>
        <time>2021-11-21T16:07:30Z</time>
      </trkpt>
      <trkpt lat="49.1536" lon="7.05873">
        <ele>338</ele>
        <time>2021-11-21T16:07:38Z</time>
      </trkpt>
      <trkpt lat="49.1536" lon="7.05858">
        <ele>337.5</ele>
        <time>2021-11-21T16:07:46Z</time>
      </trkpt>
      <trkpt lat="49.15361" lon="7.05843">
        <ele>336.9</ele>
        <time>2021-11-21T16:07:54Z</time>
      </trkpt>
      <trkpt lat="49.1536" lon="7.05827">
        <ele>336.3</ele>
        <time>2021-11-21T16:08:02Z</time>
      </trkpt>
      <trkpt lat="49.15358" lon="7.05812">
        <ele>335.7</ele>
        <time>2021-11-21T16:08:10Z</time>
      </trkpt>
      <trkpt lat="49.15355" lon="7.05798">
        <ele>335</ele>
        <time>2021-11-21T16:08:18Z</time>
      </trkpt>
      <trkpt lat="49.15352" lon="7.05785">
        <ele>334.5</ele>
        <time>2021-11-21T16:08:25Z</time>
      </trkpt>
      <trkpt lat="49.15351" lon="7.05771">
        <ele>333.9</ele>
        <time>2021-11-21T16:08:32Z</time>
      </trkpt>
      <trkpt lat="49.15347" lon="7.05757">
        <ele>333.2</ele>
        <time>2021-11-21T16:08:39Z</time>
      </trkpt>
      <trkpt lat="49.15343" lon="7.05744">
        <ele>332.5</ele>
        <time>2021-11-21T16:08:47Z</time>
      </trkpt>
      <trkpt lat="49.15338" lon="7.05732">
        <ele>331.8</ele>
        <time>2021-11-21T16:08:55Z</time>
      </trkpt>
      <trkpt lat="49.15333" lon="7.05719">
        <ele>331</ele>
        <time>2021-11-21T16:09:03Z</time>
      </trkpt>
      <trkpt lat="49.15327" lon="7.05707">
        <ele>330</ele>
        <time>2021-11-21T16:09:12Z</time>
      </trkpt>
      <trkpt lat="49.15322" lon="7.05695">
        <ele>329.3</ele>
        <time>2021-11-21T16:09:20Z</time>
      </trkpt>
      <trkpt lat="49.15316" lon="7.05682">
        <ele>328.5</ele>
        <time>2021-11-21T16:09:28Z</time>
      </trkpt>
      <trkpt lat="49.15311" lon="7.0567">
        <ele>327.7</ele>
        <time>2021-11-21T16:09:36Z</time>
      </trkpt>
      <trkpt lat="49.15304" lon="7.05659">
        <ele>326.9</ele>
        <time>2021-11-21T16:09:45Z</time>
      </trkpt>
      <trkpt lat="49.15298" lon="7.05648">
        <ele>326.3</ele>
        <time>2021-11-21T16:09:53Z</time>
      </trkpt>
      <trkpt lat="49.15292" lon="7.05638">
        <ele>325.6</ele>
        <time>2021-11-21T16:10:01Z</time>
      </trkpt>
      <trkpt lat="49.15286" lon="7.05627">
        <ele>324.9</ele>
        <time>2021-11-21T16:10:08Z</time>
      </trkpt>
      <trkpt lat="49.15281" lon="7.05616">
        <ele>324.2</ele>
        <time>2021-11-21T16:10:16Z</time>
      </trkpt>
      <trkpt lat="49.15274" lon="7.05606">
        <ele>323.5</ele>
        <time>2021-11-21T16:10:25Z</time>
      </trkpt>
      <trkpt lat="49.15268" lon="7.05595">
        <ele>322.8</ele>
        <time>2021-11-21T16:10:34Z</time>
      </trkpt>
      <trkpt lat="49.15262" lon="7.05585">
        <ele>322</ele>
        <time>2021-11-21T16:10:43Z</time>
      </trkpt>
      <trkpt lat="49.15256" lon="7.05574">
        <ele>321.2</ele>
        <time>2021-11-21T16:10:51Z</time>
      </trkpt>
      <trkpt lat="49.15252" lon="7.05561">
        <ele>320.4</ele>
        <time>2021-11-21T16:10:59Z</time>
      </trkpt>
      <trkpt lat="49.15246" lon="7.05549">
        <ele>319.5</ele>
        <time>2021-11-21T16:11:07Z</time>
      </trkpt>
      <trkpt lat="49.15241" lon="7.05537">
        <ele>318.6</ele>
        <time>2021-11-21T16:11:15Z</time>
      </trkpt>
      <trkpt lat="49.15235" lon="7.05527">
        <ele>317.8</ele>
        <time>2021-11-21T16:11:23Z</time>
      </trkpt>
      <trkpt lat="49.15229" lon="7.05515">
        <ele>317.1</ele>
        <time>2021-11-21T16:11:32Z</time>
      </trkpt>
      <trkpt lat="49.15223" lon="7.05504">
        <ele>316.5</ele>
        <time>2021-11-21T16:11:39Z</time>
      </trkpt>
      <trkpt lat="49.1522" lon="7.05491">
        <ele>316</ele>
        <time>2021-11-21T16:11:48Z</time>
      </trkpt>
      <trkpt lat="49.15223" lon="7.05477">
        <ele>315.8</ele>
        <time>2021-11-21T16:11:56Z</time>
      </trkpt>
      <trkpt lat="49.15231" lon="7.05469">
        <ele>315.5</ele>
        <time>2021-11-21T16:12:07Z</time>
      </trkpt>
      <trkpt lat="49.15238" lon="7.05461">
        <ele>315.3</ele>
        <time>2021-11-21T16:12:14Z</time>
      </trkpt>
      <trkpt lat="49.15242" lon="7.05448">
        <ele>314.9</ele>
        <time>2021-11-21T16:12:21Z</time>
      </trkpt>
      <trkpt lat="49.15245" lon="7.05435">
        <ele>314.5</ele>
        <time>2021-11-21T16:12:28Z</time>
      </trkpt>
      <trkpt lat="49.15248" lon="7.05421">
        <ele>313.9</ele>
        <time>2021-11-21T16:12:37Z</time>
      </trkpt>
      <trkpt lat="49.15246" lon="7.05406">
        <ele>313.2</ele>
        <time>2021-11-21T16:12:46Z</time>
      </trkpt>
      <trkpt lat="49.15241" lon="7.05394">
        <ele>312.5</ele>
        <time>2021-11-21T16:12:54Z</time>
      </trkpt>
      <trkpt lat="49.15237" lon="7.05381">
        <ele>311.9</ele>
        <time>2021-11-21T16:13:00Z</time>
      </trkpt>
      <trkpt lat="49.15233" lon="7.05367">
        <ele>311.2</ele>
        <time>2021-11-21T16:13:08Z</time>
      </trkpt>
      <trkpt lat="49.1523" lon="7.05354">
        <ele>310.7</ele>
        <time>2021-11-21T16:13:15Z</time>
      </trkpt>
      <trkpt lat="49.15227" lon="7.05352">
        <ele>310.5</ele>
        <time>2021-11-21T16:13:20Z</time>
      </trkpt>
      <trkpt lat="49.15227" lon="7.05352">
        <ele>310.5</ele>
        <time>2021-11-21T16:13:25Z</time>
      </trkpt>
      <trkpt lat="49.15227" lon="7.05352">
        <ele>310.5</ele>
        <time>2021-11-21T16:13:26Z</time>
      </trkpt>
      <trkpt lat="49.15227" lon="7.05351">
        <ele>310.5</ele>
        <time>2021-11-21T16:13:29Z</time>
      </trkpt>
      <trkpt lat="49.15227" lon="7.05338">
        <ele>310.1</ele>
        <time>2021-11-21T16:13:44Z</time>
      </trkpt>
      <trkpt lat="49.15226" lon="7.05322">
        <ele>309.7</ele>
        <time>2021-11-21T16:13:54Z</time>
      </trkpt>
      <trkpt lat="49.15222" lon="7.05308">
        <ele>309.3</ele>
        <time>2021-11-21T16:14:01Z</time>
      </trkpt>
      <trkpt lat="49.1522" lon="7.05293">
        <ele>308.9</ele>
        <time>2021-11-21T16:14:07Z</time>
      </trkpt>
      <trkpt lat="49.15217" lon="7.05278">
        <ele>308.5</ele>
        <time>2021-11-21T16:14:13Z</time>
      </trkpt>
      <trkpt lat="49.15213" lon="7.05264">
        <ele>308.1</ele>
        <time>2021-11-21T16:14:20Z</time>
      </trkpt>
      <trkpt lat="49.1521" lon="7.0525">
        <ele>307.7</ele>
        <time>2021-11-21T16:14:29Z</time>
      </trkpt>
      <trkpt lat="49.15209" lon="7.05236">
        <ele>307.2</ele>
        <time>2021-11-21T16:14:36Z</time>
      </trkpt>
      <trkpt lat="49.15206" lon="7.05223">
        <ele>306.7</ele>
        <time>2021-11-21T16:14:45Z</time>
      </trkpt>
      <trkpt lat="49.15203" lon="7.05209">
        <ele>306.1</ele>
        <time>2021-11-21T16:14:54Z</time>
      </trkpt>
      <trkpt lat="49.15198" lon="7.05194">
        <ele>305.5</ele>
        <time>2021-11-21T16:15:02Z</time>
      </trkpt>
      <trkpt lat="49.15194" lon="7.0518">
        <ele>304.8</ele>
        <time>2021-11-21T16:15:08Z</time>
      </trkpt>
      <trkpt lat="49.1519" lon="7.05167">
        <ele>304.3</ele>
        <time>2021-11-21T16:15:14Z</time>
      </trkpt>
      <trkpt lat="49.15182" lon="7.05154">
        <ele>303.8</ele>
        <time>2021-11-21T16:15:23Z</time>
      </trkpt>
      <trkpt lat="49.15177" lon="7.05141">
        <ele>303.6</ele>
        <time>2021-11-21T16:15:29Z</time>
      </trkpt>
      <trkpt lat="49.15173" lon="7.05128">
        <ele>303</ele>
        <time>2021-11-21T16:15:40Z</time>
      </trkpt>
      <trkpt lat="49.15167" lon="7.05117">
        <ele>302.1</ele>
        <time>2021-11-21T16:15:52Z</time>
      </trkpt>
      <trkpt lat="49.15161" lon="7.05105">
        <ele>301</ele>
        <time>2021-11-21T16:16:04Z</time>
      </trkpt>
      <trkpt lat="49.15156" lon="7.05093">
        <ele>300</ele>
        <time>2021-11-21T16:16:17Z</time>
      </trkpt>
      <trkpt lat="49.15149" lon="7.05084">
        <ele>299</ele>
        <time>2021-11-21T16:16:23Z</time>
      </trkpt>
      <trkpt lat="49.15144" lon="7.05071">
        <ele>298.1</ele>
        <time>2021-11-21T16:16:29Z</time>
      </trkpt>
      <trkpt lat="49.15139" lon="7.05059">
        <ele>297.4</ele>
        <time>2021-11-21T16:16:36Z</time>
      </trkpt>
      <trkpt lat="49.15139" lon="7.05045">
        <ele>296.7</ele>
        <time>2021-11-21T16:16:47Z</time>
      </trkpt>
      <trkpt lat="49.15138" lon="7.0503">
        <ele>296.2</ele>
        <time>2021-11-21T16:16:54Z</time>
      </trkpt>
      <trkpt lat="49.15142" lon="7.05016">
        <ele>295.9</ele>
        <time>2021-11-21T16:17:03Z</time>
      </trkpt>
      <trkpt lat="49.15144" lon="7.05002">
        <ele>295.8</ele>
        <time>2021-11-21T16:17:10Z</time>
      </trkpt>
      <trkpt lat="49.15149" lon="7.04989">
        <ele>295.7</ele>
        <time>2021-11-21T16:17:18Z</time>
      </trkpt>
      <trkpt lat="49.15153" lon="7.04977">
        <ele>295.6</ele>
        <time>2021-11-21T16:17:24Z</time>
      </trkpt>
      <trkpt lat="49.15156" lon="7.04964">
        <ele>295.6</ele>
        <time>2021-11-21T16:17:31Z</time>
      </trkpt>
      <trkpt lat="49.1516" lon="7.04951">
        <ele>295.6</ele>
        <time>2021-11-21T16:17:39Z</time>
      </trkpt>
      <trkpt lat="49.15167" lon="7.04941">
        <ele>295.5</ele>
        <time>2021-11-21T16:17:45Z</time>
      </trkpt>
      <trkpt lat="49.15172" lon="7.04929">
        <ele>295.4</ele>
        <time>2021-11-21T16:17:52Z</time>
      </trkpt>
      <trkpt lat="49.15181" lon="7.04922">
        <ele>295.3</ele>
        <time>2021-11-21T16:17:59Z</time>
      </trkpt>
      <trkpt lat="49.15187" lon="7.04911">
        <ele>295.1</ele>
        <time>2021-11-21T16:18:06Z</time>
      </trkpt>
      <trkpt lat="49.15188" lon="7.04896">
        <ele>294.7</ele>
        <time>2021-11-21T16:18:24Z</time>
      </trkpt>
      <trkpt lat="49.15191" lon="7.04881">
        <ele>294.1</ele>
        <time>2021-11-21T16:18:32Z</time>
      </trkpt>
      <trkpt lat="49.15192" lon="7.04868">
        <ele>293.3</ele>
        <time>2021-11-21T16:18:38Z</time>
      </trkpt>
      <trkpt lat="49.15192" lon="7.04851">
        <ele>292.3</ele>
        <time>2021-11-21T16:18:45Z</time>
      </trkpt>
      <trkpt lat="49.15189" lon="7.04836">
        <ele>291.2</ele>
        <time>2021-11-21T16:18:50Z</time>
      </trkpt>
      <trkpt lat="49.15188" lon="7.04822">
        <ele>290.7</ele>
        <time>2021-11-21T16:18:57Z</time>
      </trkpt>
      <trkpt lat="49.15196" lon="7.04815">
        <ele>291.1</ele>
        <time>2021-11-21T16:19:06Z</time>
      </trkpt>
      <trkpt lat="49.15205" lon="7.04815">
        <ele>291.6</ele>
        <time>2021-11-21T16:19:13Z</time>
      </trkpt>
      <trkpt lat="49.15213" lon="7.04809">
        <ele>292</ele>
        <time>2021-11-21T16:19:23Z</time>
      </trkpt>
      <trkpt lat="49.15223" lon="7.04803">
        <ele>292.4</ele>
        <time>2021-11-21T16:19:33Z</time>
      </trkpt>
      <trkpt lat="49.15233" lon="7.04799">
        <ele>292.8</ele>
        <time>2021-11-21T16:19:39Z</time>
      </trkpt>
      <trkpt lat="49.15242" lon="7.04794">
        <ele>293.1</ele>
        <time>2021-11-21T16:19:44Z</time>
      </trkpt>
      <trkpt lat="49.15251" lon="7.04789">
        <ele>293.5</ele>
        <time>2021-11-21T16:19:50Z</time>
      </trkpt>
      <trkpt lat="49.1526" lon="7.04783">
        <ele>293.8</ele>
        <time>2021-11-21T16:19:59Z</time>
      </trkpt>
      <trkpt lat="49.15268" lon="7.04778">
        <ele>294</ele>
        <time>2021-11-21T16:20:08Z</time>
      </trkpt>
      <trkpt lat="49.15268" lon="7.04777">
        <ele>294</ele>
        <time>2021-11-21T16:20:11Z</time>
      </trkpt>
      <trkpt lat="49.15268" lon="7.04777">
        <ele>294</ele>
        <time>2021-11-21T16:20:12Z</time>
      </trkpt>
      <trkpt lat="49.15277" lon="7.04775">
        <ele>294.2</ele>
        <time>2021-11-21T16:20:21Z</time>
      </trkpt>
      <trkpt lat="49.15278" lon="7.04775">
        <ele>294.3</ele>
        <time>2021-11-21T16:20:22Z</time>
      </trkpt>
      <trkpt lat="49.15287" lon="7.04772">
        <ele>294.5</ele>
        <time>2021-11-21T16:20:33Z</time>
      </trkpt>
      <trkpt lat="49.15296" lon="7.04766">
        <ele>294.8</ele>
        <time>2021-11-21T16:20:42Z</time>
      </trkpt>
      <trkpt lat="49.15304" lon="7.04762">
        <ele>295.1</ele>
        <time>2021-11-21T16:20:52Z</time>
      </trkpt>
      <trkpt lat="49.15313" lon="7.04755">
        <ele>295.4</ele>
        <time>2021-11-21T16:20:59Z</time>
      </trkpt>
      <trkpt lat="49.15321" lon="7.04749">
        <ele>295.8</ele>
        <time>2021-11-21T16:21:07Z</time>
      </trkpt>
      <trkpt lat="49.15329" lon="7.04745">
        <ele>296.3</ele>
        <time>2021-11-21T16:21:12Z</time>
      </trkpt>
      <trkpt lat="49.15339" lon="7.04741">
        <ele>296.8</ele>
        <time>2021-11-21T16:21:21Z</time>
      </trkpt>
      <trkpt lat="49.15348" lon="7.04737">
        <ele>297.1</ele>
        <time>2021-11-21T16:21:27Z</time>
      </trkpt>
      <trkpt lat="49.15357" lon="7.04731">
        <ele>297.4</ele>
        <time>2021-11-21T16:21:32Z</time>
      </trkpt>
      <trkpt lat="49.15365" lon="7.04723">
        <ele>297.1</ele>
        <time>2021-11-21T16:21:42Z</time>
      </trkpt>
      <trkpt lat="49.15363" lon="7.04708">
        <ele>296.5</ele>
        <time>2021-11-21T16:21:54Z</time>
      </trkpt>
      <trkpt lat="49.15357" lon="7.04696">
        <ele>295.4</ele>
        <time>2021-11-21T16:22:03Z</time>
      </trkpt>
      <trkpt lat="49.15354" lon="7.04682">
        <ele>294.3</ele>
        <time>2021-11-21T16:22:10Z</time>
      </trkpt>
      <trkpt lat="49.15357" lon="7.04668">
        <ele>293.5</ele>
        <time>2021-11-21T16:22:19Z</time>
      </trkpt>
      <trkpt lat="49.15366" lon="7.04662">
        <ele>293.1</ele>
        <time>2021-11-21T16:22:26Z</time>
      </trkpt>
      <trkpt lat="49.15374" lon="7.04654">
        <ele>292.9</ele>
        <time>2021-11-21T16:22:33Z</time>
      </trkpt>
      <trkpt lat="49.1538" lon="7.04643">
        <ele>292.6</ele>
        <time>2021-11-21T16:22:40Z</time>
      </trkpt>
      <trkpt lat="49.15373" lon="7.04633">
        <ele>291.8</ele>
        <time>2021-11-21T16:23:00Z</time>
      </trkpt>
      <trkpt lat="49.15368" lon="7.04622">
        <ele>290.7</ele>
        <time>2021-11-21T16:23:13Z</time>
      </trkpt>
      <trkpt lat="49.15374" lon="7.0461">
        <ele>289.6</ele>
        <time>2021-11-21T16:23:24Z</time>
      </trkpt>
      <trkpt lat="49.15381" lon="7.046">
        <ele>288.8</ele>
        <time>2021-11-21T16:23:33Z</time>
      </trkpt>
      <trkpt lat="49.15381" lon="7.04586">
        <ele>288.2</ele>
        <time>2021-11-21T16:23:38Z</time>
      </trkpt>
      <trkpt lat="49.15383" lon="7.04571">
        <ele>287.9</ele>
        <time>2021-11-21T16:23:47Z</time>
      </trkpt>
      <trkpt lat="49.15391" lon="7.04565">
        <ele>287.9</ele>
        <time>2021-11-21T16:23:55Z</time>
      </trkpt>
      <trkpt lat="49.15401" lon="7.0456">
        <ele>287.9</ele>
        <time>2021-11-21T16:24:04Z</time>
      </trkpt>
      <trkpt lat="49.15407" lon="7.04549">
        <ele>287.8</ele>
        <time>2021-11-21T16:24:12Z</time>
      </trkpt>
      <trkpt lat="49.15414" lon="7.04537">
        <ele>287.5</ele>
        <time>2021-11-21T16:24:19Z</time>
      </trkpt>
      <trkpt lat="49.1541" lon="7.04524">
        <ele>285.3</ele>
        <time>2021-11-21T16:24:33Z</time>
      </trkpt>
      <trkpt lat="49.15404" lon="7.04512">
        <ele>282.9</ele>
        <time>2021-11-21T16:24:43Z</time>
      </trkpt>
      <trkpt lat="49.15402" lon="7.04508">
        <ele>282</ele>
        <time>2021-11-21T16:24:45Z</time>
      </trkpt>
      <trkpt lat="49.15403" lon="7.04509">
        <ele>281.8</ele>
        <time>2021-11-21T16:24:50Z</time>
      </trkpt>
      <trkpt lat="49.15403" lon="7.04509">
        <ele>281.8</ele>
        <time>2021-11-21T16:24:51Z</time>
      </trkpt>
      <trkpt lat="49.15403" lon="7.04508">
        <ele>281.7</ele>
        <time>2021-11-21T16:24:53Z</time>
      </trkpt>
      <trkpt lat="49.15399" lon="7.04496">
        <ele>278.6</ele>
        <time>2021-11-21T16:25:07Z</time>
      </trkpt>
      <trkpt lat="49.15393" lon="7.04487">
        <ele>275.7</ele>
        <time>2021-11-21T16:25:26Z</time>
      </trkpt>
      <trkpt lat="49.15393" lon="7.04487">
        <ele>275.6</ele>
        <time>2021-11-21T16:25:27Z</time>
      </trkpt>
      <trkpt lat="49.15393" lon="7.04487">
        <ele>275.5</ele>
        <time>2021-11-21T16:25:29Z</time>
      </trkpt>
      <trkpt lat="49.15393" lon="7.04487">
        <ele>275.4</ele>
        <time>2021-11-21T16:25:30Z</time>
      </trkpt>
      <trkpt lat="49.15393" lon="7.04487">
        <ele>275.3</ele>
        <time>2021-11-21T16:25:32Z</time>
      </trkpt>
      <trkpt lat="49.15393" lon="7.04487">
        <ele>275.1</ele>
        <time>2021-11-21T16:25:33Z</time>
      </trkpt>
      <trkpt lat="49.15393" lon="7.04486">
        <ele>274.9</ele>
        <time>2021-11-21T16:25:36Z</time>
      </trkpt>
      <trkpt lat="49.15393" lon="7.04488">
        <ele>274.6</ele>
        <time>2021-11-21T16:25:37Z</time>
      </trkpt>
      <trkpt lat="49.15389" lon="7.04475">
        <ele>271.3</ele>
        <time>2021-11-21T16:26:08Z</time>
      </trkpt>
      <trkpt lat="49.15381" lon="7.04468">
        <ele>268.5</ele>
        <time>2021-11-21T16:26:19Z</time>
      </trkpt>
      <trkpt lat="49.15386" lon="7.04455">
        <ele>266.8</ele>
        <time>2021-11-21T16:26:39Z</time>
      </trkpt>
      <trkpt lat="49.1539" lon="7.04442">
        <ele>265.5</ele>
        <time>2021-11-21T16:26:45Z</time>
      </trkpt>
      <trkpt lat="49.15396" lon="7.04431">
        <ele>263.6</ele>
        <time>2021-11-21T16:26:55Z</time>
      </trkpt>
      <trkpt lat="49.15394" lon="7.04416">
        <ele>260.9</ele>
        <time>2021-11-21T16:27:24Z</time>
      </trkpt>
      <trkpt lat="49.15396" lon="7.04402">
        <ele>258.2</ele>
        <time>2021-11-21T16:27:35Z</time>
      </trkpt>
      <trkpt lat="49.15394" lon="7.04389">
        <ele>255.8</ele>
        <time>2021-11-21T16:27:47Z</time>
      </trkpt>
      <trkpt lat="49.15393" lon="7.04389">
        <ele>255.8</ele>
        <time>2021-11-21T16:27:48Z</time>
      </trkpt>
      <trkpt lat="49.15393" lon="7.04389">
        <ele>255.8</ele>
        <time>2021-11-21T16:27:49Z</time>
      </trkpt>
      <trkpt lat="49.15393" lon="7.04388">
        <ele>255.6</ele>
        <time>2021-11-21T16:27:50Z</time>
      </trkpt>
      <trkpt lat="49.15399" lon="7.04384">
        <ele>254.5</ele>
        <time>2021-11-21T16:28:06Z</time>
      </trkpt>
      <trkpt lat="49.154" lon="7.04383">
        <ele>254.3</ele>
        <time>2021-11-21T16:28:07Z</time>
      </trkpt>
      <trkpt lat="49.15408" lon="7.04378">
        <ele>253.9</ele>
        <time>2021-11-21T16:28:24Z</time>
      </trkpt>
      <trkpt lat="49.15418" lon="7.0437">
        <ele>254.2</ele>
        <time>2021-11-21T16:28:33Z</time>
      </trkpt>
      <trkpt lat="49.15426" lon="7.04365">
        <ele>254.4</ele>
        <time>2021-11-21T16:28:43Z</time>
      </trkpt>
      <trkpt lat="49.15432" lon="7.04354">
        <ele>254.4</ele>
        <time>2021-11-21T16:28:53Z</time>
      </trkpt>
      <trkpt lat="49.15437" lon="7.04341">
        <ele>254.2</ele>
        <time>2021-11-21T16:29:02Z</time>
      </trkpt>
      <trkpt lat="49.15443" lon="7.04329">
        <ele>254.2</ele>
        <time>2021-11-21T16:29:09Z</time>
      </trkpt>
      <trkpt lat="49.15451" lon="7.04319">
        <ele>254.4</ele>
        <time>2021-11-21T16:29:17Z</time>
      </trkpt>
      <trkpt lat="49.15459" lon="7.04313">
        <ele>254.8</ele>
        <time>2021-11-21T16:29:27Z</time>
      </trkpt>
      <trkpt lat="49.15459" lon="7.04316">
        <ele>254.9</ele>
        <time>2021-11-21T16:29:33Z</time>
      </trkpt>
      <trkpt lat="49.15458" lon="7.04315">
        <ele>255</ele>
        <time>2021-11-21T16:29:35Z</time>
      </trkpt>
      <trkpt lat="49.15455" lon="7.04302">
        <ele>254.6</ele>
        <time>2021-11-21T16:29:45Z</time>
      </trkpt>
      <trkpt lat="49.15462" lon="7.0429">
        <ele>253.7</ele>
        <time>2021-11-21T16:29:54Z</time>
      </trkpt>
      <trkpt lat="49.15469" lon="7.04282">
        <ele>252.9</ele>
        <time>2021-11-21T16:30:09Z</time>
      </trkpt>
      <trkpt lat="49.15478" lon="7.0428">
        <ele>252</ele>
        <time>2021-11-21T16:30:22Z</time>
      </trkpt>
      <trkpt lat="49.15488" lon="7.04279">
        <ele>251.1</ele>
        <time>2021-11-21T16:30:31Z</time>
      </trkpt>
      <trkpt lat="49.15498" lon="7.04275">
        <ele>250.2</ele>
        <time>2021-11-21T16:30:39Z</time>
      </trkpt>
      <trkpt lat="49.15507" lon="7.04273">
        <ele>249.3</ele>
        <time>2021-11-21T16:30:48Z</time>
      </trkpt>
      <trkpt lat="49.15514" lon="7.04264">
        <ele>248.4</ele>
        <time>2021-11-21T16:30:57Z</time>
      </trkpt>
      <trkpt lat="49.15515" lon="7.0426">
        <ele>248.2</ele>
        <time>2021-11-21T16:31:01Z</time>
      </trkpt>
      <trkpt lat="49.15514" lon="7.04259">
        <ele>248</ele>
        <time>2021-11-21T16:31:02Z</time>
      </trkpt>
      <trkpt lat="49.15512" lon="7.0426">
        <ele>247.8</ele>
        <time>2021-11-21T16:31:06Z</time>
      </trkpt>
      <trkpt lat="49.15512" lon="7.0426">
        <ele>247.8</ele>
        <time>2021-11-21T16:31:07Z</time>
      </trkpt>
      <trkpt lat="49.15522" lon="7.04261">
        <ele>247</ele>
        <time>2021-11-21T16:31:17Z</time>
      </trkpt>
      <trkpt lat="49.15531" lon="7.04257">
        <ele>246.2</ele>
        <time>2021-11-21T16:31:25Z</time>
      </trkpt>
      <trkpt lat="49.15539" lon="7.04251">
        <ele>245.5</ele>
        <time>2021-11-21T16:31:31Z</time>
      </trkpt>
      <trkpt lat="49.15545" lon="7.0424">
        <ele>244.7</ele>
        <time>2021-11-21T16:31:39Z</time>
      </trkpt>
      <trkpt lat="49.15554" lon="7.04234">
        <ele>243.7</ele>
        <time>2021-11-21T16:31:48Z</time>
      </trkpt>
      <trkpt lat="49.15545" lon="7.04229">
        <ele>243.3</ele>
        <time>2021-11-21T16:31:58Z</time>
      </trkpt>
      <trkpt lat="49.15536" lon="7.04229">
        <ele>242.4</ele>
        <time>2021-11-21T16:32:09Z</time>
      </trkpt>
      <trkpt lat="49.15527" lon="7.04229">
        <ele>241.6</ele>
        <time>2021-11-21T16:32:16Z</time>
      </trkpt>
      <trkpt lat="49.15517" lon="7.04228">
        <ele>240.9</ele>
        <time>2021-11-21T16:32:25Z</time>
      </trkpt>
      <trkpt lat="49.15508" lon="7.04228">
        <ele>240.1</ele>
        <time>2021-11-21T16:32:33Z</time>
      </trkpt>
      <trkpt lat="49.15505" lon="7.04227">
        <ele>239.8</ele>
        <time>2021-11-21T16:32:38Z</time>
      </trkpt>
      <trkpt lat="49.15505" lon="7.04227">
        <ele>239.8</ele>
        <time>2021-11-21T16:32:39Z</time>
      </trkpt>
      <trkpt lat="49.15504" lon="7.04214">
        <ele>239</ele>
        <time>2021-11-21T16:32:54Z</time>
      </trkpt>
      <trkpt lat="49.15499" lon="7.04202">
        <ele>234.2</ele>
        <time>2021-11-21T16:33:07Z</time>
      </trkpt>
      <trkpt lat="49.15496" lon="7.04189">
        <ele>233.1</ele>
        <time>2021-11-21T16:33:13Z</time>
      </trkpt>
      <trkpt lat="49.15497" lon="7.04173">
        <ele>232.3</ele>
        <time>2021-11-21T16:33:22Z</time>
      </trkpt>
      <trkpt lat="49.155" lon="7.0416">
        <ele>231.7</ele>
        <time>2021-11-21T16:33:30Z</time>
      </trkpt>
      <trkpt lat="49.15509" lon="7.04153">
        <ele>231.4</ele>
        <time>2021-11-21T16:33:42Z</time>
      </trkpt>
      <trkpt lat="49.15519" lon="7.04151">
        <ele>231.1</ele>
        <time>2021-11-21T16:33:51Z</time>
      </trkpt>
      <trkpt lat="49.15529" lon="7.04152">
        <ele>230.6</ele>
        <time>2021-11-21T16:33:59Z</time>
      </trkpt>
      <trkpt lat="49.15539" lon="7.04155">
        <ele>230.2</ele>
        <time>2021-11-21T16:34:03Z</time>
      </trkpt>
      <trkpt lat="49.15549" lon="7.04153">
        <ele>229.6</ele>
        <time>2021-11-21T16:34:09Z</time>
      </trkpt>
      <trkpt lat="49.15558" lon="7.04146">
        <ele>229.1</ele>
        <time>2021-11-21T16:34:17Z</time>
      </trkpt>
      <trkpt lat="49.15567" lon="7.04141">
        <ele>228.7</ele>
        <time>2021-11-21T16:34:24Z</time>
      </trkpt>
      <trkpt lat="49.15575" lon="7.04135">
        <ele>228.4</ele>
        <time>2021-11-21T16:34:32Z</time>
      </trkpt>
      <trkpt lat="49.15585" lon="7.04132">
        <ele>228.1</ele>
        <time>2021-11-21T16:34:43Z</time>
      </trkpt>
      <trkpt lat="49.15594" lon="7.0413">
        <ele>227.8</ele>
        <time>2021-11-21T16:34:50Z</time>
      </trkpt>
      <trkpt lat="49.15604" lon="7.04127">
        <ele>227.4</ele>
        <time>2021-11-21T16:34:57Z</time>
      </trkpt>
      <trkpt lat="49.15613" lon="7.04125">
        <ele>226.9</ele>
        <time>2021-11-21T16:35:03Z</time>
      </trkpt>
      <trkpt lat="49.15623" lon="7.04124">
        <ele>226.4</ele>
        <time>2021-11-21T16:35:11Z</time>
      </trkpt>
      <trkpt lat="49.15628" lon="7.04125">
        <ele>226.1</ele>
        <time>2021-11-21T16:35:17Z</time>
      </trkpt>
      <trkpt lat="49.15628" lon="7.04125">
        <ele>226.1</ele>
        <time>2021-11-21T16:35:18Z</time>
      </trkpt>
      <trkpt lat="49.15631" lon="7.04125">
        <ele>225.9</ele>
        <time>2021-11-21T16:35:23Z</time>
      </trkpt>
      <trkpt lat="49.15631" lon="7.04125">
        <ele>225.9</ele>
        <time>2021-11-21T16:35:24Z</time>
      </trkpt>
      <trkpt lat="49.15641" lon="7.04125">
        <ele>225.3</ele>
        <time>2021-11-21T16:35:31Z</time>
      </trkpt>
      <trkpt lat="49.15651" lon="7.0412">
        <ele>224.7</ele>
        <time>2021-11-21T16:35:38Z</time>
      </trkpt>
      <trkpt lat="49.15658" lon="7.04111">
        <ele>223.9</ele>
        <time>2021-11-21T16:35:46Z</time>
      </trkpt>
      <trkpt lat="49.15658" lon="7.04097">
        <ele>222.5</ele>
        <time>2021-11-21T16:36:00Z</time>
      </trkpt>
      <trkpt lat="49.15656" lon="7.04083">
        <ele>221.2</ele>
        <time>2021-11-21T16:36:09Z</time>
      </trkpt>
      <trkpt lat="49.15655" lon="7.04068">
        <ele>219.8</ele>
        <time>2021-11-21T16:36:18Z</time>
      </trkpt>
      <trkpt lat="49.15653" lon="7.04054">
        <ele>218.6</ele>
        <time>2021-11-21T16:36:27Z</time>
      </trkpt>
      <trkpt lat="49.15652" lon="7.0404">
        <ele>217.4</ele>
        <time>2021-11-21T16:36:34Z</time>
      </trkpt>
      <trkpt lat="49.15651" lon="7.04026">
        <ele>216.2</ele>
        <time>2021-11-21T16:36:42Z</time>
      </trkpt>
      <trkpt lat="49.15648" lon="7.04013">
        <ele>215.1</ele>
        <time>2021-11-21T16:36:50Z</time>
      </trkpt>
      <trkpt lat="49.15646" lon="7.03998">
        <ele>214</ele>
        <time>2021-11-21T16:36:59Z</time>
      </trkpt>
      <trkpt lat="49.15645" lon="7.03984">
        <ele>213</ele>
        <time>2021-11-21T16:37:11Z</time>
      </trkpt>
      <trkpt lat="49.15643" lon="7.03969">
        <ele>211.9</ele>
        <time>2021-11-21T16:37:22Z</time>
      </trkpt>
      <trkpt lat="49.15642" lon="7.03954">
        <ele>210.9</ele>
        <time>2021-11-21T16:37:28Z</time>
      </trkpt>
      <trkpt lat="49.15642" lon="7.03939">
        <ele>209.9</ele>
        <time>2021-11-21T16:37:38Z</time>
      </trkpt>
      <trkpt lat="49.15643" lon="7.03924">
        <ele>208.8</ele>
        <time>2021-11-21T16:37:47Z</time>
      </trkpt>
      <trkpt lat="49.15644" lon="7.03909">
        <ele>207.8</ele>
        <time>2021-11-21T16:37:56Z</time>
      </trkpt>
      <trkpt lat="49.15644" lon="7.0391">
        <ele>207.7</ele>
        <time>2021-11-21T16:37:58Z</time>
      </trkpt>
      <trkpt lat="49.15644" lon="7.0391">
        <ele>207.7</ele>
        <time>2021-11-21T16:38:05Z</time>
      </trkpt>
      <trkpt lat="49.15645" lon="7.03895">
        <ele>206.5</ele>
        <time>2021-11-21T16:38:16Z</time>
      </trkpt>
      <trkpt lat="49.15645" lon="7.0388">
        <ele>205.4</ele>
        <time>2021-11-21T16:38:24Z</time>
      </trkpt>
      <trkpt lat="49.15642" lon="7.03865">
        <ele>204.2</ele>
        <time>2021-11-21T16:38:31Z</time>
      </trkpt>
      <trkpt lat="49.1564" lon="7.0385">
        <ele>203.2</ele>
        <time>2021-11-21T16:38:38Z</time>
      </trkpt>
      <trkpt lat="49.1564" lon="7.03836">
        <ele>202.2</ele>
        <time>2021-11-21T16:38:45Z</time>
      </trkpt>
      <trkpt lat="49.15637" lon="7.03822">
        <ele>201.5</ele>
        <time>2021-11-21T16:38:54Z</time>
      </trkpt>
      <trkpt lat="49.15631" lon="7.03809">
        <ele>200.8</ele>
        <time>2021-11-21T16:39:04Z</time>
      </trkpt>
      <trkpt lat="49.15627" lon="7.03796">
        <ele>200.2</ele>
        <time>2021-11-21T16:39:13Z</time>
      </trkpt>
      <trkpt lat="49.15623" lon="7.03783">
        <ele>199.8</ele>
        <time>2021-11-21T16:39:23Z</time>
      </trkpt>
      <trkpt lat="49.1562" lon="7.0377">
        <ele>199.4</ele>
        <time>2021-11-21T16:39:34Z</time>
      </trkpt>
      <trkpt lat="49.15616" lon="7.03757">
        <ele>199.1</ele>
        <time>2021-11-21T16:39:42Z</time>
      </trkpt>
      <trkpt lat="49.15613" lon="7.03742">
        <ele>198.8</ele>
        <time>2021-11-21T16:39:51Z</time>
      </trkpt>
      <trkpt lat="49.15614" lon="7.03728">
        <ele>198.8</ele>
        <time>2021-11-21T16:40:00Z</time>
      </trkpt>
      <trkpt lat="49.15623" lon="7.0372">
        <ele>199.2</ele>
        <time>2021-11-21T16:40:07Z</time>
      </trkpt>
      <trkpt lat="49.15628" lon="7.03709">
        <ele>199.6</ele>
        <time>2021-11-21T16:40:13Z</time>
      </trkpt>
      <trkpt lat="49.15638" lon="7.03705">
        <ele>200.1</ele>
        <time>2021-11-21T16:40:21Z</time>
      </trkpt>
      <trkpt lat="49.15644" lon="7.03703">
        <ele>200.4</ele>
        <time>2021-11-21T16:40:30Z</time>
      </trkpt>
      <trkpt lat="49.15644" lon="7.03703">
        <ele>200.4</ele>
        <time>2021-11-21T16:40:31Z</time>
      </trkpt>
      <trkpt lat="49.15653" lon="7.03697">
        <ele>200.7</ele>
        <time>2021-11-21T16:40:40Z</time>
      </trkpt>
      <trkpt lat="49.15661" lon="7.0369">
        <ele>201</ele>
        <time>2021-11-21T16:40:49Z</time>
      </trkpt>
      <trkpt lat="49.15666" lon="7.03677">
        <ele>201.2</ele>
        <time>2021-11-21T16:40:57Z</time>
      </trkpt>
      <trkpt lat="49.15667" lon="7.03663">
        <ele>201</ele>
        <time>2021-11-21T16:41:07Z</time>
      </trkpt>
      <trkpt lat="49.15663" lon="7.0365">
        <ele>200.8</ele>
        <time>2021-11-21T16:41:16Z</time>
      </trkpt>
      <trkpt lat="49.15659" lon="7.03638">
        <ele>200.5</ele>
        <time>2021-11-21T16:41:24Z</time>
      </trkpt>
      <trkpt lat="49.15657" lon="7.03624">
        <ele>200.2</ele>
        <time>2021-11-21T16:41:33Z</time>
      </trkpt>
      <trkpt lat="49.15653" lon="7.0361">
        <ele>199.9</ele>
        <time>2021-11-21T16:41:42Z</time>
      </trkpt>
      <trkpt lat="49.1565" lon="7.03596">
        <ele>199.6</ele>
        <time>2021-11-21T16:41:50Z</time>
      </trkpt>
      <trkpt lat="49.15647" lon="7.03582">
        <ele>199.3</ele>
        <time>2021-11-21T16:41:58Z</time>
      </trkpt>
      <trkpt lat="49.15644" lon="7.03568">
        <ele>199</ele>
        <time>2021-11-21T16:42:07Z</time>
      </trkpt>
      <trkpt lat="49.1564" lon="7.03554">
        <ele>198.5</ele>
        <time>2021-11-21T16:42:14Z</time>
      </trkpt>
      <trkpt lat="49.15631" lon="7.03546">
        <ele>197.9</ele>
        <time>2021-11-21T16:42:20Z</time>
      </trkpt>
      <trkpt lat="49.15634" lon="7.03532">
        <ele>196.7</ele>
        <time>2021-11-21T16:42:32Z</time>
      </trkpt>
      <trkpt lat="49.15643" lon="7.03526">
        <ele>196.7</ele>
        <time>2021-11-21T16:42:38Z</time>
      </trkpt>
      <trkpt lat="49.15652" lon="7.03523">
        <ele>196.7</ele>
        <time>2021-11-21T16:42:43Z</time>
      </trkpt>
      <trkpt lat="49.1566" lon="7.03514">
        <ele>196.8</ele>
        <time>2021-11-21T16:42:51Z</time>
      </trkpt>
      <trkpt lat="49.15668" lon="7.03505">
        <ele>196.9</ele>
        <time>2021-11-21T16:43:00Z</time>
      </trkpt>
      <trkpt lat="49.15678" lon="7.03499">
        <ele>197</ele>
        <time>2021-11-21T16:43:07Z</time>
      </trkpt>
      <trkpt lat="49.15683" lon="7.03483">
        <ele>197.1</ele>
        <time>2021-11-21T16:43:16Z</time>
      </trkpt>
      <trkpt lat="49.15685" lon="7.03468">
        <ele>196.9</ele>
        <time>2021-11-21T16:43:24Z</time>
      </trkpt>
      <trkpt lat="49.15684" lon="7.03454">
        <ele>196.7</ele>
        <time>2021-11-21T16:43:32Z</time>
      </trkpt>
      <trkpt lat="49.1568" lon="7.03442">
        <ele>196.6</ele>
        <time>2021-11-21T16:43:40Z</time>
      </trkpt>
      <trkpt lat="49.15673" lon="7.0343">
        <ele>196.6</ele>
        <time>2021-11-21T16:43:48Z</time>
      </trkpt>
      <trkpt lat="49.15667" lon="7.03418">
        <ele>196.5</ele>
        <time>2021-11-21T16:43:55Z</time>
      </trkpt>
      <trkpt lat="49.1566" lon="7.03407">
        <ele>196.5</ele>
        <time>2021-11-21T16:44:03Z</time>
      </trkpt>
      <trkpt lat="49.15654" lon="7.03397">
        <ele>196.4</ele>
        <time>2021-11-21T16:44:11Z</time>
      </trkpt>
      <trkpt lat="49.15654" lon="7.03382">
        <ele>196.5</ele>
        <time>2021-11-21T16:44:19Z</time>
      </trkpt>
      <trkpt lat="49.15659" lon="7.03379">
        <ele>196.5</ele>
        <time>2021-11-21T16:44:27Z</time>
      </trkpt>
      <trkpt lat="49.15665" lon="7.03376">
        <ele>196.5</ele>
        <time>2021-11-21T16:44:35Z</time>
      </trkpt>
      <trkpt lat="49.15671" lon="7.03373">
        <ele>196.5</ele>
        <time>2021-11-21T16:44:42Z</time>
      </trkpt>
      <trkpt lat="49.15676" lon="7.0337">
        <ele>196.5</ele>
        <time>2021-11-21T16:44:49Z</time>
      </trkpt>
      <trkpt lat="49.15682" lon="7.03366">
        <ele>196.6</ele>
        <time>2021-11-21T16:44:58Z</time>
      </trkpt>
      <trkpt lat="49.15688" lon="7.03363">
        <ele>196.6</ele>
        <time>2021-11-21T16:45:06Z</time>
      </trkpt>
      <trkpt lat="49.15693" lon="7.0336">
        <ele>196.8</ele>
        <time>2021-11-21T16:45:13Z</time>
      </trkpt>
      <trkpt lat="49.15699" lon="7.03357">
        <ele>197</ele>
        <time>2021-11-21T16:45:16Z</time>
      </trkpt>
      <trkpt lat="49.15705" lon="7.03354">
        <ele>197.2</ele>
        <time>2021-11-21T16:45:16Z</time>
      </trkpt>
      <trkpt lat="49.15705" lon="7.03354">
        <ele>197.2</ele>
        <time>2021-11-21T16:45:16Z</time>
      </trkpt>
      <trkpt lat="49.15705" lon="7.03354">
        <ele>197.2</ele>
        <time>2021-11-21T16:45:16Z</time>
      </trkpt>
    </trkseg>
  </trk>
</gpx>